Date StartTime U_cm/s V_cm/s W_cm/s Ustd_cm/s Vstd_cm/s Wstd_cm/s Uvar_(cm/s)^2 Vvar_(cm/s)^2 Wvar_(cm/s)^2 KE_(m/s)^2 TurbulentKE_(m/s)^2 HorizWindSpeed_cm/s FrictionSpeec_cm/s DragCoef SpeedOfSound_m/s SonicTemperature_C Pressure_mb 
12/03/2014  00:00:00      -40.177      -24.008       -1.425       31.894       26.608       14.935     1017.233      708.003      223.057        0.207        0.097       46.804       11.411        0.059      333.638        3.086      855.640
12/03/2014  00:01:00      -28.692       -3.464       -8.322       19.056       16.261       10.213      363.117      264.428      104.313        0.082        0.037       28.901        8.438        0.085      333.575        2.979      855.579
12/03/2014  00:02:00      -13.420        3.296        4.013       15.967        8.647       13.830      254.955       74.765      191.281        0.036        0.026       13.819       13.302        0.927      333.645        3.093      855.586
12/03/2014  00:03:00      -11.706       -2.619        4.312       13.958       11.379       10.574      194.828      129.478      111.817        0.030        0.022       11.996        7.805        0.423      333.634        3.078      855.656
12/03/2014  00:04:00      -25.918      -10.939        5.308       33.877       21.825       10.144     1147.620      476.334      102.903        0.127        0.086       28.132       12.092        0.185      333.691        3.173      855.744
12/03/2014  00:05:00      -26.280      -18.775       -2.342       18.400       12.495        8.409      338.545      156.128       70.715        0.081        0.028       32.297        7.118        0.049      333.709        3.201      855.824
12/03/2014  00:06:00      -15.947        2.755       11.862       26.474        9.278        9.357      700.857       86.073       87.561        0.064        0.044       16.183        9.840        0.370      333.772        3.307      855.845
12/03/2014  00:07:00       27.891       23.816       19.562       12.951       13.367       14.545      167.731      178.665      211.565        0.114        0.028       36.676        5.708        0.024      333.703        3.190      855.804
12/03/2014  00:08:00       33.818       24.809       30.957       23.605       23.138       12.867      557.212      535.367      165.550        0.199        0.063       41.942        8.320        0.039      333.729        3.234      855.756
12/03/2014  00:09:00        2.977       -4.137       31.280       19.832       20.072       20.971      393.289      402.878      439.795        0.112        0.062        5.097       13.060        6.565      333.810        3.370      855.759
12/03/2014  00:10:00      -30.885      -42.115        9.605       46.982       26.223       24.907     2207.303      687.644      620.366        0.317        0.176       52.227       18.967        0.132      333.807        3.364      855.809
12/03/2014  00:11:00      -29.190      -59.013        5.462       55.970       64.264       24.844     3132.693     4129.851      617.205        0.612        0.394       65.838       27.397        0.173      333.762        3.289      855.863
12/03/2014  00:12:00      -73.118      -56.205        0.879       47.790       46.444       30.002     2283.892     2157.058      900.150        0.692        0.267       92.224       29.348        0.101      333.707        3.198      855.913
12/03/2014  00:13:00      -62.162      -74.421        3.037       48.467       32.841       29.448     2349.056     1078.534      867.184        0.685        0.215       96.967       20.687        0.046      333.761        3.287      855.935
12/03/2014  00:14:00      -43.033      -57.212       -4.772       41.667       40.532       25.549     1736.168     1642.843      652.774        0.459        0.202       71.590       13.008        0.033      333.731        3.237      855.933
12/03/2014  00:15:00      -28.130      -29.525        8.647       32.220       31.888       16.116     1038.156     1016.843      259.711        0.203        0.116       40.781       15.920        0.152      333.746        3.264      855.904
12/03/2014  00:16:00      -31.244        7.903        4.085       30.171       21.199       11.958      910.312      449.396      143.003        0.128        0.075       32.228       11.672        0.131      333.771        3.304      855.829
12/03/2014  00:17:00      -72.420      -15.211        1.612       27.364       29.749       18.444      748.785      885.010      340.187        0.373        0.099       74.000       15.945        0.046      333.707        3.198      855.723
12/03/2014  00:18:00      -57.671       -5.716       -2.625       25.168       37.700       15.697      633.441     1421.299      246.411        0.283        0.115       57.954       12.958        0.050      333.676        3.146      855.670
12/03/2014  00:19:00      -69.015       26.065       -7.345       25.742       17.516       15.805      662.653      306.818      249.784        0.336        0.061       73.773       13.813        0.035      333.649        3.103      855.684
12/03/2014  00:20:00      -68.242        7.753       -5.178       15.143       12.796        9.767      229.314      163.743       95.398        0.262        0.024       68.681        7.731        0.013      333.669        3.139      855.712
12/03/2014  00:21:00      -30.030       -4.438       -1.307        8.651       11.644        5.419       74.846      135.577       29.360        0.058        0.012       30.356        4.709        0.024      333.703        3.191      855.738
12/03/2014  00:22:00      -19.676        6.882       -2.725       13.134        8.846        7.952      172.490       78.253       63.228        0.038        0.016       20.845        4.440        0.045      333.721        3.222      855.753
12/03/2014  00:23:00       -3.594        5.823       17.124        6.248        8.372        3.831       39.037       70.096       14.673        0.023        0.006        6.843        3.475        0.258      333.809        3.368      855.736
12/03/2014  00:24:00       -8.506        7.497       19.268       21.877       10.013       10.818      478.621      100.253      117.021        0.060        0.035       11.338       13.672        1.454      333.752        3.274      855.716
12/03/2014  00:25:00       -4.777       -3.018       13.816       21.899       15.283       12.265      479.558      233.580      150.432        0.054        0.043        5.651       15.113        7.153      333.749        3.270      855.705
12/03/2014  00:26:00      -28.496      -26.964        3.858       33.405       18.053       15.343     1115.900      325.897      235.394        0.162        0.084       39.232       11.243        0.082      333.834        3.410      855.730
12/03/2014  00:27:00      -61.490      -20.839        2.466       44.084       25.093       16.482     1943.361      629.639      271.645        0.353        0.142       64.925       19.548        0.091      333.837        3.415      855.750
12/03/2014  00:28:00      -79.851      -46.133       -2.852       25.521       21.010       20.616      651.312      441.401      425.034        0.501        0.076       92.220       10.840        0.014      333.750        3.268      855.735
12/03/2014  00:29:00      -71.585      -15.701       -4.206       16.972       10.818        8.800      288.045      117.025       77.449        0.294        0.024       73.287       10.147        0.019      333.751        3.273      855.706
12/03/2014  00:30:00      -11.986      -54.942       -9.531       21.717       18.371       12.300      471.623      337.485      151.293        0.211        0.048       56.234       11.556        0.042      333.851        3.437      855.690
12/03/2014  00:31:00      -20.588      -68.366        2.761       26.411       30.249       15.587      697.526      914.979      242.953        0.348        0.093       71.398       13.105        0.034      333.904        3.525      855.736
12/03/2014  00:32:00      -54.655      -32.672       -0.009       26.031       30.240       14.646      677.594      914.439      214.516        0.293        0.090       63.676       11.930        0.035      333.851        3.437      855.819
12/03/2014  00:33:00      -21.814      -48.456        0.887       21.278       33.235       19.828      452.744     1104.595      393.134        0.239        0.098       53.140       11.699        0.048      333.866        3.463      855.854
12/03/2014  00:34:00       -8.774       13.412       48.737       13.244       21.823       21.318      175.414      476.225      454.439        0.187        0.055       16.027       13.242        0.683      333.880        3.487      855.839
12/03/2014  00:35:00       17.332        6.847       42.338       36.465       49.241       42.527     1329.679     2424.700     1808.513        0.385        0.278       18.635       42.627        5.233      333.821        3.387      855.851
12/03/2014  00:36:00       64.357      -40.007        7.416       48.363       33.153       28.575     2339.008     1099.128      816.528        0.503        0.213       75.779       28.822        0.145      333.832        3.407      855.930
12/03/2014  00:37:00      -63.972      -37.266        2.440       55.713       32.526       28.239     3103.966     1057.972      797.447        0.522        0.248       74.035       14.508        0.038      333.929        3.567      856.013
12/03/2014  00:38:00     -146.131      -76.357       -5.854       36.300       25.678       20.574     1317.701      659.348      423.300        1.481        0.120      164.878       20.965        0.016      333.860        3.451      856.038
12/03/2014  00:39:00     -110.252      -83.694       -3.767       45.220       35.787       25.845     2044.819     1280.728      667.946        1.158        0.200      138.420       21.790        0.025      333.817        3.380      856.036
12/03/2014  00:40:00      -44.649      -61.978       12.943       63.018       44.783       32.625     3971.303     2005.496     1064.359        0.652        0.352       76.386       34.756        0.207      333.856        3.446      856.021
12/03/2014  00:41:00      -99.544      -80.135        3.784       62.701       51.687       30.217     3931.372     2671.589      913.092        1.193        0.376      127.791       29.927        0.055      333.682        3.157      856.004
12/03/2014  00:42:00     -130.639      -50.067      -12.230       37.322       27.507       21.508     1392.946      756.628      462.578        1.117        0.131      139.904       18.476        0.017      333.575        2.978      855.989
12/03/2014  00:43:00     -102.172      -76.345       -6.054       30.726       38.826       21.083      944.115     1507.464      444.506        0.960        0.145      127.545       18.567        0.021      333.589        3.004      855.990
12/03/2014  00:44:00      -60.023      -17.182        6.513       44.652       22.460       19.956     1993.779      504.473      398.231        0.342        0.145       62.434       26.931        0.186      333.614        3.044      856.000
12/03/2014  00:45:00      -11.449       -5.949        4.211       35.108       13.219       16.303     1232.602      174.748      265.803        0.093        0.084       12.902        8.779        0.463      333.703        3.192      855.996
12/03/2014  00:46:00        8.261        4.174       14.205       10.478       11.803        9.635      109.799      139.316       92.835        0.031        0.017        9.255        8.102        0.766      333.733        3.243      855.980
12/03/2014  00:47:00       -6.027       15.050        5.524       10.476        8.971        7.381      109.748       80.473       54.478        0.027        0.012       16.212        4.457        0.076      333.703        3.191      855.970
12/03/2014  00:48:00       11.986       34.557      -12.131       14.371       16.861       15.224      206.515      284.284      231.781        0.110        0.036       36.576       10.031        0.075      333.670        3.137      855.970
12/03/2014  00:49:00      -15.437       15.859       11.789       25.195       15.299       13.586      634.763      234.056      184.587        0.084        0.053       22.131       12.981        0.344      333.671        3.140      855.944
12/03/2014  00:50:00      -47.761       21.248        5.457       21.370       10.132       10.857      456.691      102.666      117.875        0.172        0.034       52.274        3.521        0.005      333.627        3.068      855.904
12/03/2014  00:51:00      -41.515       17.819       -2.708       10.787       10.648        7.576      116.358      113.380       57.389        0.117        0.014       45.178        5.488        0.015      333.639        3.087      855.841
12/03/2014  00:52:00      -63.015       30.139       -7.647       17.962       17.279       14.981      322.643      298.556      224.429        0.289        0.042       69.852       10.830        0.024      333.660        3.120      855.774
12/03/2014  00:53:00      -61.399       39.641      -10.549       18.448       24.057       15.274      340.315      578.754      233.298        0.330        0.058       73.084       13.955        0.036      333.709        3.202      855.719
12/03/2014  00:54:00      -65.572       46.700      -12.623       26.150       20.432       14.941      683.819      417.464      223.240        0.398        0.066       80.502       15.053        0.035      333.650        3.105      855.690
12/03/2014  00:55:00      -65.772       71.172      -24.510       13.440       18.222       10.920      180.638      332.033      119.250        0.531        0.032       96.910        9.506        0.010      333.632        3.075      855.678
12/03/2014  00:56:00      -79.489       52.427      -19.147       19.468       33.657       15.611      378.984     1132.827      243.708        0.559        0.088       95.221       10.214        0.012      333.754        3.276      855.657
12/03/2014  00:57:00      -70.891       51.180      -13.188       21.057       25.314       14.998      443.409      640.798      224.954        0.456        0.065       87.435        7.267        0.007      333.684        3.160      855.618
12/03/2014  00:58:00      -63.536       68.809      -19.656       21.899       26.158       14.781      479.571      684.267      218.465        0.527        0.069       93.656       12.371        0.017      333.714        3.210      855.575
12/03/2014  00:59:00       -5.572       75.111       -5.830       23.775       31.770       22.648      565.235     1009.332      512.939        0.390        0.104       75.317       19.175        0.065      333.705        3.197      855.528
12/03/2014  01:00:00       32.339       84.468       -5.957       34.101       39.370       24.351     1162.883     1549.960      592.988        0.576        0.165       90.447       20.634        0.052      333.646        3.098      855.450
12/03/2014  01:01:00      106.536       81.758       -3.033       34.527       34.649       29.858     1192.118     1200.549      891.521        1.066        0.164      134.292       18.816        0.020      333.640        3.087      855.371
12/03/2014  01:02:00      131.919       70.944        4.412       41.733       29.697       28.038     1741.608      881.915      786.126        1.293        0.170      149.785       14.947        0.010      333.579        2.986      855.355
12/03/2014  01:03:00       93.445       59.264       13.522       54.509       31.222       29.528     2971.272      974.811      871.891        0.862        0.241      110.653       28.066        0.064      333.578        2.985      855.403
12/03/2014  01:04:00       73.864       39.455       13.559       35.152       23.686       25.122     1235.643      561.028      631.128        0.481        0.121       83.741       18.092        0.047      333.586        2.998      855.467
12/03/2014  01:05:00       -4.662       33.394       -0.655       31.112       23.108       21.335      967.978      533.981      455.178        0.155        0.098       33.718       21.703        0.414      333.573        2.976      855.523
12/03/2014  01:06:00      -47.645        9.588       -5.916       20.189       19.842       12.101      407.581      393.717      146.441        0.167        0.047       48.600        8.532        0.031      333.647        3.098      855.529
12/03/2014  01:07:00      -54.970       43.708      -13.134       15.640       25.985       12.874      244.607      675.207      165.729        0.309        0.054       70.229        6.205        0.008      333.608        3.034      855.487
12/03/2014  01:08:00       19.868      110.365       -9.838       35.614       49.941       29.223     1268.383     2494.134      853.976        0.864        0.231      112.139       33.194        0.088      333.681        3.155      855.425
12/03/2014  01:09:00       -2.836      140.296      -25.977       15.790       21.410        9.372      249.334      458.391       87.827        1.058        0.040      140.325        8.201        0.003      333.609        3.037      855.420
12/03/2014  01:10:00       -7.083       53.418      -10.596       11.365       20.580       10.513      129.153      423.549      110.518        0.184        0.033       53.885       10.122        0.035      333.684        3.161      855.475
12/03/2014  01:11:00      -34.925       26.474       -5.192       21.921       27.267       14.086      480.519      743.504      198.414        0.168        0.071       43.825       13.905        0.101      333.719        3.219      855.518
12/03/2014  01:12:00      -51.761        7.983       -3.254       16.767       13.085       12.361      281.147      171.221      152.803        0.168        0.030       52.373        9.783        0.035      333.688        3.166      855.562
12/03/2014  01:13:00      -55.884      -10.101       -5.147       11.676       11.968        8.467      136.337      143.225       71.688        0.180        0.018       56.789        7.660        0.018      333.696        3.177      855.601
12/03/2014  01:14:00      -62.960        6.290       -2.672       14.761       14.947       12.227      217.885      223.415      149.507        0.230        0.030       63.274       11.019        0.030      333.696        3.182      855.624
12/03/2014  01:15:00       -6.670        2.466       -1.123       18.360       10.827       18.175      337.076      117.223      330.324        0.042        0.039        7.111       18.168        6.527      333.735        3.244      855.664
12/03/2014  01:16:00       16.298       42.268       52.681       25.933       22.558       22.317      672.503      508.857      498.035        0.325        0.084       45.301       21.112        0.217      333.743        3.258      855.712
12/03/2014  01:17:00        6.922       42.869       59.098       26.407       27.388       16.524      697.352      750.099      273.032        0.355        0.086       43.424       17.992        0.172      333.733        3.240      855.725
12/03/2014  01:18:00       10.281       17.138       24.141       20.758       12.727       18.257      430.898      161.971      333.309        0.095        0.046       19.985        8.108        0.165      333.723        3.222      855.720
12/03/2014  01:19:00        8.529       30.204        5.353       20.331       13.485       10.544      413.340      181.842      111.184        0.086        0.035       31.385        9.096        0.084      333.702        3.188      855.708
12/03/2014  01:20:00      -44.296       23.899       -3.055       17.579       23.001        8.546      309.009      529.033       73.032        0.173        0.046       50.332        7.566        0.023      333.711        3.206      855.740
12/03/2014  01:21:00      -47.630      -44.391       -0.596       46.325       30.544       16.655     2145.995      932.943      277.397        0.380        0.168       65.109       10.526        0.026      333.791        3.337      855.791
12/03/2014  01:22:00      -60.292      -59.348       -1.354       54.772       35.774       28.499     2999.938     1279.782      812.194        0.612        0.255       84.600       23.583        0.078      333.737        3.247      855.817
12/03/2014  01:23:00      -93.894     -115.143       -5.708       27.199       29.519       21.219      739.766      871.353      450.260        1.208        0.103      148.573       15.120        0.010      333.727        3.231      855.815
12/03/2014  01:24:00     -100.399      -48.730       -1.084       33.335       35.582       25.637     1111.237     1266.061      657.264        0.774        0.152      111.600       21.781        0.038      333.706        3.197      855.814
12/03/2014  01:25:00      -79.039      -89.697        3.908       55.770       45.496       30.464     3110.288     2069.879      928.044        1.021        0.305      119.552       26.716        0.050      333.790        3.334      855.828
12/03/2014  01:26:00      -98.480      -64.410       -4.381       60.893       37.641       23.805     3707.942     1416.849      566.670        0.978        0.285      117.674       25.409        0.047      333.742        3.256      855.811
12/03/2014  01:27:00     -135.200        6.874       -4.746       46.470       41.374       20.841     2159.470     1711.839      434.330        1.133        0.215      135.374       17.065        0.016      333.699        3.183      855.766
12/03/2014  01:28:00     -125.989       -3.583      -11.603       54.439       28.036       21.718     2963.629      786.032      471.688        1.012        0.211      126.040       22.892        0.033      333.628        3.069      855.720
12/03/2014  01:29:00     -121.677       39.634      -11.374       29.622       24.406       21.782      877.483      595.667      474.467        0.923        0.097      127.969       13.720        0.011      333.602        3.024      855.691
12/03/2014  01:30:00      -93.139       26.911      -11.270       30.162       19.644       11.897      909.772      385.905      141.530        0.548        0.072       96.949        8.892        0.008      333.608        3.036      855.700
12/03/2014  01:31:00      -59.710       56.448      -12.423       24.462       25.149       16.380      598.384      632.459      268.298        0.420        0.075       82.168       11.401        0.019      333.739        3.252      855.718
12/03/2014  01:32:00      -38.708       27.610       -4.262       24.462       19.918       16.756      598.408      396.710      280.761        0.178        0.064       47.546        9.184        0.037      333.784        3.325      855.705
12/03/2014  01:33:00      -18.402       25.244       -1.121       19.213       27.744       11.772      369.152      769.717      138.579        0.113        0.064       31.240       10.608        0.115      333.836        3.412      855.740
12/03/2014  01:34:00      -70.692       41.547      -19.862       14.573       13.822        8.936      212.385      191.045       79.851        0.380        0.024       81.998        1.958        0.001      333.717        3.214      855.804
12/03/2014  01:35:00      -39.808        7.429       -9.101       21.617       13.105       11.358      467.295      171.742      129.011        0.125        0.038       40.495        9.778        0.058      333.760        3.287      855.842
12/03/2014  01:36:00       -1.625       11.798        3.618       18.094       13.811       14.097      327.383      190.742      198.714        0.044        0.036       11.909       12.206        1.050      333.772        3.306      855.829
12/03/2014  01:37:00       66.624       31.692        4.063       26.761       20.987       18.628      716.169      440.442      347.010        0.348        0.075       73.777       10.827        0.022      333.751        3.269      855.782
12/03/2014  01:38:00       41.509       24.722        0.848       24.625       14.609       19.173      606.411      213.434      367.610        0.176        0.059       48.313       16.585        0.118      333.747        3.264      855.741
12/03/2014  01:39:00       -6.599        0.305       -4.912        6.560        8.443        3.929       43.028       71.278       15.437        0.010        0.006        6.606        1.432        0.047      333.749        3.267      855.716
12/03/2014  01:40:00       -2.109       19.256       -2.934        8.291       13.206        6.790       68.747      174.388       46.106        0.034        0.014       19.371        4.141        0.046      333.714        3.209      855.674
12/03/2014  01:41:00        5.941       51.552       -5.769       10.356       20.499        5.191      107.250      420.216       26.951        0.164        0.028       51.893        6.402        0.015      333.708        3.200      855.594
12/03/2014  01:42:00       23.179       87.829      -12.991       12.507       16.684       10.857      156.422      278.340      117.864        0.449        0.028       90.836        8.842        0.009      333.744        3.259      855.517
12/03/2014  01:43:00       80.686       57.171      -10.160       25.688       18.851       15.537      659.898      355.353      241.385        0.557        0.063       98.887        8.078        0.007      333.731        3.236      855.477
12/03/2014  01:44:00       91.239       69.663       -8.663       39.268       22.017       21.059     1541.993      484.753      443.489        0.786        0.124      114.794       13.545        0.014      333.709        3.203      855.447
12/03/2014  01:45:00      114.770       83.358        0.031       22.278       20.037       17.294      496.325      401.471      299.072        1.066        0.060      141.848       10.813        0.006      333.659        3.119      855.437
12/03/2014  01:46:00       94.235       66.533        5.687       29.538       21.022       18.758      872.515      441.942      351.852        0.750        0.083      115.356       17.571        0.023      333.638        3.086      855.437
12/03/2014  01:47:00      103.495       62.569       13.213       32.254       25.442       28.959     1040.321      647.319      838.601        0.866        0.126      120.938       18.671        0.024      333.635        3.080      855.434
12/03/2014  01:48:00      121.472       45.670       27.280       38.698       34.738       33.531     1497.532     1206.731     1124.335        1.071        0.191      129.774       23.648        0.033      333.659        3.120      855.449
12/03/2014  01:49:00       75.499       33.727       40.572       56.089       30.703       30.221     3145.978      942.695      913.321        0.674        0.250       82.690       31.563        0.146      333.661        3.122      855.476
12/03/2014  01:50:00       20.101       67.710       68.607       34.679       34.998       27.838     1202.655     1224.853      774.954        0.645        0.160       70.631       24.663        0.122      333.678        3.150      855.514
12/03/2014  01:51:00       10.852       57.960       78.690       39.929       35.558       20.109     1594.321     1264.399      404.353        0.647        0.163       58.967       22.472        0.145      333.691        3.173      855.564
12/03/2014  01:52:00       59.887       19.657       31.299       46.981       90.113       36.054     2207.256     8120.328     1299.923        0.829        0.581       63.030       48.370        0.589      333.718        3.216      855.623
12/03/2014  01:53:00       51.761     -112.989      -11.165       28.937       26.035       16.250      837.375      677.816      264.068        0.867        0.089      124.281       12.413        0.010      333.742        3.257      855.676
12/03/2014  01:54:00       99.138     -109.250      -12.368       31.647       26.110       17.252     1001.541      681.755      297.630        1.195        0.099      147.526       17.075        0.013      333.736        3.247      855.702
12/03/2014  01:55:00       18.327        6.906       31.009       44.332       40.680       32.975     1965.286     1654.878     1087.378        0.303        0.235       19.585       31.355        2.563      333.735        3.244      855.722
12/03/2014  01:56:00        1.502       45.202       65.773       26.568       28.931       23.549      705.878      837.006      554.577        0.423        0.105       45.227       19.374        0.184      333.748        3.265      855.743
12/03/2014  01:57:00       -0.962       59.980       79.025       27.601       29.024       16.405      761.827      842.403      269.128        0.586        0.094       59.988       17.383        0.084      333.782        3.324      855.765
12/03/2014  01:58:00        3.219       39.558       65.934       21.294       36.715       20.823      453.448     1347.978      433.610        0.408        0.112       39.689       11.602        0.085      333.819        3.386      855.772
12/03/2014  01:59:00       18.389      -16.155       35.542       32.749       62.008       44.763     1072.476     3844.947     2003.743        0.439        0.346       24.477       42.861        3.066      333.817        3.381      855.777
12/03/2014  02:00:00       80.579      -69.069      -13.708       33.256       42.217       30.296     1105.948     1782.257      917.844        0.763        0.190      106.129       28.796        0.074      333.762        3.289      855.761
12/03/2014  02:01:00       34.479      -28.974       13.262       31.278       41.465       23.008      978.326     1719.341      529.353        0.271        0.161       45.036       26.027        0.334      333.791        3.337      855.712
12/03/2014  02:02:00       72.758       45.560       23.248       40.376       24.294       20.028     1630.194      590.211      401.130        0.527        0.131       85.846       22.456        0.068      333.744        3.258      855.651
12/03/2014  02:03:00      110.195       69.080       27.353       29.717       28.335       27.308      883.094      802.886      745.752        1.005        0.122      130.057       14.906        0.013      333.712        3.206      855.591
12/03/2014  02:04:00      100.236       81.979       49.598       41.160       27.382       36.359     1694.117      749.757     1321.958        1.150        0.188      129.491       32.620        0.063      333.772        3.307      855.565
12/03/2014  02:05:00       66.881       59.265       41.536       41.600       36.899       42.926     1730.566     1361.542     1842.653        0.732        0.247       89.361       30.438        0.116      333.730        3.236      855.584
12/03/2014  02:06:00      106.795       62.200       14.885       31.532       26.182       29.379      994.261      685.506      863.145        0.902        0.127      123.588       19.408        0.025      333.619        3.053      855.639
12/03/2014  02:07:00       55.956       76.490       62.820       39.710       32.086       32.076     1576.908     1029.497     1028.858        0.828        0.182       94.772       29.975        0.100      333.664        3.127      855.694
12/03/2014  02:08:00       75.133       81.588       72.846       41.337       38.388       39.824     1708.721     1473.600     1585.930        1.119        0.238      110.912       28.073        0.064      333.675        3.145      855.730
12/03/2014  02:09:00       58.315       82.765       82.525       46.567       38.854       36.412     2168.475     1509.641     1325.837        1.103        0.250      101.246       23.407        0.053      333.714        3.209      855.758
12/03/2014  02:10:00       41.855       69.521       76.504       40.813       34.157       26.417     1665.690     1166.724      697.858        0.798        0.177       81.148       23.659        0.085      333.697        3.181      855.769
12/03/2014  02:11:00       53.770       38.515       32.273       44.272       29.849       27.193     1960.035      890.966      739.486        0.450        0.180       66.141       17.590        0.071      333.684        3.160      855.732
12/03/2014  02:12:00       60.300       32.380        7.505       26.947       22.280       20.416      726.139      496.407      416.827        0.319        0.082       68.444       16.519        0.058      333.636        3.081      855.684
12/03/2014  02:13:00       50.269       50.630       -0.348       30.936       28.879       21.556      957.066      833.998      464.641        0.367        0.113       71.347       20.654        0.084      333.638        3.084      855.672
12/03/2014  02:14:00       86.124       43.833       14.679       23.674       22.647       20.576      560.447      512.897      423.385        0.553        0.075       96.636       14.812        0.023      333.640        3.090      855.681
12/03/2014  02:15:00       58.985       21.056       20.519       24.774       20.334       25.783      613.757      413.489      664.787        0.302        0.085       62.631       11.402        0.033      333.665        3.128      855.702
12/03/2014  02:16:00       76.398       42.732       27.079       32.987       19.062       22.232     1088.116      363.344      494.277        0.517        0.097       87.537       14.349        0.027      333.679        3.153      855.713
12/03/2014  02:17:00       76.884       55.171       10.320       23.588       23.082       24.478      556.373      532.772      599.190        0.537        0.084       94.631       17.726        0.035      333.645        3.096      855.706
12/03/2014  02:18:00       79.827       45.180        3.588       20.169       13.239       11.656      406.790      175.278      135.864        0.457        0.036       91.725        5.856        0.004      333.649        3.102      855.688
12/03/2014  02:19:00       77.406       41.370       -6.586       19.459       23.123       19.423      378.651      534.658      377.260        0.452        0.065       87.768       16.967        0.037      333.648        3.100      855.667
12/03/2014  02:20:00      100.386       39.077        2.276       28.044       24.088       19.701      786.463      580.242      388.123        0.668        0.088      107.723       11.413        0.011      333.621        3.055      855.667
12/03/2014  02:21:00       49.390       40.662       13.255       30.599       16.506       21.574      936.303      272.455      465.422        0.297        0.084       63.974       21.368        0.112      333.627        3.067      855.733
12/03/2014  02:22:00        8.071       10.704       18.058       12.149       12.787       11.735      147.603      163.515      137.715        0.048        0.022       13.405        7.730        0.332      333.693        3.174      855.826
12/03/2014  02:23:00        3.324      -47.490        4.193       23.161       33.099       16.938      536.441     1095.564      286.900        0.210        0.096       47.606       16.627        0.122      333.849        3.433      855.872
12/03/2014  02:24:00       -5.809       28.736       53.763       10.356       20.044       17.446      107.257      401.754      304.354        0.228        0.041       29.318       13.200        0.203      333.763        3.291      855.848
12/03/2014  02:25:00       41.792       57.068       42.481       21.393       16.345       16.410      457.675      267.146      269.301        0.390        0.050       70.734       16.915        0.057      333.707        3.200      855.772
12/03/2014  02:26:00       37.436       23.675        1.916       12.601        6.557        4.811      158.774       42.994       23.149        0.110        0.011       44.294        5.232        0.014      333.712        3.204      855.728
12/03/2014  02:27:00       36.836       26.025        7.726       10.984       13.250       11.891      120.654      175.574      141.387        0.127        0.022       45.102        7.439        0.027      333.729        3.236      855.742
12/03/2014  02:28:00       50.743       31.274        6.242        9.477        9.729        7.516       89.805       94.656       56.485        0.192        0.012       59.607        4.288        0.005      333.687        3.166      855.790
12/03/2014  02:29:00       39.833       22.577       -7.698        8.743       12.407        7.025       76.434      153.939       49.346        0.122        0.014       45.786        6.640        0.021      333.709        3.199      855.854
12/03/2014  02:30:00       -7.883       -0.197       -4.903       16.682        4.145        4.787      278.306       17.182       22.920        0.020        0.016        7.885        3.349        0.180      333.722        3.220      855.909
12/03/2014  02:31:00      -58.540       -3.534       -6.441       17.014       12.401       12.723      289.489      153.773      161.882        0.204        0.030       58.647        8.800        0.023      333.761        3.288      855.919
12/03/2014  02:32:00      -44.395       -7.857       -1.207       21.125       20.190       10.257      446.261      407.648      105.203        0.150        0.048       45.084        7.984        0.031      333.818        3.381      855.890
12/03/2014  02:33:00      -97.641       -1.404       -8.974       18.332       16.170       11.533      336.053      261.474      133.016        0.517        0.037       97.651        5.070        0.003      333.792        3.341      855.853
12/03/2014  02:34:00     -111.899      -38.013       -5.581       38.496       31.820       19.599     1481.931     1012.539      384.109        0.844        0.144      118.180       18.881        0.026      333.783        3.324      855.802
12/03/2014  02:35:00     -105.385       -6.105       -6.589       25.546       39.986       16.040      652.596     1598.905      257.291        0.685        0.125      105.562       10.938        0.011      333.788        3.332      855.760
12/03/2014  02:36:00      -94.123       -2.528       -8.887       29.046       24.069       16.097      843.685      579.336      259.099        0.531        0.084       94.157       16.570        0.031      333.794        3.343      855.747
12/03/2014  02:37:00      -42.229       -3.023       -2.116       26.442       15.318       12.354      699.181      234.626      152.626        0.144        0.054       42.337       14.835        0.123      333.788        3.335      855.747
12/03/2014  02:38:00        8.389        7.148       13.356       10.782       12.266       15.068      116.258      150.451      227.032        0.040        0.025       11.021        8.974        0.663      333.883        3.491      855.736
12/03/2014  02:39:00       31.939       49.210        3.135       20.647       38.155       20.228      426.291     1455.817      409.185        0.287        0.115       58.666       22.282        0.144      333.764        3.293      855.712
12/03/2014  02:40:00        2.443       75.761      -14.654       13.895       12.607       11.134      193.066      158.948      123.973        0.322        0.024       75.800        6.344        0.007      333.713        3.208      855.712
12/03/2014  02:41:00      -49.093       31.307       -3.595       31.914       33.750       12.484     1018.510     1139.089      155.848        0.286        0.116       58.225       13.089        0.051      333.759        3.284      855.711
12/03/2014  02:42:00      -70.773       27.093       -5.083       22.208       15.120       12.339      493.180      228.609      152.262        0.332        0.044       75.782        7.551        0.010      333.727        3.230      855.696
12/03/2014  02:43:00      -51.239       56.874      -13.166       17.130       14.911       10.416      293.425      222.345      108.488        0.333        0.031       76.551        6.878        0.008      333.758        3.282      855.649
12/03/2014  02:44:00        5.673      116.026      -15.816       21.672       26.114       12.536      469.662      681.962      157.148        0.753        0.065      116.164       12.788        0.012      333.880        3.486      855.568
12/03/2014  02:45:00       39.076      104.204      -11.056       24.483       42.340       26.627      599.430     1792.661      709.012        0.780        0.155      111.290       23.552        0.045      333.733        3.239      855.480
12/03/2014  02:46:00       37.758       71.476        2.400       31.322       37.022       29.770      981.062     1370.652      886.272        0.489        0.162       80.836       17.252        0.046      333.718        3.216      855.438
12/03/2014  02:47:00       84.188       43.471        2.911       43.176       30.589       28.178     1864.126      935.699      794.024        0.629        0.180       94.749       19.242        0.041      333.701        3.188      855.443
12/03/2014  02:48:00       79.841       46.979       17.907       40.078       29.877       40.252     1606.207      892.647     1620.252        0.651        0.206       92.637       28.397        0.094      333.702        3.191      855.464
12/03/2014  02:49:00       74.793       63.598       26.596       26.875       19.364       25.788      722.269      374.957      665.027        0.605        0.088       98.176       12.646        0.017      333.687        3.165      855.485
12/03/2014  02:50:00       57.906       51.749        9.818       18.375       22.082       22.463      337.627      487.633      504.583        0.373        0.066       77.660       14.705        0.036      333.666        3.130      855.481
12/03/2014  02:51:00       38.817       16.329       16.554       21.307       20.581       15.589      453.997      423.569      243.030        0.158        0.056       42.112       12.084        0.082      333.711        3.204      855.480
12/03/2014  02:52:00       12.890       -3.801       14.233       18.081       36.455       14.158      326.933     1329.003      200.439        0.112        0.093       13.439       13.077        0.947      333.746        3.262      855.473
12/03/2014  02:53:00       22.906      -12.456       11.355       18.360       23.083       18.283      337.072      532.819      334.255        0.101        0.060       26.074       13.859        0.283      333.780        3.321      855.439
12/03/2014  02:54:00       13.586        2.594       16.593       20.749       22.070       19.557      430.520      487.097      382.492        0.088        0.065       13.831       14.694        1.129      333.763        3.291      855.413
12/03/2014  02:55:00        9.716       23.930       50.254       23.430       31.786       23.492      548.957     1010.374      551.862        0.265        0.106       25.827       22.913        0.787      333.773        3.308      855.415
12/03/2014  02:56:00        6.346       36.706       52.833       22.307       26.505       17.368      497.598      702.537      301.645        0.284        0.075       37.250       11.587        0.097      333.746        3.262      855.407
12/03/2014  02:57:00       26.349       29.792       16.912       17.813       20.066       21.187      317.294      402.653      448.909        0.152        0.058       39.773       19.104        0.231      333.705        3.194      855.355
12/03/2014  02:58:00       13.214       10.074       -1.143       12.449       19.353        8.061      154.972      374.529       64.981        0.044        0.030       16.616        9.174        0.305      333.716        3.211      855.309
12/03/2014  02:59:00       23.169       14.973        4.188       10.150       10.039       10.483      103.019      100.786      109.892        0.055        0.016       27.586        7.076        0.066      333.715        3.210      855.299
12/03/2014  03:00:00       20.082       25.660       -1.811        6.763        8.075        7.398       45.736       65.199       54.726        0.062        0.008       32.584        6.047        0.034      333.697        3.180      855.308
12/03/2014  03:01:00        8.839       18.227       -0.432       11.832       11.183        6.403      140.006      125.050       40.996        0.036        0.015       20.257        1.976        0.010      333.703        3.187      855.317
12/03/2014  03:02:00       -2.327       -1.174       -1.728        3.275        5.507        1.975       10.728       30.325        3.902        0.003        0.002        2.606        0.769        0.087      333.682        3.155      855.357
12/03/2014  03:03:00       -5.524      -10.314       -6.040        7.849        8.096        4.689       61.608       65.550       21.990        0.016        0.007       11.700        2.245        0.037      333.722        3.225      855.419
12/03/2014  03:04:00      -16.402      -17.053        3.013       16.007       10.642        7.834      256.235      113.252       61.370        0.050        0.022       23.661        8.281        0.122      333.824        3.391      855.461
12/03/2014  03:05:00      -66.319      -40.105       -4.485       22.556       15.010       13.287      508.778      225.286      176.536        0.347        0.046       77.502        8.172        0.011      333.825        3.395      855.466
12/03/2014  03:06:00      -23.640      -40.056       -0.694       21.197       21.983       13.837      449.311      483.232      191.469        0.164        0.056       46.511       12.465        0.072      333.892        3.505      855.475
12/03/2014  03:07:00      -14.800       -6.772        2.566       21.185       29.327       12.594      448.791      860.087      158.597        0.087        0.073       16.275       12.532        0.593      333.843        3.425      855.475
12/03/2014  03:08:00        6.436       24.830       33.808       20.098       36.946       28.973      403.948     1365.041      839.453        0.220        0.130       25.651       10.963        0.183      333.841        3.421      855.471
12/03/2014  03:09:00       56.489      -25.943       27.040       46.622       66.253       50.518     2173.642     4389.518     2552.080        0.685        0.456       62.162       51.717        0.692      333.763        3.291      855.466
12/03/2014  03:10:00       32.772      -29.626       31.593       40.164       40.761       44.391     1613.178     1661.455     1970.580        0.410        0.262       44.178       26.629        0.363      333.786        3.329      855.452
12/03/2014  03:11:00       13.864       18.206       42.940       31.531       32.139       17.054      994.178     1032.945      290.845        0.234        0.116       22.884        7.999        0.122      333.818        3.384      855.446
12/03/2014  03:12:00       17.140       54.494       74.329       35.093       36.454       16.223     1231.497     1328.894      263.199        0.581        0.141       57.126       16.258        0.081      333.796        3.346      855.462
12/03/2014  03:13:00       24.665      -37.646       28.965       32.286       55.194       32.842     1042.384     3046.364     1078.586        0.401        0.258       45.006       38.430        0.729      333.847        3.430      855.507
12/03/2014  03:14:00       87.232     -104.105       -9.313       29.231       21.646       16.127      854.474      468.544      260.086        1.006        0.079      135.821        9.491        0.005      333.777        3.313      855.542
12/03/2014  03:15:00       72.080      -74.920       -3.023       35.764       44.947       22.825     1279.093     2020.214      520.964        0.732        0.191      103.964       26.881        0.067      333.738        3.250      855.582
12/03/2014  03:16:00       34.306       -7.543       40.373       36.616       40.444       28.927     1340.700     1635.712      836.764        0.334        0.191       35.126       23.214        0.437      333.804        3.359      855.624
12/03/2014  03:17:00       37.081       -7.771       31.121       41.362       45.588       26.706     1710.799     2078.306      713.209        0.345        0.225       37.887       23.254        0.377      333.755        3.278      855.670
12/03/2014  03:18:00       -1.512       21.097       37.401       19.742       27.609       18.988      389.730      762.247      360.526        0.168        0.076       21.151       13.271        0.394      333.800        3.352      855.688
12/03/2014  03:19:00       -3.667       19.251       31.960       15.339       26.273       23.461      235.281      690.296      550.422        0.144        0.074       19.597       20.124        1.055      333.818        3.382      855.672
12/03/2014  03:20:00       -1.574       21.736       43.358       15.193       23.761       17.891      230.835      564.601      320.086        0.173        0.056       21.793       15.775        0.524      333.791        3.337      855.646
12/03/2014  03:21:00       -4.034      -13.616       20.543       14.975       34.212       25.540      224.262     1170.446      652.287        0.133        0.102       14.201       26.696        3.534      333.862        3.457      855.608
12/03/2014  03:22:00       -2.163      -38.710      -22.883       19.692       27.653        9.293      387.784      764.672       86.366        0.163        0.062       38.770        9.862        0.065      333.824        3.393      855.592
12/03/2014  03:23:00      -19.162       -8.171        0.173       20.665       12.504       11.208      427.024      156.350      125.608        0.057        0.035       20.832       13.075        0.394      333.798        3.350      855.614
12/03/2014  03:24:00      -10.048       -0.619        6.911       14.441       13.080       15.040      208.552      171.091      226.189        0.038        0.030       10.067       13.507        1.800      333.859        3.450      855.658
12/03/2014  03:25:00      -20.426       -2.303        5.150       27.859       21.353       16.232      776.138      455.936      263.493        0.097        0.075       20.555       16.570        0.650      333.893        3.507      855.678
12/03/2014  03:26:00      -68.191      -18.873        1.654       36.991       31.747       19.101     1368.353     1007.863      364.862        0.387        0.137       70.754       19.062        0.073      333.852        3.438      855.693
12/03/2014  03:27:00      -48.651      -46.796        5.125       49.922       37.880       18.338     2492.240     1434.912      336.266        0.442        0.213       67.504       22.291        0.109      333.851        3.437      855.704
12/03/2014  03:28:00      -97.836     -101.015       -4.838       42.230       36.048       23.852     1783.342     1299.484      568.917        1.172        0.183      140.627       24.830        0.031      333.795        3.345      855.699
12/03/2014  03:29:00     -113.585      -67.596        1.670       41.858       40.936       28.503     1752.100     1675.740      812.433        1.086        0.212      132.177       23.458        0.031      333.765        3.296      855.672
12/03/2014  03:30:00      -80.915      -32.114        1.924       65.752       44.369       29.207     4323.302     1968.600      853.069        0.736        0.357       87.055       33.896        0.152      333.730        3.237      855.618
12/03/2014  03:31:00     -141.274      -56.286       -2.894       46.652       30.824       20.373     2176.386      950.136      415.070        1.334        0.177      152.074       21.376        0.020      333.670        3.137      855.544
12/03/2014  03:32:00     -108.726       -9.270       -6.968       53.869       57.429       22.296     2901.881     3298.097      497.110        0.933        0.335      109.121       24.933        0.052      333.669        3.134      855.502
12/03/2014  03:33:00     -132.113      -34.812       -0.950       33.345       56.507       23.237     1111.903     3193.023      539.961        1.175        0.242      136.622       21.693        0.025      333.632        3.074      855.513
12/03/2014  03:34:00     -117.859      -79.243       -7.952       44.437       30.736       25.726     1974.657      944.675      661.802        1.191        0.179      142.022       25.326        0.032      333.620        3.053      855.544
12/03/2014  03:35:00     -119.456      -26.539       -7.104       40.374       31.765       24.398     1630.036     1008.999      595.275        0.913        0.162      122.369       21.225        0.030      333.679        3.151      855.594
12/03/2014  03:36:00     -102.949      -64.423       -7.780       27.972       31.072       18.076      782.451      965.465      326.742        0.844        0.104      121.445       11.363        0.009      333.704        3.192      855.622
12/03/2014  03:37:00      -50.697      -52.068        9.226       55.811       39.889       31.998     3114.854     1591.150     1023.867        0.555        0.286       72.673       30.773        0.179      333.776        3.313      855.628
12/03/2014  03:38:00      -69.111      -48.896        4.123       60.285       33.575       25.513     3634.320     1127.261      650.906        0.630        0.271       84.659       30.213        0.127      333.725        3.228      855.613
12/03/2014  03:39:00      -51.701     -108.674       -4.832       37.573       22.452       23.452     1411.745      504.099      550.000        0.849        0.123      120.346       22.721        0.036      333.695        3.179      855.612
12/03/2014  03:40:00      -78.925      -47.244       -5.737       18.430       22.843       12.552      339.666      521.781      157.551        0.476        0.051       91.985        8.359        0.008      333.664        3.126      855.598
12/03/2014  03:41:00      -49.069      -44.222        6.233       43.935       31.910       19.459     1930.252     1018.220      378.652        0.386        0.166       66.056       19.781        0.090      333.784        3.327      855.578
12/03/2014  03:42:00      -82.048       -3.419        0.199       18.245       20.332       15.395      332.874      413.377      236.993        0.386        0.049       82.119       10.729        0.017      333.677        3.149      855.533
12/03/2014  03:43:00      -49.949      -22.870        2.640       18.008       10.188       14.188      324.293      103.798      201.300        0.183        0.031       54.936       11.173        0.041      333.711        3.202      855.465
12/03/2014  03:44:00      -31.751       -4.519        1.091       12.480       12.892       10.577      155.754      166.194      111.881        0.073        0.022       32.071        6.235        0.038      333.700        3.188      855.408
12/03/2014  03:45:00      -41.377        9.884       -3.352        6.487        6.105        4.594       42.086       37.275       21.109        0.096        0.005       42.541        2.799        0.004      333.692        3.172      855.409
12/03/2014  03:46:00      -54.774        9.637       -6.324       12.724       17.995       10.451      161.888      323.831      109.224        0.186        0.030       55.615        6.762        0.015      333.705        3.191      855.432
12/03/2014  03:47:00      -50.587      -17.655       -5.575       25.986       17.399       11.883      675.271      302.725      141.194        0.201        0.056       53.579        6.000        0.013      333.778        3.316      855.460
12/03/2014  03:48:00      -62.565      -24.051       -6.341       24.340       17.599        9.828      592.430      309.724       96.593        0.277        0.050       67.029        6.056        0.008      333.797        3.348      855.475
12/03/2014  03:49:00      -58.762      -26.165        2.781       22.261       16.451       12.836      495.552      270.640      164.766        0.254        0.047       64.324       12.580        0.038      333.768        3.298      855.478
12/03/2014  03:50:00      -74.014       -9.596       -2.980       13.664       13.009        9.836      186.694      169.223       96.739        0.302        0.023       74.633        7.966        0.011      333.744        3.259      855.469
12/03/2014  03:51:00      -72.147      -14.720       -1.352       19.507       17.216        9.928      380.523      296.398       98.567        0.310        0.039       73.633        8.310        0.013      333.793        3.341      855.480
12/03/2014  03:52:00      -75.552      -34.625       -4.279       14.151       17.628       10.782      200.260      310.757      116.254        0.378        0.031       83.108        6.910        0.007      333.797        3.346      855.476
12/03/2014  03:53:00      -82.660      -45.493       -5.545       22.961       22.812       15.306      527.228      520.392      234.263        0.511        0.064       94.352       12.509        0.018      333.819        3.385      855.427
12/03/2014  03:54:00      -83.183       -6.904       -5.326       21.081       15.216        9.688      444.408      231.532       93.856        0.388        0.038       83.469        8.984        0.012      333.781        3.321      855.371
12/03/2014  03:55:00      -46.680        8.704       -5.433       15.499       13.944        9.491      240.232      194.425       90.084        0.140        0.026       47.485        8.486        0.032      333.756        3.279      855.350
12/03/2014  03:56:00      -20.985       17.916        3.082       17.315        7.641       11.339      299.802       58.384      128.564        0.063        0.024       27.593       12.856        0.217      333.772        3.306      855.371
12/03/2014  03:57:00       -1.641        4.889        0.439        5.677        9.720        5.338       32.225       94.477       28.493        0.009        0.008        5.157        4.051        0.617      333.782        3.321      855.419
12/03/2014  03:58:00       28.861       12.312       -1.654       24.316       16.775        9.587      591.269      281.402       91.918        0.098        0.048       31.377        8.297        0.070      333.795        3.343      855.454
12/03/2014  03:59:00       52.782       35.703       16.572       22.276       19.981       19.593      496.209      399.251      383.877        0.281        0.064       63.723        7.831        0.015      333.810        3.370      855.451
12/03/2014  04:00:00       91.691       55.010       24.430       37.128       23.478       28.760     1378.519      551.222      827.147        0.739        0.138      106.927       22.608        0.045      333.758        3.283      855.414
12/03/2014  04:01:00      115.848       65.334       16.518       24.819       21.257       24.632      615.993      451.881      606.727        0.982        0.084      133.001       10.869        0.007      333.708        3.200      855.378
12/03/2014  04:02:00      111.822       74.507        8.560       29.877       30.175       26.513      892.610      910.535      702.915        1.032        0.125      134.371       15.406        0.013      333.710        3.202      855.362
12/03/2014  04:03:00       94.069       56.094       24.516       45.392       33.738       32.247     2060.451     1138.221     1039.888        0.842        0.212      109.524       25.536        0.054      333.723        3.225      855.373
12/03/2014  04:04:00       63.774       38.009       56.242       47.142       30.618       30.885     2222.347      937.474      953.861        0.639        0.206       74.242       23.612        0.101      333.734        3.242      855.373
12/03/2014  04:05:00      106.814       33.562       17.476       47.554       52.316       36.080     2261.372     2736.920     1301.737        0.957        0.315      111.963       27.149        0.059      333.719        3.217      855.369
12/03/2014  04:06:00       85.165       18.778       10.269       51.615       37.482       29.760     2664.124     1404.894      885.647        0.633        0.248       87.211       20.231        0.054      333.752        3.274      855.355
12/03/2014  04:07:00       79.619       29.859       13.923       42.469       40.324       25.041     1803.608     1625.989      627.075        0.574        0.203       85.034        9.979        0.014      333.733        3.242      855.335
12/03/2014  04:08:00       87.630       69.328       23.447       27.806       20.315       24.980      773.168      412.712      623.980        0.742        0.090      111.738       19.769        0.031      333.696        3.181      855.322
12/03/2014  04:09:00       58.500       48.083       42.518       25.691       29.795       21.879      660.020      887.726      478.674        0.478        0.101       75.724        9.142        0.015      333.740        3.253      855.344
12/03/2014  04:10:00       26.384        3.168       17.019       21.937       20.807       13.019      481.217      432.951      169.500        0.104        0.054       26.573        6.789        0.065      333.721        3.222      855.392
12/03/2014  04:11:00       41.357       27.361       19.586       22.943       18.424       13.945      526.369      339.427      194.468        0.195        0.053       49.589       13.243        0.071      333.718        3.215      855.393
12/03/2014  04:12:00       52.348       36.813       -4.047       16.009       13.966       13.684      256.289      195.041      187.255        0.238        0.032       63.997        5.645        0.008      333.682        3.157      855.351
12/03/2014  04:13:00       78.743       51.520       12.122       17.312       13.017       16.220      299.708      169.454      263.088        0.487        0.037       94.100       10.921        0.013      333.687        3.164      855.322
12/03/2014  04:14:00       46.391       39.255        0.314       15.241       12.384       10.328      232.284      153.366      106.664        0.209        0.025       60.770        5.781        0.009      333.678        3.151      855.317
12/03/2014  04:15:00       65.542       43.472        2.553       14.423       14.377       15.092      208.025      206.697      227.762        0.342        0.032       78.648        8.638        0.012      333.689        3.167      855.346
12/03/2014  04:16:00       56.012       59.744       32.604       23.096       23.593       24.995      533.433      556.628      624.760        0.474        0.086       81.894       11.185        0.019      333.727        3.232      855.381
12/03/2014  04:17:00      113.732       73.734       23.391       21.215       19.752       20.174      450.090      390.132      406.987        1.008        0.062      135.542        4.983        0.001      333.663        3.127      855.389
12/03/2014  04:18:00      100.999       48.013        8.337       48.601       33.607       30.922     2362.025     1129.410      956.152        0.851        0.222      111.830       21.305        0.036      333.653        3.110      855.380
12/03/2014  04:19:00      109.914       49.433        6.927       26.959       24.426       19.406      726.806      596.640      376.583        0.814        0.085      120.518       17.141        0.020      333.636        3.081      855.372
12/03/2014  04:20:00       96.291       46.462        9.631       29.774       29.779       23.645      886.468      886.814      559.097        0.693        0.117      106.914       17.575        0.027      333.631        3.073      855.384
12/03/2014  04:21:00      124.755       61.163        7.829       31.373       22.484       27.184      984.242      505.530      738.984        1.080        0.111      138.941       13.715        0.010      333.661        3.122      855.410
12/03/2014  04:22:00      100.790       63.478       39.327       34.310       24.631       27.998     1177.171      606.667      783.916        0.915        0.128      119.114       19.142        0.026      333.680        3.153      855.418
12/03/2014  04:23:00      122.445       55.849       10.854       29.635       20.787       20.346      878.235      432.099      413.966        0.998        0.086      134.580       15.627        0.013      333.644        3.094      855.400
12/03/2014  04:24:00       96.342       62.164        6.977       36.536       29.491       19.488     1334.913      869.737      379.769        0.789        0.129      114.656       17.975        0.025      333.630        3.071      855.358
12/03/2014  04:25:00      106.244       53.325        6.263       46.774       25.724       24.847     2187.797      661.732      617.380        0.882        0.173      118.875       22.090        0.035      333.634        3.078      855.331
12/03/2014  04:26:00       85.217       41.146        0.274       30.317       30.121       23.803      919.103      907.265      566.584        0.567        0.120       94.631       21.749        0.053      333.629        3.070      855.333
12/03/2014  04:27:00      105.311       73.095       -3.211       24.430       25.544       18.641      596.835      652.518      347.496        0.902        0.080      128.192        3.598        0.001      333.624        3.062      855.357
12/03/2014  04:28:00       63.046       38.280        9.635       32.326       18.537       24.381     1044.976      343.634      594.438        0.376        0.099       73.758       16.092        0.048      333.688        3.167      855.364
12/03/2014  04:29:00       84.548       56.988       14.910       28.812       39.083       26.532      830.158     1527.474      703.949        0.684        0.153      101.961       18.141        0.032      333.620        3.052      855.355
12/03/2014  04:30:00       79.208       57.852        2.561       37.150       22.524       23.039     1380.141      507.351      530.808        0.602        0.121       98.085       17.844        0.033      333.612        3.039      855.344
12/03/2014  04:31:00       74.687       44.375       -0.630       29.106       29.938       23.785      847.153      896.289      565.731        0.493        0.115       86.875       19.461        0.050      333.636        3.080      855.341
12/03/2014  04:32:00       83.105       60.533        6.215       32.976       29.084       23.989     1087.423      845.888      575.493        0.656        0.125      102.813       21.092        0.042      333.629        3.069      855.325
12/03/2014  04:33:00       77.742       45.554        3.358       28.670       26.783       15.003      821.967      717.313      225.094        0.495        0.088       90.105       12.258        0.019      333.613        3.042      855.296
12/03/2014  04:34:00       40.850       41.769       -7.267       34.458       21.598       24.351     1187.362      466.454      592.981        0.286        0.112       58.424       11.164        0.037      333.653        3.109      855.288
12/03/2014  04:35:00       17.346       68.492      -12.803       18.652       17.501       11.112      347.894      306.283      123.479        0.297        0.039       70.655        8.823        0.016      333.612        3.042      855.313
12/03/2014  04:36:00       16.068       54.660       -9.774       11.794       25.041       10.046      139.110      627.056      100.922        0.210        0.043       56.973       10.836        0.036      333.603        3.026      855.344
12/03/2014  04:37:00       37.967       25.395       -0.729       11.471       16.706       10.898      131.580      279.107      118.774        0.131        0.026       45.677        5.092        0.012      333.619        3.052      855.379
12/03/2014  04:38:00       23.822       17.507       19.794       11.376       15.070       15.041      129.412      227.100      226.240        0.092        0.029       29.563        9.774        0.109      333.671        3.140      855.390
12/03/2014  04:39:00       20.663       19.247       22.284       19.860       15.912       14.872      394.422      253.177      221.170        0.108        0.043       28.238        2.370        0.007      333.658        3.118      855.353
12/03/2014  04:40:00        6.677       58.567       -5.421       13.285       20.103       14.551      176.489      404.149      211.721        0.215        0.040       58.946       13.907        0.056      333.616        3.047      855.305
12/03/2014  04:41:00       16.981       13.149       -1.642        9.516       23.996       10.972       90.545      575.826      120.390        0.063        0.039       21.476       13.091        0.372      333.592        3.008      855.267
12/03/2014  04:42:00       15.640       18.696        2.580       16.223       12.785       11.463      263.188      163.456      131.402        0.058        0.028       24.375        9.079        0.139      333.627        3.068      855.241
12/03/2014  04:43:00       32.533       24.460       10.907       18.508       11.859       13.666      342.542      140.645      186.769        0.122        0.033       40.702        8.091        0.040      333.646        3.097      855.212
12/03/2014  04:44:00       21.354       19.165       12.558       17.053       21.057       17.117      290.814      443.380      292.982        0.100        0.051       28.693       14.815        0.267      333.653        3.110      855.197
12/03/2014  04:45:00       16.533      -10.716       17.628       16.106       35.910       19.076      259.388     1289.501      363.880        0.131        0.096       19.703       23.236        1.391      333.725        3.228      855.220
12/03/2014  04:46:00       24.809      -32.759       10.695       23.089       35.383       20.509      533.084     1251.928      420.624        0.200        0.110       41.093       17.602        0.183      333.763        3.290      855.259
12/03/2014  04:47:00      -25.446        6.911       14.030       19.705       29.258       25.914      388.291      856.043      671.550        0.140        0.096       26.368       25.455        0.932      333.716        3.213      855.290
12/03/2014  04:48:00       -8.964      -16.957       16.284       23.881       17.983       14.709      570.282      323.402      216.367        0.087        0.056       19.181       10.417        0.295      333.778        3.316      855.275
12/03/2014  04:49:00      -28.501        0.250        6.023       37.199       23.658       17.331     1383.776      559.694      300.354        0.155        0.112       28.503       21.135        0.550      333.738        3.249      855.238
12/03/2014  04:50:00      -52.592      -40.194        4.188       36.664       29.107       17.808     1344.279      847.214      317.117        0.345        0.125       66.193       18.910        0.082      333.760        3.284      855.208
12/03/2014  04:51:00      -79.490      -46.882       -7.342       20.689       21.799       13.280      428.033      475.216      176.349        0.482        0.054       92.285        9.451        0.010      333.686        3.163      855.193
12/03/2014  04:52:00      -57.169        3.088       -9.938       18.771       15.862        7.776      352.346      251.603       60.460        0.202        0.033       57.252        7.531        0.017      333.688        3.166      855.194
12/03/2014  04:53:00       -1.834       -2.021        5.620       11.543        6.840        7.689      133.249       46.786       59.119        0.014        0.012        2.729        6.267        5.272      333.729        3.236      855.208
12/03/2014  04:54:00       16.097       21.072       10.301       24.296       16.631       16.722      590.282      276.578      279.620        0.098        0.057       26.517       10.946        0.170      333.741        3.255      855.241
12/03/2014  04:55:00       31.510       27.455        1.808       22.145       16.255       17.209      490.418      264.226      296.166        0.140        0.053       41.793        4.143        0.010      333.739        3.251      855.252
12/03/2014  04:56:00       40.566       44.850       26.524       27.868       15.496       23.941      776.634      240.126      573.195        0.297        0.079       60.474       22.283        0.136      333.717        3.214      855.233
12/03/2014  04:57:00       60.195       46.802       12.544       23.294       14.857       17.173      542.605      220.727      294.903        0.351        0.053       76.249        8.326        0.012      333.650        3.105      855.210
12/03/2014  04:58:00       60.706       42.481        8.434       20.547       18.696       17.396      422.168      349.528      302.616        0.332        0.054       74.094       11.423        0.024      333.650        3.104      855.211
12/03/2014  04:59:00       97.148       48.777        5.900       21.187       17.408       17.470      448.888      303.022      305.193        0.645        0.053      108.706       12.650        0.014      333.640        3.088      855.233
12/03/2014  05:00:00       78.794       51.072       13.012       19.323       16.571       18.940      373.379      274.600      358.742        0.500        0.050       93.897        7.583        0.007      333.656        3.115      855.242
12/03/2014  05:01:00       74.118       46.090        9.562       17.298       19.741       14.256      299.233      389.687      203.235        0.430        0.045       87.280        6.305        0.005      333.629        3.068      855.243
12/03/2014  05:02:00       81.435       44.697       15.945       28.935       27.756       24.079      837.239      770.411      579.793        0.554        0.109       92.895       17.575        0.036      333.653        3.108      855.214
12/03/2014  05:03:00       62.437       43.549       30.128       30.254       24.857       25.521      915.317      617.885      651.305        0.444        0.109       76.124       19.910        0.068      333.700        3.187      855.173
12/03/2014  05:04:00       60.853       42.859       26.835       28.216       28.970       28.698      796.123      839.276      823.559        0.436        0.123       74.431       20.048        0.073      333.673        3.143      855.131
12/03/2014  05:05:00       30.135       38.725       36.209       25.778       26.614       22.070      664.516      708.314      487.065        0.279        0.093       49.069       17.818        0.132      333.675        3.146      855.101
12/03/2014  05:06:00       17.471       26.198       41.553       25.631       25.502       16.438      656.949      650.367      270.218        0.215        0.079       31.489       17.107        0.295      333.643        3.093      855.101
12/03/2014  05:07:00       15.365       33.415       36.026       23.071       25.596       20.390      532.289      655.147      415.760        0.213        0.080       36.778       17.323        0.222      333.644        3.094      855.141
12/03/2014  05:08:00       40.545       48.356       42.727       21.831       14.108       17.776      476.585      199.045      315.970        0.340        0.050       63.104       11.633        0.034      333.637        3.083      855.187
12/03/2014  05:09:00       28.976       45.602        8.740       15.424        7.524       15.010      237.912       56.604      225.294        0.176        0.026       54.030       13.366        0.061      333.564        2.961      855.220
12/03/2014  05:10:00       14.255       17.684        0.136       20.467       35.388       17.172      418.899     1252.315      294.885        0.124        0.098       22.715        6.692        0.087      333.634        3.080      855.218
12/03/2014  05:11:00      -12.486       24.812       -2.811       18.743       17.162       10.789      351.314      294.538      116.402        0.077        0.038       27.777        9.212        0.110      333.634        3.077      855.176
12/03/2014  05:12:00      -50.575       34.519       -8.614       16.441       22.723       14.566      270.307      516.333      212.179        0.241        0.050       61.232        7.641        0.016      333.698        3.184      855.126
12/03/2014  05:13:00      -69.530        5.419       -5.741       14.992       23.645        8.461      224.773      559.075       71.582        0.288        0.043       69.741        4.920        0.005      333.636        3.081      855.130
12/03/2014  05:14:00      -62.927      -36.202        1.051       17.664       15.085       13.169      312.005      227.559      173.417        0.299        0.036       72.598        3.128        0.002      333.692        3.171      855.172
12/03/2014  05:15:00      -11.186      -34.416       12.535       36.831       25.340       22.386     1356.547      642.105      501.118        0.198        0.125       36.189       20.945        0.335      333.795        3.345      855.238
12/03/2014  05:16:00      -78.272      -82.475       -1.575       30.956       26.142       18.180      958.287      683.425      330.505        0.745        0.099      113.704       14.864        0.017      333.769        3.303      855.275
12/03/2014  05:17:00      -97.322      -79.286        1.942       41.009       33.074       20.774     1681.749     1093.920      431.557        0.948        0.160      125.530       18.378        0.021      333.788        3.332      855.269
12/03/2014  05:18:00      -77.468      -34.273        7.286       23.897       32.133       16.082      571.065     1032.527      258.633        0.455        0.093       84.710       10.405        0.015      333.821        3.387      855.246
12/03/2014  05:19:00      -71.094      -24.775       -1.710       25.176       27.042       16.142      633.830      731.276      260.557        0.365        0.081       75.287       10.513        0.019      333.790        3.336      855.235
12/03/2014  05:20:00      -64.166      -27.907       -2.769       14.632       21.473       15.264      214.089      461.078      232.995        0.291        0.045       69.972       11.396        0.027      333.842        3.422      855.257
12/03/2014  05:21:00      -61.753      -41.201        1.960       34.998       19.658       16.336     1224.866      386.453      266.856        0.370        0.094       74.236       15.818        0.045      333.870        3.471      855.287
12/03/2014  05:22:00      -53.467      -65.313        0.272       40.881       25.236       20.955     1671.262      636.840      439.127        0.494        0.137       84.407       14.330        0.029      333.857        3.448      855.316
12/03/2014  05:23:00      -76.229      -87.978       -4.637       23.636       25.201       12.316      558.637      635.083      151.676        0.746        0.067      116.408       12.061        0.011      333.763        3.291      855.334
12/03/2014  05:24:00      -62.127      -54.449       -6.370       14.796       32.605       12.041      218.911     1063.065      144.994        0.415        0.071       82.610       12.464        0.023      333.774        3.311      855.344
12/03/2014  05:25:00      -37.576      -19.234       14.145       28.958       26.098       18.938      838.580      681.095      358.647        0.193        0.094       42.213       13.215        0.098      333.837        3.414      855.368
12/03/2014  05:26:00      -49.825      -53.360       -1.297       24.518       21.403       13.914      601.124      458.072      193.598        0.329        0.063       73.005       11.354        0.024      333.840        3.419      855.392
12/03/2014  05:27:00      -60.268      -57.950        4.238       25.949       37.973       19.739      673.359     1441.960      389.621        0.476        0.125       83.609       10.169        0.015      333.854        3.442      855.434
12/03/2014  05:28:00      -87.811      -53.626       -1.875       34.232       29.647       23.939     1171.814      878.954      573.088        0.661        0.131      102.891       22.168        0.046      333.858        3.447      855.449
12/03/2014  05:29:00      -66.855      -33.639        3.712       20.955       21.500       14.485      439.102      462.250      209.809        0.336        0.056       74.841       10.213        0.019      333.869        3.468      855.439
12/03/2014  05:30:00      -51.469      -23.325       -3.890       14.492       16.734        8.430      210.005      280.012       71.069        0.188        0.028       56.508        4.167        0.005      333.867        3.466      855.445
12/03/2014  05:31:00      -54.864      -28.241        3.877       22.579       20.440       15.869      509.829      417.784      251.813        0.250        0.059       61.706       10.264        0.028      333.884        3.493      855.491
12/03/2014  05:32:00      -37.385      -48.369        2.896       29.075       30.385       17.470      845.335      923.258      305.188        0.291        0.104       61.132       14.546        0.057      333.915        3.544      855.572
12/03/2014  05:33:00      -52.894      -42.546       -0.620       41.716       27.591       19.652     1740.196      761.258      386.194        0.375        0.144       67.881       13.864        0.042      333.924        3.558      855.636
12/03/2014  05:34:00      -45.589      -10.756        9.845       47.967       34.381       25.346     2300.860     1182.063      642.434        0.321        0.206       46.840       21.515        0.211      333.898        3.516      855.665
12/03/2014  05:35:00      -58.538      -22.103        8.513       35.610       23.240       17.829     1268.046      540.097      317.878        0.306        0.106       62.571       16.234        0.067      333.894        3.510      855.657
12/03/2014  05:36:00      -73.870       -4.072       -2.643       40.674       21.424       19.754     1654.375      458.997      390.237        0.399        0.125       73.982       22.955        0.096      333.839        3.417      855.609
12/03/2014  05:37:00      -58.551       14.746       -2.680       16.013       11.617       10.033      256.414      134.951      100.655        0.207        0.025       60.379       10.295        0.029      333.783        3.325      855.512
12/03/2014  05:38:00      -48.228       27.511       -3.739       19.168       15.503       14.903      367.430      240.342      222.086        0.196        0.041       55.523       13.709        0.061      333.811        3.372      855.414
12/03/2014  05:39:00      -52.070       16.448       -4.203       20.780       21.234       18.110      431.789      450.900      327.964        0.210        0.061       54.606       14.395        0.069      333.757        3.280      855.377
12/03/2014  05:40:00      -67.090       14.588       -5.954       26.616       14.695       13.211      708.404      215.945      174.540        0.292        0.055       68.658        7.602        0.012      333.799        3.351      855.387
12/03/2014  05:41:00      -64.437       27.371       -4.231       22.199       25.768       18.382      492.805      664.011      337.914        0.321        0.075       70.009       12.927        0.034      333.780        3.319      855.394
12/03/2014  05:42:00      -82.735       11.878       -8.501       19.788       31.182       16.983      391.574      972.341      288.412        0.436        0.083       83.584       12.183        0.021      333.749        3.267      855.390
12/03/2014  05:43:00     -118.167        4.291      -13.712       14.551       23.670       13.638      211.729      560.262      186.006        0.756        0.048      118.244        8.675        0.005      333.691        3.172      855.414
12/03/2014  05:44:00      -76.666      -17.024       -5.269       24.066       21.494       17.169      579.159      461.997      294.770        0.377        0.067       78.533       13.614        0.030      333.741        3.254      855.457
12/03/2014  05:45:00      -44.128      -33.013        5.791       44.479       23.100       16.774     1978.372      533.619      281.355        0.293        0.140       55.110       19.233        0.122      333.787        3.330      855.470
12/03/2014  05:46:00      -78.489      -30.346        2.406       21.651       25.390       17.610      468.763      644.670      310.119        0.426        0.071       84.151       16.111        0.037      333.755        3.278      855.462
12/03/2014  05:47:00      -43.178      -24.531        6.973       39.827       25.587       16.618     1586.211      654.709      276.170        0.252        0.126       49.660       17.947        0.131      333.817        3.381      855.495
12/03/2014  05:48:00      -32.592       -5.080        8.721       26.364       21.005       16.691      695.058      441.227      278.590        0.129        0.071       32.986       14.692        0.198      333.858        3.448      855.497
12/03/2014  05:49:00      -25.449       -7.528        4.707       26.976       12.033       13.920      727.720      144.792      193.767        0.090        0.053       26.539       13.959        0.277      333.778        3.315      855.436
12/03/2014  05:50:00      -30.272      -13.638        6.922       29.424       17.077       11.090      865.781      291.629      122.979        0.122        0.064       33.202       13.257        0.159      333.789        3.333      855.411
12/03/2014  05:51:00      -61.325      -14.175       -7.598       21.302       17.284       11.937      453.755      298.738      142.502        0.246        0.045       62.942       10.478        0.028      333.757        3.281      855.399
12/03/2014  05:52:00      -56.067        5.584        0.987       19.119       14.380        8.745      365.552      206.777       76.482        0.191        0.032       56.344        6.982        0.015      333.787        3.329      855.360
12/03/2014  05:53:00      -14.548      -14.227        4.629       15.795       14.017       14.501      249.467      196.465      210.265        0.055        0.033       20.349       12.233        0.361      333.788        3.332      855.363
12/03/2014  05:54:00       11.360       12.253        6.831       16.541       14.325       12.852      273.590      205.205      165.177        0.048        0.032       16.709       11.212        0.450      333.808        3.364      855.401
12/03/2014  05:55:00       29.641       16.995        7.832       28.451       18.708       18.990      809.483      349.973      360.633        0.137        0.076       34.168        6.779        0.039      333.796        3.346      855.426
12/03/2014  05:56:00       51.028       34.913        6.744       13.208        9.080       12.976      174.450       82.450      168.384        0.215        0.021       61.828       10.866        0.031      333.753        3.276      855.426
12/03/2014  05:57:00       66.840       31.349        1.550       19.891       20.959       19.179      395.667      439.290      367.826        0.333        0.060       73.827       10.721        0.021      333.772        3.306      855.397
12/03/2014  05:58:00       94.157       51.669        3.446       19.138       13.049       15.716      366.265      170.268      246.990        0.617        0.039      107.402       12.073        0.013      333.702        3.192      855.431
12/03/2014  05:59:00       39.382       39.675       23.085       24.946       15.834       22.550      622.299      250.730      508.497        0.252        0.069       55.902       20.446        0.134      333.742        3.256      855.511
12/03/2014  06:00:00       13.292       45.902       43.632       14.370       17.554       12.787      206.509      308.133      163.516        0.243        0.034       47.787        8.445        0.031      333.772        3.305      855.572
12/03/2014  06:01:00        9.755       27.747       39.748       16.215       17.603        9.765      262.930      309.862       95.362        0.156        0.033       29.411        9.199        0.098      333.804        3.360      855.615
12/03/2014  06:02:00      -21.347        9.305       14.574       34.609       17.639       18.829     1197.762      311.133      354.523        0.131        0.093       23.287       24.396        1.098      333.805        3.360      855.646
12/03/2014  06:03:00      -50.180      -26.756       -7.202       29.338       21.275       16.472      860.737      452.634      271.333        0.243        0.079       56.868       10.117        0.032      333.886        3.495      855.693
12/03/2014  06:04:00      -12.929      -11.854        5.392       35.462       27.698       18.654     1257.525      767.184      347.956        0.135        0.119       17.541       21.787        1.543      333.848        3.432      855.765
12/03/2014  06:05:00      -32.708      -34.478        6.276       42.327       26.361       16.387     1791.581      694.901      268.530        0.253        0.138       47.524       16.457        0.120      333.892        3.505      855.818
12/03/2014  06:06:00      -36.320      -11.028        2.465       28.542       22.323       18.395      814.643      498.316      338.384        0.155        0.083       37.958       13.119        0.119      333.903        3.524      855.831
12/03/2014  06:07:00        1.324       10.168       22.036       15.185       12.946       11.017      230.572      167.596      121.367        0.056        0.026       10.254        4.841        0.223      333.945        3.594      855.803
12/03/2014  06:08:00      -15.499       17.437        5.763       13.603       18.512       16.995      185.035      342.697      288.843        0.070        0.041       23.330       11.490        0.243      333.886        3.495      855.783
12/03/2014  06:09:00      -46.700       10.038        0.090       20.852       16.876       12.877      434.789      284.787      165.825        0.158        0.044       47.767        9.844        0.042      333.838        3.416      855.772
12/03/2014  06:10:00        9.147       19.239       23.542       12.929        9.702        6.953      167.155       94.120       48.347        0.066        0.015       21.303        5.197        0.060      333.865        3.460      855.753
12/03/2014  06:11:00        0.414       23.332       17.677        8.594       14.814       13.163       73.863      219.448      173.260        0.066        0.023       23.335        7.331        0.099      333.827        3.399      855.733
12/03/2014  06:12:00      -35.273       37.084       -5.824       21.688       13.707       11.976      470.389      187.882      143.416        0.173        0.040       51.180        6.901        0.018      333.795        3.344      855.732
12/03/2014  06:13:00      -54.884       28.648       -8.912       14.344       10.551       10.890      205.754      111.314      118.600        0.217        0.022       61.910        6.029        0.009      333.779        3.318      855.737
12/03/2014  06:14:00      -62.468       39.342      -19.181       16.078       16.141       10.012      258.516      260.520      100.242        0.322        0.031       73.824        9.193        0.016      333.777        3.312      855.718
12/03/2014  06:15:00      -26.142       26.953       -0.840       22.093       18.050       12.524      488.092      325.805      156.850        0.119        0.049       37.548       13.776        0.135      333.812        3.372      855.735
12/03/2014  06:16:00      -14.755       -3.509        1.767       25.587       24.914       12.723      654.679      620.706      161.865        0.083        0.072       15.166        9.063        0.357      333.827        3.399      855.778
12/03/2014  06:17:00      -48.108      -18.141       -3.880       14.612       12.009        7.481      213.510      144.218       55.960        0.154        0.021       51.415        4.216        0.007      333.855        3.445      855.830
12/03/2014  06:18:00      -79.751      -14.374       -6.740       17.740       23.719       12.759      314.725      562.578      162.804        0.383        0.052       81.036        7.454        0.008      333.840        3.418      855.869
12/03/2014  06:19:00     -119.004      -73.797       -2.177       32.337       37.126       22.632     1045.695     1378.360      512.196        1.127        0.147      140.028       17.858        0.016      333.788        3.332      855.904
12/03/2014  06:20:00     -104.332      -54.072       -8.979       42.978       46.460       24.631     1847.066     2158.496      606.685        0.925        0.231      117.511       20.437        0.030      333.769        3.301      855.921
12/03/2014  06:21:00     -117.599        3.220      -10.201       35.919       31.707       20.527     1290.174     1005.365      421.340        0.833        0.136      117.643       21.452        0.033      333.762        3.289      855.899
12/03/2014  06:22:00     -115.379       34.276      -12.125       25.608       19.989       17.122      655.762      399.558      293.155        0.799        0.067      120.363       11.029        0.008      333.718        3.215      855.851
12/03/2014  06:23:00      -77.819       29.788       -7.816       28.052       21.414       17.237      786.927      458.551      297.114        0.427        0.077       83.325       15.504        0.035      333.712        3.204      855.792
12/03/2014  06:24:00      -63.545       41.944      -15.155       15.847       17.903       11.624      251.141      320.521      135.118        0.337        0.035       76.140        8.491        0.012      333.756        3.278      855.736
12/03/2014  06:25:00      -13.155       12.457        2.850       24.601       13.372       11.919      605.219      178.801      142.069        0.063        0.046       18.117       13.981        0.596      333.802        3.355      855.676
12/03/2014  06:26:00       11.730       89.063      -12.703        7.717       18.092        9.799       59.552      327.319       96.027        0.436        0.024       89.833        6.844        0.006      333.747        3.265      855.633
12/03/2014  06:27:00       16.587       79.595       -9.974       10.083        9.544        7.015      101.660       91.083       49.214        0.348        0.012       81.305        4.701        0.003      333.756        3.279      855.590
12/03/2014  06:28:00       34.925       67.248       -7.008       23.366       19.012       11.983      545.991      361.467      143.594        0.342        0.053       75.776       11.678        0.024      333.736        3.247      855.548
12/03/2014  06:29:00       27.169       35.435        2.818       22.909       13.311       17.101      524.819      177.174      292.448        0.150        0.050       44.652       10.307        0.053      333.787        3.333      855.510
12/03/2014  06:30:00       86.544       42.793        0.945       26.212       24.168       19.383      687.092      584.087      375.692        0.548        0.082       96.546       12.163        0.016      333.761        3.287      855.498
12/03/2014  06:31:00       76.915       42.350        6.246       23.361       28.840       23.447      545.751      831.760      549.774        0.484        0.096       87.803       16.067        0.033      333.767        3.297      855.496
12/03/2014  06:32:00       70.153       52.406        3.490       36.149       29.485       26.365     1306.726      869.344      695.110        0.527        0.144       87.566        7.450        0.007      333.722        3.223      855.461
12/03/2014  06:33:00      102.536       52.680        6.019       34.962       21.379       26.268     1222.361      457.078      689.987        0.785        0.118      115.277       18.265        0.025      333.705        3.194      855.413
12/03/2014  06:34:00      147.152       72.479       -1.622       41.039       22.964       24.669     1684.207      527.339      608.549        1.486        0.141      164.033       13.712        0.007      333.704        3.192      855.359
12/03/2014  06:35:00      149.768       77.096        3.695       41.539       35.113       28.311     1725.470     1232.939      801.499        1.607        0.188      168.447       15.115        0.008      333.680        3.154      855.314
12/03/2014  06:36:00      146.599       73.212        4.942       42.970       37.870       29.685     1846.442     1434.145      881.172        1.552        0.208      163.864       18.254        0.012      333.656        3.112      855.297
12/03/2014  06:37:00      117.714       54.961       10.486       50.346       36.176       28.676     2534.755     1308.735      822.303        1.083        0.233      129.912       25.212        0.038      333.667        3.131      855.318
12/03/2014  06:38:00       63.512       54.156       38.957       33.339       31.386       27.545     1111.519      985.068      758.754        0.567        0.143       83.466       18.155        0.047      333.665        3.131      855.367
12/03/2014  06:39:00       20.588       -5.998        6.924       24.543       22.639       20.278      602.376      512.508      411.183        0.102        0.076       21.444       15.219        0.504      333.707        3.199      855.445
12/03/2014  06:40:00       85.941      -16.239       -0.781       29.414       18.119       23.121      865.155      328.307      534.575        0.469        0.086       87.462        6.563        0.006      333.671        3.139      855.530
12/03/2014  06:41:00        9.613      -22.811       12.053       12.104       31.733       15.503      146.509     1006.999      240.337        0.108        0.070       24.754       13.484        0.297      333.718        3.217      855.599
12/03/2014  06:42:00        1.443       24.863        2.597       10.875       10.429        7.891      118.261      108.759       62.266        0.046        0.014       24.905        4.723        0.036      333.702        3.192      855.664
12/03/2014  06:43:00      -27.655       18.865       -3.493        9.994       11.817        9.711       99.886      139.652       94.300        0.073        0.017       33.476        6.793        0.041      333.765        3.294      855.737
12/03/2014  06:44:00      -28.697       -3.434       -0.253       16.794       22.419        9.592      282.032      502.631       92.014        0.086        0.044       28.902        6.196        0.046      333.829        3.403      855.795
12/03/2014  06:45:00      -68.762      -21.111       -2.052       14.849       19.701       10.801      220.483      388.134      116.652        0.295        0.036       71.930        2.397        0.001      333.764        3.295      855.861
12/03/2014  06:46:00      -34.373      -19.346        7.965       45.186       26.158       18.833     2041.757      684.245      354.695        0.235        0.154       39.443       15.781        0.160      333.846        3.429      855.925
12/03/2014  06:47:00      -30.185       -1.417       14.838       40.773       33.111       19.806     1662.456     1096.370      392.287        0.214        0.158       30.218       21.397        0.501      333.826        3.395      855.939
12/03/2014  06:48:00      -22.020       10.578       13.751       31.665       25.647       24.616     1002.663      657.746      605.956        0.153        0.113       24.429       17.805        0.531      333.806        3.362      855.902
12/03/2014  06:49:00        4.025       13.650       46.698       32.155       31.538       23.993     1033.955      994.632      575.649        0.249        0.130       14.231       21.794        2.345      333.830        3.402      855.856
12/03/2014  06:50:00       31.825       33.347       38.959       26.818       28.050       31.336      719.203      786.794      981.944        0.306        0.124       46.097       17.418        0.143      333.839        3.416      855.842
12/03/2014  06:51:00       40.227       38.333       27.959       26.123       24.601       25.619      682.394      605.229      656.352        0.291        0.097       55.566       14.012        0.064      333.791        3.339      855.834
12/03/2014  06:52:00       12.493        9.509        8.126       16.476       11.422       11.762      271.461      130.471      138.351        0.043        0.027       15.700        8.480        0.292      333.781        3.320      855.823
12/03/2014  06:53:00       24.113       15.603       17.876       17.912       13.685       13.854      320.832      187.285      191.945        0.092        0.035       28.721        5.142        0.032      333.782        3.322      855.811
12/03/2014  06:54:00       23.774       29.431       32.710       22.321       21.313       14.295      498.238      454.263      204.355        0.183        0.058       37.834       15.602        0.170      333.839        3.417      855.797
12/03/2014  06:55:00       19.989       13.606       27.414       20.966       24.705       19.966      439.570      610.331      398.660        0.139        0.072       24.180       15.500        0.411      333.841        3.421      855.820
12/03/2014  06:56:00        1.633      -14.440       14.075       24.628       20.771       16.909      606.518      431.452      285.930        0.087        0.066       14.532       11.186        0.593      333.917        3.547      855.871
12/03/2014  06:57:00        1.843       -1.654       23.337       12.370       21.198       15.568      153.014      449.339      242.358        0.070        0.042        2.477       15.547       39.402      333.971        3.637      855.834
12/03/2014  06:58:00        1.001       -4.147       32.270       12.463       22.164       14.487      155.331      491.262      209.870        0.096        0.043        4.266       11.852        7.718      333.975        3.644      855.802
12/03/2014  06:59:00      -26.809      -37.481       -3.144       22.317       30.641       25.037      498.048      938.900      626.869        0.210        0.103       46.082       26.140        0.322      333.962        3.622      855.842
12/03/2014  07:00:00      -22.128      -34.440       -8.616       33.652       38.142       20.859     1132.477     1454.807      435.078        0.239        0.151       40.936       25.179        0.378      333.900        3.518      855.885
12/03/2014  07:01:00      -10.885       34.958       -8.285       26.739       20.962        9.248      714.965      439.409       85.519        0.132        0.062       36.613        8.634        0.056      333.871        3.472      855.934
12/03/2014  07:02:00      -31.738      -39.766       -0.328       42.971       33.803       19.726     1846.507     1142.611      389.104        0.298        0.169       50.879       16.728        0.108      333.991        3.670      855.971
12/03/2014  07:03:00      -21.938      -38.442        7.791       33.267       34.871       23.613     1106.667     1215.988      557.592        0.245        0.144       44.261       20.886        0.223      333.967        3.629      855.973
12/03/2014  07:04:00        9.967       21.463        9.918       19.132       20.981       17.136      366.040      440.191      293.647        0.088        0.055       23.664        5.029        0.045      333.968        3.632      855.945
12/03/2014  07:05:00      -40.444      -26.964       -0.660       27.156       42.431       20.661      737.433     1800.376      426.869        0.266        0.148       48.609       19.555        0.162      333.949        3.601      855.925
12/03/2014  07:06:00      -39.100      -65.067       -7.631       18.564       25.051       15.303      344.637      627.572      234.169        0.351        0.060       75.911        9.257        0.015      333.929        3.566      855.931
12/03/2014  07:07:00      -44.415      -29.598       -3.133       19.631       18.475       13.238      385.370      341.344      175.256        0.188        0.045       53.374        8.859        0.028      333.974        3.642      855.931
12/03/2014  07:08:00      -11.743      -18.488        4.960       46.298       26.193       26.502     2143.532      686.056      702.332        0.202        0.177       21.902       17.350        0.628      333.938        3.582      855.903
12/03/2014  07:09:00       -5.898        1.731       -5.483       19.590       22.379       14.420      383.783      500.825      207.944        0.058        0.055        6.147       11.447        3.468      333.907        3.529      855.861
12/03/2014  07:10:00      -26.752        0.518        4.524       28.678       16.193       14.162      822.429      262.214      200.565        0.101        0.064       26.757        6.278        0.055      333.915        3.542      855.858
12/03/2014  07:11:00       -5.086      -50.829       27.494       30.876       42.351       27.594      953.321     1793.614      761.415        0.344        0.175       51.083       24.450        0.229      334.003        3.690      855.872
12/03/2014  07:12:00        2.762      -34.027       33.764       27.878       38.230       26.087      777.196     1461.546      680.519        0.261        0.146       34.139       18.219        0.285      334.085        3.825      855.874
12/03/2014  07:13:00        5.600      -22.527       16.063       12.392       24.395       18.107      153.565      595.128      327.854        0.094        0.054       23.213        9.820        0.179      334.038        3.746      855.876
12/03/2014  07:14:00        0.624        6.419       19.812       13.202       16.970       19.622      174.291      287.965      385.013        0.064        0.042        6.449       14.897        5.335      334.048        3.762      855.888
12/03/2014  07:15:00        9.384      -25.445       11.167       15.949       28.196       17.083      254.371      795.022      291.823        0.110        0.067       27.120       19.300        0.506      334.046        3.761      855.926
12/03/2014  07:16:00       23.793      -50.493       -4.297       23.217       14.822       16.304      539.009      219.704      265.829        0.208        0.051       55.818       14.557        0.068      333.983        3.658      855.951
12/03/2014  07:17:00        7.823      -27.223        5.799       20.285       30.795       15.919      411.483      948.351      253.428        0.122        0.081       28.324       13.020        0.211      334.004        3.691      855.974
12/03/2014  07:18:00      -11.511       10.829        3.420       15.973       17.168       12.826      255.149      294.751      164.518        0.049        0.036       15.804        7.555        0.229      333.984        3.658      855.977
12/03/2014  07:19:00       17.045       20.351        4.850       21.276       12.680        8.398      452.683      160.777       70.530        0.071        0.034       26.546        3.366        0.016      333.933        3.573      855.947
12/03/2014  07:20:00       69.155       41.008       24.312       39.609       23.888       25.264     1568.890      570.616      638.247        0.492        0.139       80.399       19.827        0.061      333.911        3.535      855.934
12/03/2014  07:21:00        5.305       26.987       30.899       11.295       20.652       16.096      127.584      426.517      259.074        0.126        0.041       27.503       14.615        0.282      333.898        3.515      855.959
12/03/2014  07:22:00      -10.562       -4.762        3.642       13.110       16.399       10.599      171.862      268.932      112.340        0.035        0.028       11.586        9.478        0.669      333.907        3.532      855.993
12/03/2014  07:23:00      -33.186       19.122       -0.158       18.738       14.751       13.159      351.095      217.586      173.154        0.110        0.037       38.301       10.706        0.078      333.934        3.576      856.035
12/03/2014  07:24:00      -55.193       -1.104        0.911       25.746       23.877       10.421      662.846      570.087      108.590        0.219        0.067       55.204        9.617        0.030      333.948        3.599      856.071
12/03/2014  07:25:00      -34.907      -48.281        1.419       47.148       24.725       19.389     2222.904      611.328      375.934        0.338        0.161       59.578        6.987        0.014      333.978        3.648      856.098
12/03/2014  07:26:00      -86.299      -35.860        3.520       36.311       32.714       21.750     1318.515     1070.194      473.073        0.580        0.143       93.453       19.511        0.044      333.867        3.465      856.135
12/03/2014  07:27:00      -87.885       -2.582        3.238       27.557       20.803       20.257      759.383      432.763      410.348        0.467        0.080       87.923       13.763        0.025      333.835        3.412      856.169
12/03/2014  07:28:00      -62.846      -33.548       -1.238       42.012       30.048       17.590     1765.034      902.887      309.417        0.403        0.149       71.239       21.477        0.091      333.894        3.510      856.200
12/03/2014  07:29:00     -115.024      -88.948       -9.127       29.927       26.766       18.545      895.598      716.429      343.909        1.159        0.098      145.404        9.452        0.004      333.889        3.499      856.203
12/03/2014  07:30:00      -95.874      -57.872        4.289       66.199       37.741       35.840     4382.327     1424.403     1284.540        0.982        0.355      111.986       38.277        0.117      333.914        3.543      856.194
12/03/2014  07:31:00     -144.840      -60.361       -9.535       36.196       35.344       19.669     1310.130     1249.195      386.862        1.383        0.147      156.914       17.301        0.012      333.897        3.512      856.198
12/03/2014  07:32:00     -144.237      -63.399       -3.188       52.077       54.006       28.319     2711.987     2916.671      801.942        1.563        0.322      157.556       27.299        0.030      333.877        3.478      856.227
12/03/2014  07:33:00     -144.805      -62.168       -2.062       47.130       42.193       27.684     2221.243     1780.275      766.428        1.480        0.238      157.586       20.833        0.017      333.850        3.434      856.260
12/03/2014  07:34:00      -68.869      -15.677       -0.112       58.795       29.800       27.700     3456.814      888.054      767.306        0.505        0.256       70.631       23.857        0.114      333.916        3.544      856.274
12/03/2014  07:35:00      -42.139      -28.740       16.905       67.416       37.413       29.624     4544.972     1399.706      877.573        0.485        0.341       51.007       38.891        0.581      333.941        3.587      856.261
12/03/2014  07:36:00      -81.775      -24.892      -14.284       28.978       17.757       15.055      839.741      315.305      226.665        0.445        0.069       85.479       13.583        0.025      333.868        3.467      856.254
12/03/2014  07:37:00      -11.490      -14.845       12.850       30.965       18.805       23.456      958.828      353.613      550.189        0.119        0.093       18.772       19.253        1.052      333.978        3.647      856.274
12/03/2014  07:38:00      -77.502      -27.400        1.664       24.840       23.713       17.732      617.007      562.299      314.423        0.413        0.075       82.202        5.808        0.005      333.929        3.566      856.298
12/03/2014  07:39:00      -87.449      -38.899       -6.294       44.944       39.118       15.666     2019.998     1530.215      245.429        0.650        0.190       95.711       14.580        0.023      333.923        3.559      856.309
12/03/2014  07:40:00     -132.869      -25.310      -15.193       19.307       20.129       12.144      372.764      405.192      147.479        0.973        0.046      135.258        9.892        0.005      333.866        3.461      856.313
12/03/2014  07:41:00     -117.165      -50.325       -6.977       23.765       17.938       15.784      564.778      321.768      249.146        0.872        0.057      127.516       13.245        0.011      333.903        3.524      856.299
12/03/2014  07:42:00      -64.419      -41.758       -7.640       41.908       19.692       17.584     1756.283      387.787      309.202        0.420        0.123       76.769       23.738        0.096      333.936        3.579      856.294
12/03/2014  07:43:00      -70.554      -38.511       -7.106       23.492       33.421       16.950      551.876     1116.974      287.298        0.423        0.098       80.380       14.810        0.034      333.995        3.677      856.300
12/03/2014  07:44:00      -68.883      -13.105       -4.245       21.734       17.336       14.368      472.383      300.538      206.450        0.296        0.049       70.119       16.512        0.055      333.949        3.601      856.294
12/03/2014  07:45:00      -65.678       16.048      -10.882       13.746       22.214       11.005      188.953      493.443      121.110        0.275        0.040       67.611        8.437        0.016      333.956        3.612      856.254
12/03/2014  07:46:00      -77.488       42.820      -17.481       19.097       21.114       11.135      364.706      445.817      123.999        0.454        0.047       88.532        8.106        0.008      333.978        3.647      856.228
12/03/2014  07:47:00      -90.653      -23.122       -4.485       19.122       29.682       10.902      365.670      880.996      118.856        0.507        0.068       93.555       11.630        0.015      333.920        3.553      856.229
12/03/2014  07:48:00     -106.482      -31.581       -8.025       14.289       18.439       17.657      204.174      339.997      311.757        0.663        0.043      111.066       11.820        0.011      333.903        3.525      856.231
12/03/2014  07:49:00      -82.710      -28.394      -11.423       21.891       18.893       10.238      479.210      356.943      104.820        0.436        0.047       87.448        6.538        0.006      333.940        3.584      856.242
12/03/2014  07:50:00      -19.719      -37.529        5.341       27.550       19.242       15.942      759.001      370.256      254.149        0.160        0.069       42.394       14.525        0.117      334.024        3.725      856.238
12/03/2014  07:51:00      -50.745      -28.279        1.191       30.628       17.800       17.072      938.091      316.834      291.437        0.246        0.077       58.092       20.206        0.121      334.022        3.720      856.231
12/03/2014  07:52:00      -56.315       45.176      -15.398       12.309       19.168        8.919      151.503      367.406       79.547        0.302        0.030       72.195        8.834        0.015      333.944        3.593      856.224
12/03/2014  07:53:00      -59.620       40.210       -6.265       17.213       22.076       13.281      296.303      487.360      176.372        0.309        0.048       71.912        8.813        0.015      333.984        3.657      856.224
12/03/2014  07:54:00      -70.912       15.969       -5.026       23.634       20.680       15.236      558.554      427.670      232.130        0.326        0.061       72.688       12.783        0.031      334.017        3.713      856.227
12/03/2014  07:55:00     -110.508       17.910      -10.642       18.904       13.212        9.932      357.371      174.552       98.650        0.664        0.032      111.950        3.615        0.001      333.932        3.572      856.252
12/03/2014  07:56:00      -71.579       -4.584       -5.918       16.653       16.484       14.654      277.338      271.706      214.740        0.297        0.038       71.725        8.950        0.016      333.986        3.663      856.280
12/03/2014  07:57:00     -106.810       23.167       -6.955       20.139       14.747        9.515      405.594      217.478       90.537        0.635        0.036      109.294        6.934        0.004      333.962        3.622      856.298
12/03/2014  07:58:00     -108.682       27.081       -8.556       15.276       16.629       11.217      233.358      276.524      125.814        0.663        0.032      112.006        9.693        0.007      333.977        3.646      856.297
12/03/2014  07:59:00      -78.964       26.601       -9.742       23.225       16.063       11.926      539.384      258.005      142.227        0.399        0.047       83.324        8.961        0.012      333.998        3.683      856.309
12/03/2014  08:00:00      -73.897      -14.648       -2.863       28.277       35.695       11.360      799.614     1274.169      129.042        0.394        0.110       75.334        5.026        0.004      334.057        3.777      856.335
12/03/2014  08:01:00      -60.165      -13.672        4.134       29.001       32.596       17.858      841.040     1062.520      318.902        0.302        0.111       61.699       17.312        0.079      334.070        3.801      856.352
12/03/2014  08:02:00      -47.409      -38.994        3.577       45.868       20.784       18.586     2103.858      431.977      345.445        0.333        0.144       61.386       25.832        0.177      334.089        3.831      856.361
12/03/2014  08:03:00      -61.364      -14.998       -2.387       14.374       11.829       11.617      206.609      139.920      134.944        0.224        0.024       63.170        9.688        0.024      334.041        3.752      856.334
12/03/2014  08:04:00      -49.630        2.495       -7.364       15.199       19.595       11.508      231.017      383.977      132.435        0.164        0.037       49.693        9.637        0.038      334.067        3.795      856.279
12/03/2014  08:05:00      -34.892       36.904       -5.950       20.196       33.110       10.238      407.890     1096.290      104.808        0.211        0.080       50.787       12.814        0.064      334.084        3.826      856.245
12/03/2014  08:06:00      -35.225       39.375       -9.464       21.272       21.188       13.017      452.510      448.922      169.454        0.198        0.054       52.832       13.603        0.066      334.108        3.864      856.215
12/03/2014  08:07:00       11.318       28.871        2.443       14.039       32.063       11.833      197.086     1028.059      140.013        0.117        0.068       31.010       12.631        0.166      334.082        3.819      856.190
12/03/2014  08:08:00       15.721       63.121       -4.383       14.679       11.688       14.954      215.465      136.613      223.625        0.241        0.029       65.049       11.044        0.029      334.015        3.711      856.186
12/03/2014  08:09:00        4.848       21.605        0.921       17.854       21.478       12.102      318.753      461.301      146.470        0.071        0.046       22.143       10.289        0.216      334.064        3.791      856.153
12/03/2014  08:10:00       40.902       30.541        0.686       27.523       17.126       15.464      757.508      293.287      239.123        0.195        0.064       51.047        6.877        0.018      334.051        3.769      856.092
12/03/2014  08:11:00       41.100       73.798       -6.091       25.167       30.768       23.668      633.390      946.676      560.185        0.466        0.107       84.471       20.115        0.057      334.035        3.741      856.041
12/03/2014  08:12:00       46.308       37.114        7.078       29.032       20.558       20.140      842.842      422.625      405.617        0.262        0.084       59.346       11.829        0.040      334.064        3.790      856.041
12/03/2014  08:13:00       71.246       53.841        2.769       44.021       25.971       19.878     1937.836      674.483      395.129        0.549        0.150       89.302       10.149        0.013      334.004        3.691      856.025
12/03/2014  08:14:00      105.021       64.075       14.664       25.816       27.448       30.407      666.440      753.403      924.611        0.885        0.117      123.024       21.066        0.029      334.050        3.766      855.975
12/03/2014  08:15:00       92.753       47.578        6.014       35.240       22.591       23.718     1241.888      510.338      562.566        0.661        0.116      104.244       10.016        0.009      334.111        3.868      855.971
12/03/2014  08:16:00       93.642       58.545       12.578       35.507       34.656       26.922     1260.752     1201.022      724.800        0.777        0.159      110.437       16.085        0.021      334.043        3.756      855.997
12/03/2014  08:17:00       94.648       34.151       13.389       33.176       27.034       25.197     1100.646      730.819      634.892        0.638        0.123      100.620        9.479        0.009      334.036        3.745      855.961
12/03/2014  08:18:00       75.355       37.697        4.037       47.690       28.927       21.759     2274.293      836.783      473.475        0.535        0.179       84.258       15.707        0.035      334.085        3.824      855.919
12/03/2014  08:19:00       32.908       85.616      -10.029       30.071       35.234       18.249      904.251     1241.405      333.021        0.550        0.124       91.722       13.291        0.021      334.120        3.883      855.906
12/03/2014  08:20:00        0.234       55.106       -8.614       22.915       24.296       13.829      525.084      590.292      191.241        0.221        0.065       55.107        8.794        0.025      334.079        3.815      855.945
12/03/2014  08:21:00       21.406       61.928      -11.010       18.546       24.594       17.255      343.951      604.844      297.724        0.283        0.062       65.523       14.296        0.048      334.034        3.741      856.010
12/03/2014  08:22:00       47.079       67.623       -9.016       11.477       22.212       17.983      131.729      493.352      323.404        0.391        0.047       82.397       16.035        0.038      334.010        3.700      856.063
12/03/2014  08:23:00       62.232       52.493       -7.405       21.839       17.883       16.662      476.927      319.791      277.608        0.388        0.054       81.415       10.352        0.016      334.013        3.706      856.060
12/03/2014  08:24:00       35.055       16.991        5.772       24.262       25.377       16.533      588.623      643.971      273.333        0.153        0.075       38.955       10.603        0.074      334.110        3.864      856.090
12/03/2014  08:25:00       25.389       21.788       -8.954       14.996       14.991       13.829      224.872      224.745      191.231        0.092        0.032       33.456        6.076        0.033      334.075        3.809      856.149
12/03/2014  08:26:00       12.568       29.987       -2.561        8.691        9.012        7.390       75.530       81.208       54.613        0.064        0.011       32.514        3.482        0.011      334.048        3.762      856.140
12/03/2014  08:27:00       29.624       28.684       -5.610       11.834       10.908        9.314      140.044      118.992       86.744        0.104        0.017       41.235        5.081        0.015      334.052        3.772      856.117
12/03/2014  08:28:00       37.984       24.424       -3.329       10.974        8.799        5.317      120.438       77.415       28.276        0.114        0.011       45.159        3.462        0.006      334.031        3.739      856.122
12/03/2014  08:29:00       14.389        9.240       -1.079       11.886       10.707        4.497      141.269      114.631       20.225        0.028        0.014       17.100        6.340        0.137      334.047        3.764      856.122
12/03/2014  08:30:00       22.974       12.332       28.685       26.683       33.789       23.771      712.002     1141.722      565.075        0.196        0.121       26.075       24.356        0.873      334.130        3.901      856.141
12/03/2014  08:31:00       62.284       35.817       22.304       21.633       17.296       20.819      467.974      299.150      433.448        0.343        0.060       71.848       15.836        0.049      334.088        3.830      856.163
12/03/2014  08:32:00       77.143       37.486       36.495       35.863       30.632       28.167     1286.124      938.325      793.400        0.585        0.151       85.769       21.796        0.065      334.116        3.877      856.151
12/03/2014  08:33:00      125.204       75.652       14.520       31.792       21.748       26.500     1010.715      472.954      702.247        1.190        0.109      146.285       20.839        0.020      334.078        3.814      856.143
12/03/2014  08:34:00      131.801       88.879       39.197       41.949       29.226       33.104     1759.745      854.175     1095.878        1.526        0.185      158.969       19.783        0.015      334.119        3.880      856.176
12/03/2014  08:35:00       96.584       63.768       39.344       42.193       30.520       34.317     1780.259      931.441     1177.672        0.942        0.194      115.736       20.818        0.032      334.124        3.890      856.187
12/03/2014  08:36:00       86.010       47.917       12.387       26.955       21.926       20.737      726.563      480.739      430.035        0.574        0.082       98.457        8.496        0.007      334.079        3.815      856.188
12/03/2014  08:37:00       72.761       53.586        6.823       21.309       18.008       14.702      454.059      324.284      216.141        0.460        0.050       90.364       11.251        0.016      334.099        3.848      856.198
12/03/2014  08:38:00       71.485       23.501        7.123       32.051       21.704       16.993     1027.287      471.055      288.775        0.375        0.089       75.249       16.119        0.046      334.139        3.916      856.206
12/03/2014  08:39:00       58.576       54.382        7.173       19.771       16.949       21.242      390.875      287.273      451.206        0.378        0.056       79.928       14.880        0.035      334.075        3.809      856.196
12/03/2014  08:40:00       46.402       38.270        6.090       28.721       12.673       15.089      824.878      160.610      227.666        0.243        0.061       60.148        5.458        0.008      334.060        3.785      856.191
12/03/2014  08:41:00       39.085       49.552        1.008       17.265       20.638       14.087      298.067      425.940      198.436        0.245        0.046       63.111        9.486        0.023      334.082        3.820      856.198
12/03/2014  08:42:00       72.057       31.540       -0.807       11.916       16.876       11.258      141.994      284.783      126.733        0.337        0.028       78.658        4.396        0.003      334.077        3.810      856.204
12/03/2014  08:43:00       68.110       31.636        0.175       27.582       25.366       25.829      760.771      643.424      667.156        0.386        0.104       75.099       16.123        0.046      334.176        3.976      856.201
12/03/2014  08:44:00      121.237       59.718        5.998       31.274       25.029       23.739      978.053      626.441      563.562        1.023        0.108      135.147       12.792        0.009      334.116        3.878      856.195
12/03/2014  08:45:00       78.574       64.959       23.563       46.751       29.649       26.802     2185.694      879.050      718.348        0.737        0.189      101.949       16.509        0.026      334.146        3.926      856.189
12/03/2014  08:46:00       72.839       52.726       42.937       27.144       15.890       21.833      736.775      252.492      476.679        0.570        0.073       89.920       12.325        0.019      334.109        3.864      856.182
12/03/2014  08:47:00       43.430       21.740       25.853       25.897       21.435       19.944      670.642      459.475      397.779        0.228        0.076       48.567       16.109        0.110      334.127        3.894      856.151
12/03/2014  08:48:00       51.588       40.170        8.008       20.574       19.456       16.419      423.272      378.533      269.580        0.271        0.054       65.383       11.380        0.030      334.131        3.900      856.114
12/03/2014  08:49:00       33.157       26.441        6.185       28.093       19.921       16.512      789.241      396.852      272.659        0.165        0.073       42.409       14.662        0.120      334.196        4.010      856.118
12/03/2014  08:50:00       45.166       43.921       29.029       31.117       34.429       23.510      968.286     1185.325      552.721        0.376        0.135       63.000       23.371        0.138      334.264        4.123      856.157
12/03/2014  08:51:00       21.328       52.090       57.677       43.389       47.204       27.025     1882.605     2228.233      730.345        0.567        0.242       56.287       15.999        0.081      334.353        4.269      856.171
12/03/2014  08:52:00       79.429       58.371       39.053       36.844       25.289       24.745     1357.492      639.517      612.332        0.692        0.130       98.571       16.600        0.028      334.184        3.988      856.159
12/03/2014  08:53:00       66.468       45.412       14.741       35.469       18.679       16.329     1258.023      348.892      266.640        0.429        0.094       80.500        9.794        0.015      334.164        3.958      856.123
12/03/2014  08:54:00       59.246       29.231       24.283       39.785       29.741       24.997     1582.862      884.551      624.832        0.402        0.155       66.064       21.140        0.102      334.273        4.138      856.083
12/03/2014  08:55:00       72.525       36.711        0.462       38.892       25.607       27.449     1512.600      655.744      753.437        0.476        0.146       81.287       19.340        0.057      334.264        4.121      856.066
12/03/2014  08:56:00       84.287       48.569        6.359       28.491       21.748       19.026      811.743      472.961      362.005        0.557        0.082       97.279        9.344        0.009      334.226        4.059      856.055
12/03/2014  08:57:00       94.298       47.800        1.014       22.561       16.149       21.654      508.999      260.781      468.878        0.621        0.062      105.721       12.693        0.014      334.177        3.979      856.052
12/03/2014  08:58:00       79.568       46.098        4.505       41.631       28.197       25.569     1733.099      795.074      653.760        0.583        0.159       91.957       11.120        0.015      334.198        4.014      856.034
12/03/2014  08:59:00       72.846       64.211        7.548       26.943       19.933       22.132      725.935      397.325      489.826        0.555        0.081       97.106        8.980        0.009      334.153        3.936      856.026
12/03/2014  09:00:00       40.542       37.934       15.202       28.108       24.797       28.451      790.044      614.907      809.484        0.276        0.111       55.522       14.308        0.066      334.324        4.222      856.086
12/03/2014  09:01:00       33.882       48.017       52.697       34.049       29.078       30.891     1159.321      845.526      954.278        0.459        0.148       58.767       23.973        0.166      334.376        4.308      856.168
12/03/2014  09:02:00       29.661       -7.846       25.985       33.321       71.279       32.309     1110.287     5080.758     1043.864        0.442        0.362       30.682       42.970        1.961      334.452        4.434      856.220
12/03/2014  09:03:00       73.400      -66.281        6.379       49.347       54.446       28.675     2435.150     2964.366      822.277        0.802        0.311       98.897       29.795        0.091      334.414        4.371      856.231
12/03/2014  09:04:00      112.801     -101.926      -14.665       32.015       34.905       18.164     1024.945     1218.368      329.944        1.295        0.129      152.029       12.788        0.007      334.221        4.049      856.248
12/03/2014  09:05:00       83.620     -102.101      -16.877       26.579       34.969       16.079      706.437     1222.859      258.549        0.994        0.109      131.973       15.322        0.013      334.177        3.977      856.259
12/03/2014  09:06:00       41.202      -82.675        3.599       30.142       36.020       24.467      908.551     1297.442      598.634        0.567        0.140       92.373       19.404        0.044      334.301        4.182      856.268
12/03/2014  09:07:00       32.836      -22.142       15.591       31.015       27.478       21.315      961.941      755.015      454.309        0.199        0.109       39.604       22.149        0.313      334.401        4.349      856.292
12/03/2014  09:08:00        6.224       23.243       40.032       18.705       28.536       14.581      349.877      814.300      212.619        0.178        0.069       24.062       13.609        0.320      334.436        4.408      856.307
12/03/2014  09:09:00        1.938        5.131       39.076       17.076       46.109       30.453      291.597     2126.075      927.395        0.245        0.167        5.485       32.112       34.273      334.504        4.520      856.303
12/03/2014  09:10:00        1.059       51.826       70.013       17.960       27.928       13.212      322.574      779.989      174.559        0.443        0.064       51.836       13.057        0.063      334.410        4.365      856.322
12/03/2014  09:11:00       26.487       49.077       54.934       28.376       24.425       12.224      805.188      596.603      149.436        0.384        0.078       55.768       10.244        0.034      334.445        4.424      856.337
12/03/2014  09:12:00       22.826      -20.567       27.728       29.026       44.306       22.861      842.488     1963.027      522.647        0.252        0.166       30.725       23.332        0.577      334.515        4.538      856.350
12/03/2014  09:13:00       23.962       -7.023       27.078       23.345       24.861       19.204      544.988      618.063      368.781        0.144        0.077       24.970       14.087        0.318      334.566        4.623      856.308
12/03/2014  09:14:00       54.539       35.622       28.033       43.579       23.047       32.131     1899.103      531.179     1032.391        0.425        0.173       65.142       30.090        0.213      334.526        4.558      856.240
12/03/2014  09:15:00       92.703       58.037        7.973       31.922       28.173       30.265     1019.021      793.695      915.981        0.738        0.136      109.372       12.315        0.013      334.425        4.389      856.148
12/03/2014  09:16:00       20.838       48.940       -6.228       27.827       22.436       18.333      774.324      503.366      336.106        0.224        0.081       53.192       13.878        0.068      334.503        4.518      856.091
12/03/2014  09:17:00       16.992       18.005        5.486       20.049       17.296       19.531      401.947      299.158      381.471        0.086        0.054       24.757       12.587        0.258      334.631        4.730      856.121
12/03/2014  09:18:00       29.533       22.271        4.731       12.618       15.024       13.078      159.225      225.729      171.034        0.097        0.028       36.989        6.812        0.034      334.488        4.494      856.132
12/03/2014  09:19:00       65.509       46.933       12.710       23.695       16.718       17.820      561.454      279.481      317.566        0.391        0.058       80.586       11.277        0.020      334.459        4.446      856.091
12/03/2014  09:20:00       88.093       48.013       -9.086       43.397       26.534       26.183     1883.324      704.063      685.535        0.671        0.164      100.327       15.501        0.024      334.590        4.664      856.026
12/03/2014  09:21:00       71.773       42.925        8.315       45.366       43.310       36.046     2058.060     1875.771     1299.336        0.615        0.262       83.630       22.169        0.070      334.617        4.709      855.965
12/03/2014  09:22:00      103.982       73.873       12.971       34.527       26.509       26.392     1192.139      702.717      696.553        0.951        0.130      127.552       17.175        0.018      334.469        4.464      855.932
12/03/2014  09:23:00       91.480       42.150        1.308       34.376       26.393       24.579     1181.736      696.586      604.112        0.631        0.124      100.723       19.433        0.037      334.457        4.442      855.931
12/03/2014  09:24:00       53.549       61.008       -3.734       23.623       24.995       21.628      558.067      624.744      467.761        0.413        0.083       81.176       16.474        0.041      334.506        4.524      855.948
12/03/2014  09:25:00       74.315       34.091        9.145       27.594       30.365       23.235      761.451      922.040      539.858        0.450        0.111       81.761       18.593        0.052      334.547        4.590      855.988
12/03/2014  09:26:00       45.522       22.699       13.772       41.662       16.783       23.378     1735.753      281.668      546.538        0.267        0.128       50.868       24.362        0.229      334.555        4.604      856.019
12/03/2014  09:27:00       25.946       44.687       41.381       43.370       30.065       28.248     1880.966      903.931      797.946        0.398        0.179       51.673       30.755        0.354      334.682        4.817      856.060
12/03/2014  09:28:00       15.674       34.710        9.821       17.058       23.756       26.550      290.979      564.345      704.878        0.155        0.078       38.085       17.309        0.207      334.666        4.789      856.114
12/03/2014  09:29:00        1.521       30.834       43.509       27.307       21.391       22.888      745.665      457.557      523.849        0.229        0.086       30.872       18.022        0.341      334.706        4.856      856.177
12/03/2014  09:30:00       66.357       60.575       22.644       13.603       11.706       15.114      185.034      137.030      228.422        0.457        0.028       89.847        4.556        0.003      334.454        4.440      856.243
12/03/2014  09:31:00       40.115       23.887       -2.115       17.687       19.941       12.167      312.842      397.626      148.032        0.152        0.043       46.688        7.894        0.029      334.492        4.500      856.279
12/03/2014  09:32:00        8.233        0.026       -0.543       11.468       11.257       10.880      131.505      126.724      118.370        0.022        0.019        8.233        6.925        0.707      334.644        4.752      856.283
12/03/2014  09:33:00        2.323       37.844       -4.193       14.412       19.844       10.401      207.713      393.790      108.176        0.108        0.035       37.915        5.639        0.022      334.605        4.688      856.282
12/03/2014  09:34:00       47.101       41.125        4.136       36.530       23.459       16.682     1334.453      550.324      278.292        0.304        0.108       62.528       13.115        0.044      334.691        4.831      856.271
12/03/2014  09:35:00       58.403       44.093       25.863       32.003       22.351       22.778     1024.214      499.579      518.815        0.403        0.102       73.179       13.794        0.036      334.756        4.940      856.294
12/03/2014  09:36:00       51.409       43.113       31.464       17.199       15.710       20.873      295.790      246.810      435.700        0.323        0.049       67.094       15.057        0.050      334.669        4.793      856.298
12/03/2014  09:37:00       58.655       72.027       17.220       18.061       16.501       26.258      326.198      272.269      689.506        0.511        0.064       92.889       10.348        0.012      334.712        4.866      856.276
12/03/2014  09:38:00       37.970       38.423       12.353       30.267       21.218       19.466      916.100      450.202      378.907        0.241        0.087       54.019       13.613        0.064      334.826        5.054      856.250
12/03/2014  09:39:00       52.937       55.146        4.753       19.589       19.435       16.936      383.725      377.703      286.826        0.346        0.052       76.442       11.438        0.022      334.780        4.980      856.250
12/03/2014  09:40:00       51.897       30.685       12.901       22.514       13.853       18.488      506.897      191.894      341.791        0.242        0.052       60.290       15.049        0.062      334.809        5.027      856.199
12/03/2014  09:41:00       26.843        3.550        8.634       22.091       11.214       16.759      488.000      125.744      280.849        0.085        0.045       27.077       13.515        0.249      335.064        5.450      856.163
12/03/2014  09:42:00      -32.031       10.544       -4.208       40.485       20.714       12.879     1639.050      429.071      165.869        0.169        0.112       33.721       11.224        0.111      335.044        5.418      856.190
12/03/2014  09:43:00      -41.558        4.209       -0.213       21.854       23.817       13.980      477.614      567.240      195.444        0.149        0.062       41.770        8.910        0.046      335.147        5.588      856.234
12/03/2014  09:44:00       -7.385       -2.403        7.621       14.274       15.266       13.250      203.739      233.055      175.573        0.037        0.031        7.766        7.591        0.955      335.479        6.139      856.285
12/03/2014  09:45:00      -14.569       16.746       35.438       12.932       13.636       13.913      167.245      185.944      193.575        0.115        0.027       22.197        6.251        0.079      335.545        6.251      856.273
12/03/2014  09:46:00       10.666       27.058       45.926       39.696       37.026       20.721     1575.768     1370.952      429.360        0.316        0.169       29.084       19.864        0.466      335.375        5.968      856.239
12/03/2014  09:47:00       32.480       42.340       50.022       47.935       33.092       21.643     2297.798     1095.073      468.431        0.460        0.193       53.363       19.738        0.137      335.419        6.040      856.247
12/03/2014  09:48:00       13.038       38.008       54.835       32.044       31.312       17.247     1026.844      980.440      297.453        0.346        0.115       40.182        9.926        0.061      335.405        6.016      856.258
12/03/2014  09:49:00        3.773       18.833       40.485       19.489       17.600       10.488      379.832      309.778      109.995        0.140        0.040       19.207        6.260        0.106      335.570        6.291      856.219
12/03/2014  09:50:00       -5.201      -18.573       19.133       14.374       23.914       17.357      206.609      571.896      301.250        0.091        0.054       19.287       14.734        0.584      335.713        6.529      856.231
12/03/2014  09:51:00      -34.533       18.110        6.840       19.255       17.106       24.142      370.772      292.624      582.838        0.141        0.062       38.993       17.123        0.193      335.433        6.063      856.208
12/03/2014  09:52:00      -20.236       -5.149        8.438       16.020        8.702       11.119      256.632       75.727      123.632        0.048        0.023       20.881        8.602        0.170      335.688        6.489      856.184
12/03/2014  09:53:00      -19.674      -14.081        6.548       20.614       18.049       10.129      424.918      325.752      102.600        0.074        0.043       24.194        7.639        0.100      335.497        6.169      856.204
12/03/2014  09:54:00      -15.751       -4.200        6.613       26.020       23.716       20.031      677.048      562.439      401.256        0.097        0.082       16.301       11.745        0.519      335.604        6.348      856.128
12/03/2014  09:55:00      -55.050        6.081        0.436       29.021       16.492       13.970      842.227      271.985      195.155        0.219        0.065       55.384        7.169        0.017      335.307        5.854      856.086
12/03/2014  09:56:00      -25.326        1.389       -3.260       14.055       14.971        9.409      197.551      224.128       88.535        0.058        0.026       25.364        7.035        0.077      335.475        6.132      856.102
12/03/2014  09:57:00     -100.052        8.472      -17.109       35.430       35.632       17.348     1255.263     1269.611      300.941        0.660        0.141      100.410       21.238        0.045      335.308        5.855      856.072
12/03/2014  09:58:00     -107.736      -43.640      -13.981       29.161       33.982       24.389      850.385     1154.790      594.812        0.815        0.130      116.239       20.756        0.032      335.275        5.799      856.071
12/03/2014  09:59:00      -74.699        4.564       -6.450       26.025       34.286       15.292      677.326     1175.526      233.859        0.386        0.104       74.838        9.628        0.017      335.256        5.769      856.060
12/03/2014  10:00:00      -52.332      -13.871       -7.994       15.906       11.899        8.965      252.989      141.575       80.379        0.173        0.024       54.140        7.561        0.020      335.262        5.777      856.068
12/03/2014  10:01:00      -29.535      -48.272       -4.204       34.247       32.337       14.958     1172.882     1045.678      223.753        0.283        0.122       56.591       12.195        0.046      335.366        5.952      856.110
12/03/2014  10:02:00      -67.888      -78.090       -1.376       51.280       38.816       26.693     2629.600     1506.656      712.542        0.778        0.242      103.474       28.097        0.074      335.303        5.847      856.146
12/03/2014  10:03:00      -80.683      -11.379        3.796       43.776       38.659       21.080     1916.363     1494.520      444.357        0.525        0.193       81.481       21.714        0.071      335.339        5.907      856.098
12/03/2014  10:04:00     -125.148      -58.226       -6.449       20.340       17.221       11.870      413.703      296.567      140.901        0.997        0.043      138.030        9.579        0.005      335.232        5.729      856.088
12/03/2014  10:05:00     -134.190      -24.912      -15.257       21.035       20.724       21.192      442.473      429.494      449.114        1.009        0.066      136.483        6.402        0.002      335.218        5.704      856.072
12/03/2014  10:06:00     -128.109      -56.491      -15.266       29.907       23.553       12.479      894.407      554.767      155.730        1.072        0.080      140.011        5.675        0.002      335.201        5.674      856.009
12/03/2014  10:07:00      -86.835      -67.285        2.138       41.920       29.307       24.063     1757.306      858.898      579.048        0.763        0.160      109.852       17.925        0.027      335.320        5.875      856.000
12/03/2014  10:08:00      -55.600      -69.279       12.817       73.841       48.493       38.832     5452.485     2351.569     1507.961        0.868        0.466       88.831       37.802        0.181      335.408        6.019      856.056
12/03/2014  10:09:00     -103.834      -90.355        6.593       56.818       53.209       33.205     3228.327     2831.249     1102.553        1.307        0.358      137.643       32.998        0.057      335.314        5.864      856.102
12/03/2014  10:10:00      -72.485      -84.587       -5.256       26.872       31.864       17.252      722.121     1015.288      297.638        0.724        0.102      111.396       13.327        0.014      335.251        5.760      856.083
12/03/2014  10:11:00      -71.472      -58.924       -5.688       13.340       23.051       14.882      177.947      531.371      221.484        0.477        0.047       92.630       14.264        0.024      335.244        5.747      856.074
12/03/2014  10:12:00     -100.153      -26.491        6.769       39.342       25.245       19.362     1547.793      637.322      374.878        0.667        0.128      103.598       20.637        0.040      335.345        5.916      856.075
12/03/2014  10:13:00      -52.146       -1.049        4.156       29.054       26.564       18.437      844.148      705.667      339.929        0.231        0.094       52.156       13.768        0.070      335.427        6.053      856.071
12/03/2014  10:14:00     -108.260       25.206      -12.508       27.792       19.143       17.903      772.415      366.452      320.504        0.699        0.073      111.155       14.476        0.017      335.292        5.828      856.056
12/03/2014  10:15:00      -66.655       21.222      -13.584       18.980       15.012       12.832      360.252      225.370      164.672        0.291        0.038       69.952        8.475        0.015      335.296        5.834      856.070
12/03/2014  10:16:00      -84.587      -51.609       -6.077       33.177       47.328       20.398     1100.731     2239.967      416.076        0.681        0.188       99.088       13.513        0.019      335.359        5.940      856.085
12/03/2014  10:17:00      -84.781      -26.366        7.161       87.366       27.250       33.178     7632.870      742.586     1100.747        0.870        0.474       88.786       47.649        0.288      335.437        6.068      856.124
12/03/2014  10:18:00     -115.847      -19.346       -4.954       49.375       28.949       22.840     2437.938      838.027      521.643        0.881        0.190      117.451       25.452        0.047      335.354        5.933      856.136
12/03/2014  10:19:00      -66.055      -71.353       12.643       58.992       65.802       24.627     3480.095     4329.878      606.483        0.901        0.421       97.235       30.604        0.099      335.430        6.058      856.106
12/03/2014  10:20:00      -29.675      -99.977        5.616       46.074       42.225       26.604     2122.826     1782.911      707.785        0.776        0.231      104.288       25.629        0.060      335.365        5.950      856.057
12/03/2014  10:21:00        0.768      -79.464        7.323       15.438       14.731       19.931      238.329      217.000      397.240        0.361        0.043       79.467        9.301        0.014      335.343        5.909      855.992
12/03/2014  10:22:00      -33.957      -64.168       -8.881       19.238       23.910       16.362      370.116      571.695      267.717        0.328        0.060       72.599       11.213        0.024      335.382        5.977      855.951
12/03/2014  10:23:00      -94.378      -72.949      -11.380       30.061       14.479       11.362      903.645      209.642      129.096        0.780        0.062      119.284        6.272        0.003      335.362        5.944      855.932
12/03/2014  10:24:00      -74.415      -58.506        4.049       41.986       32.791       26.524     1762.788     1075.263      703.519        0.626        0.177       94.661       24.213        0.065      335.472        6.127      855.967
12/03/2014  10:25:00     -106.070      -92.541       -3.303       51.462       46.353       28.141     2648.349     2148.556      791.915        1.271        0.279      140.765       22.461        0.025      335.482        6.144      856.033
12/03/2014  10:26:00     -108.183     -101.610        2.305       53.212       41.200       31.631     2831.494     1697.472     1000.522        1.378        0.276      148.419       30.361        0.042      335.479        6.138      856.071
12/03/2014  10:27:00     -100.386      -91.014       -8.286       40.199       39.230       21.377     1615.986     1538.954      456.977        1.102        0.181      135.502       19.055        0.020      335.494        6.165      856.064
12/03/2014  10:28:00      -87.562      -99.739       -1.024       47.642       42.483       24.667     2269.775     1804.806      608.471        1.115        0.234      132.721       29.838        0.051      335.527        6.221      856.006
12/03/2014  10:29:00     -110.565      -47.259       -5.141       34.287       34.913       20.001     1175.620     1218.939      400.042        0.864        0.140      120.242       12.880        0.011      335.553        6.263      855.887
12/03/2014  10:30:00      -86.418      -44.841       -6.324       25.631       20.133       15.064      656.930      405.340      226.916        0.540        0.064       97.359        9.381        0.009      335.579        6.308      855.817
12/03/2014  10:31:00      -18.674      -50.938       -0.391       18.739       19.587       13.886      351.137      383.642      192.826        0.194        0.046       54.253        8.905        0.027      335.626        6.386      855.767
12/03/2014  10:32:00      -62.744      -55.088       -5.816       63.048       17.437       13.784     3975.011      304.057      190.007        0.574        0.223       83.496       20.268        0.059      335.690        6.493      855.749
12/03/2014  10:33:00      -78.088      -33.368       -8.840       46.287       19.104       11.948     2142.477      364.980      142.754        0.497        0.133       84.919       14.744        0.030      335.682        6.480      855.794
12/03/2014  10:34:00      -32.697      -52.136        2.576       38.934       36.722       18.622     1515.857     1348.524      346.775        0.350        0.161       61.541       15.747        0.065      335.860        6.777      855.798
12/03/2014  10:35:00      -67.840        4.820       -4.793       18.327       36.852       14.184      335.874     1358.089      201.184        0.327        0.095       68.011        7.863        0.013      335.750        6.591      855.747
12/03/2014  10:36:00      -44.130        7.150       -8.793       33.335       54.204       23.649     1111.224     2938.120      559.298        0.334        0.230       44.706       18.258        0.167      335.868        6.788      855.661
12/03/2014  10:37:00        4.896      -18.285       -0.739       17.694       24.879       26.272      313.083      618.989      690.211        0.099        0.081       18.930       22.548        1.419      335.930        6.891      855.603
12/03/2014  10:38:00      -18.380        2.936        4.783       19.645       11.753       12.169      385.940      138.127      148.078        0.052        0.034       18.613       12.859        0.477      335.968        6.955      855.581
12/03/2014  10:39:00      -50.568      -15.933        4.301       28.589       22.980       14.687      817.326      528.064      215.700        0.219        0.078       53.019       15.417        0.085      335.976        6.967      855.599
12/03/2014  10:40:00      -75.648      -64.015        9.333       55.483       41.446       31.851     3078.335     1717.757     1014.495        0.786        0.291       99.098       33.392        0.114      335.965        6.951      855.655
12/03/2014  10:41:00     -191.327     -149.605       -7.376       76.908       71.172       35.974     5914.765     5065.443     1294.096        3.566        0.614      242.874       26.721        0.012      335.804        6.678      855.696
12/03/2014  10:42:00     -225.103     -185.520      -11.703       71.328       60.015       45.767     5087.638     3601.753     2094.624        4.800        0.539      291.701       42.582        0.021      335.828        6.718      855.721
12/03/2014  10:43:00     -198.336     -119.621        1.156       90.066       73.664       41.362     8111.946     5426.444     1710.791        3.445        0.762      231.617       38.443        0.028      335.922        6.876      855.710
12/03/2014  10:44:00     -125.863      -77.720        3.408       69.410       56.110       36.905     4817.760     3148.327     1362.012        1.561        0.466      147.925       40.215        0.074      335.961        6.943      855.676
12/03/2014  10:45:00      -21.819      -62.573        8.847       32.902       32.647       21.863     1082.514     1065.818      477.974        0.355        0.131       66.268       18.418        0.077      336.042        7.079      855.651
12/03/2014  10:46:00     -115.752      -19.858       -6.762       34.305       24.479       22.476     1176.836      599.211      505.149        0.806        0.114      117.443       20.072        0.029      335.953        6.931      855.641
12/03/2014  10:47:00     -133.130       -4.384      -13.742       19.461       18.482       15.608      378.718      341.587      243.603        0.945        0.048      133.202        9.253        0.005      335.916        6.869      855.620
12/03/2014  10:48:00     -114.312      -38.216      -22.761       25.243       30.572       22.294      637.196      934.620      497.022        0.856        0.103      120.531       17.199        0.020      335.925        6.882      855.592
12/03/2014  10:49:00      -58.603        0.328      -13.146       27.404       16.442       22.437      750.969      270.331      503.428        0.257        0.076       58.603       18.396        0.099      335.945        6.917      855.563
12/03/2014  10:50:00      -13.428       -1.411       -1.490       23.150       14.402       15.063      535.925      207.424      226.905        0.058        0.049       13.502       12.521        0.860      336.225        7.383      855.570
12/03/2014  10:51:00      -51.813        7.694       -3.135       14.234       14.237       11.912      202.617      202.705      141.895        0.165        0.027       52.382        5.815        0.012      336.124        7.215      855.578
12/03/2014  10:52:00      -42.071        3.790      -11.009       26.073       12.104       10.652      679.781      146.503      113.464        0.142        0.047       42.241       11.188        0.070      336.238        7.407      855.570
12/03/2014  10:53:00      -31.993       30.842       -9.475       21.017       18.588       17.754      441.696      345.520      315.208        0.158        0.055       44.439       10.090        0.052      336.349        7.591      855.518
12/03/2014  10:54:00       -4.410        8.316       14.871       14.206       14.006       15.986      201.800      196.156      255.557        0.048        0.033        9.413        7.229        0.590      337.016        8.706      855.437
12/03/2014  10:55:00      -26.584       -0.715        7.719       20.655       13.568       13.728      426.612      184.081      188.463        0.078        0.040       26.594       14.400        0.293      336.761        8.281      855.395
12/03/2014  10:56:00      -79.056      -32.342        1.850       56.621       34.087       23.295     3205.898     1161.909      542.651        0.610        0.246       85.416       20.524        0.058      336.412        7.697      855.354
12/03/2014  10:57:00      -74.657       -9.038       -5.081       44.485       53.616       22.095     1978.955     2874.680      488.207        0.551        0.267       75.202       21.742        0.084      336.481        7.810      855.355
12/03/2014  10:58:00      -86.702       37.239      -10.345       41.820       27.607       21.724     1748.909      762.131      471.911        0.600        0.149       94.361       14.041        0.022      336.333        7.565      855.369
12/03/2014  10:59:00      -58.073      -25.841        0.894       57.617       41.802       24.871     3319.683     1747.367      618.576        0.486        0.284       63.563       17.771        0.078      336.487        7.822      855.401
12/03/2014  11:00:00      -79.335      -67.743       10.484       55.382       43.238       32.139     3067.204     1869.501     1032.945        0.848        0.298      104.323       31.012        0.088      336.446        7.754      855.410
12/03/2014  11:01:00      -71.313       -6.703        3.034       36.635       25.711       24.643     1342.148      661.053      607.282        0.387        0.131       71.627       22.614        0.100      336.502        7.849      855.376
12/03/2014  11:02:00      -52.334      -55.971        3.639       39.460       56.862       19.270     1557.104     3233.232      371.334        0.552        0.258       76.626       12.156        0.025      336.274        7.465      855.357
12/03/2014  11:03:00      -70.873     -100.708       -5.285       44.051       48.220       29.511     1940.525     2325.137      870.924        1.016        0.257      123.146       30.486        0.061      336.361        7.612      855.338
12/03/2014  11:04:00      -43.297      -27.774      -15.296       22.982       14.588        8.340      528.174      212.806       69.557        0.185        0.041       51.440        5.954        0.013      336.208        7.356      855.335
12/03/2014  11:05:00      -76.758       -7.540       -0.641       25.366       28.812       19.289      643.451      830.125      372.062        0.390        0.092       77.128       17.496        0.051      336.339        7.574      855.334
12/03/2014  11:06:00     -101.070       33.847       -4.627       19.859       12.807       15.298      394.368      164.024      234.027        0.609        0.040      106.587        4.658        0.002      336.300        7.510      855.327
12/03/2014  11:07:00      -11.657       -9.387        1.277       29.841       20.304       15.695      890.505      412.246      246.346        0.089        0.077       14.966       10.405        0.483      336.426        7.719      855.276
12/03/2014  11:08:00      -78.704      -24.363       -6.397       58.837       29.200       26.255     3461.777      852.661      689.303        0.592        0.250       82.388       33.312        0.163      336.448        7.756      855.251
12/03/2014  11:09:00     -143.214      -17.863       -7.194       46.494       39.951       25.714     2161.654     1596.112      661.235        1.265        0.221      144.324       24.094        0.028      336.495        7.835      855.268
12/03/2014  11:10:00      -55.688       15.497       21.158       49.855       42.542       33.477     2485.550     1809.847     1120.724        0.460        0.271       57.804       36.219        0.393      336.725        8.220      855.326
12/03/2014  11:11:00      -26.408      -61.774        6.558       45.452       51.425       20.410     2065.902     2644.488      416.556        0.484        0.256       67.182       22.549        0.113      336.753        8.267      855.359
12/03/2014  11:12:00      -84.190      -30.302       -2.955       45.880       36.317       32.511     2105.001     1318.889     1056.959        0.625        0.224       89.477       16.844        0.035      336.497        7.840      855.358
12/03/2014  11:13:00     -122.568      -89.158      -13.818       43.938       40.058       24.098     1930.517     1604.670      580.726        1.364        0.206      151.566       22.983        0.023      336.352        7.596      855.324
12/03/2014  11:14:00      -78.033      -83.777       -2.946       32.126       23.475       24.284     1032.097      551.055      589.692        0.764        0.109      114.490       19.126        0.028      336.361        7.611      855.333
12/03/2014  11:15:00      -89.524     -122.518       -4.162       36.296       86.045       21.558     1317.419     7403.722      464.755        1.611        0.459      151.741       16.181        0.011      336.341        7.576      855.361
12/03/2014  11:16:00      -74.298     -144.657       -1.749       49.986       65.542       33.474     2498.587     4295.775     1120.488        1.718        0.396      162.622       24.403        0.023      336.454        7.765      855.367
12/03/2014  11:17:00      -57.265      -86.075       -1.157       36.777       47.980       26.168     1352.525     2302.126      684.765        0.751        0.217      103.384       23.791        0.053      336.476        7.803      855.370
12/03/2014  11:18:00      -56.291      -92.366       -9.626       26.799       34.724       19.448      718.207     1205.736      378.209        0.705        0.115      108.167       10.862        0.010      336.332        7.564      855.380
12/03/2014  11:19:00      -43.633      -43.079        1.921       33.293       21.335       18.870     1108.392      455.184      356.093        0.284        0.096       61.315        7.640        0.016      336.419        7.708      855.389
12/03/2014  11:20:00      -91.742      -99.218        0.406       56.599       62.627       30.353     3203.470     3922.117      921.284        1.315        0.402      135.133       33.986        0.063      336.505        7.851      855.417
12/03/2014  11:21:00     -164.986      -96.740      -14.417       49.184       48.555       27.119     2419.072     2357.558      735.440        2.115        0.276      191.256       22.128        0.013      336.424        7.715      855.435
12/03/2014  11:22:00      -96.060      -70.266       11.860       74.647       64.325       34.324     5572.120     4137.693     1178.113        1.259        0.544      119.016       38.228        0.103      336.523        7.882      855.461
12/03/2014  11:23:00     -118.416     -100.665       -8.825       59.031       53.681       23.729     3484.680     2881.651      563.045        1.558        0.346      155.421       15.581        0.010      336.459        7.774      855.463
12/03/2014  11:24:00      -77.293      -53.032       -7.379       54.199       55.434       30.425     2937.584     3072.884      925.688        0.789        0.347       93.737       19.352        0.043      336.518        7.874      855.427
12/03/2014  11:25:00      -91.625     -105.232       -1.234       81.898       51.239       35.044     6707.263     2625.479     1228.111        1.501        0.528      139.531       38.019        0.074      336.496        7.837      855.396
12/03/2014  11:26:00      -69.203      -88.749        0.436       37.833       50.633       22.524     1431.312     2563.694      507.330        0.858        0.225      112.540       14.768        0.017      336.529        7.892      855.403
12/03/2014  11:27:00      -49.781      -78.405        2.580       47.410       39.110       24.311     2247.739     1529.623      591.007        0.650        0.218       92.874       17.643        0.036      336.515        7.868      855.409
12/03/2014  11:28:00      -24.219      -74.300       -1.334       22.143       50.096       19.915      490.333     2509.613      396.595        0.475        0.170       78.148       13.902        0.032      336.486        7.821      855.389
12/03/2014  11:29:00      -35.909     -156.894       -2.408       48.599       21.336       21.061     2361.839      455.213      443.554        1.459        0.163      160.951       18.883        0.014      336.331        7.561      855.406
12/03/2014  11:30:00      -57.831      -74.876        1.473       37.940       57.168       24.087     1439.406     3268.187      580.179        0.712        0.264       94.609       18.296        0.037      336.431        7.728      855.419
12/03/2014  11:31:00      -96.690     -108.287       -7.444       49.462       33.276       23.227     2446.462     1107.290      539.492        1.261        0.205      145.173       23.028        0.025      336.361        7.612      855.420
12/03/2014  11:32:00     -117.998      -55.148       -7.621       33.378       23.480       17.434     1114.087      551.315      303.958        0.950        0.098      130.249       16.858        0.017      336.338        7.572      855.405
12/03/2014  11:33:00      -77.163      -61.344       -1.641       45.877       39.566       22.840     2104.661     1565.501      521.682        0.696        0.210       98.576       20.752        0.044      336.441        7.744      855.432
12/03/2014  11:34:00      -76.144      -53.561        6.866       39.323       27.751       27.201     1546.263      770.136      739.911        0.588        0.153       93.095       18.450        0.039      336.492        7.831      855.425
12/03/2014  11:35:00      -45.624      -35.868        0.650       29.806       28.793       21.551      888.388      829.064      464.457        0.277        0.109       58.035       18.807        0.105      336.562        7.948      855.394
12/03/2014  11:36:00      -10.025      -11.951       -3.003       19.647       25.490       18.146      385.991      649.717      329.263        0.081        0.068       15.598       14.399        0.852      336.572        7.965      855.358
12/03/2014  11:37:00      -16.359      -27.228       10.025       29.778       26.668       18.579      886.717      711.204      345.168        0.153        0.097       31.765       13.612        0.184      336.688        8.158      855.296
12/03/2014  11:38:00      -64.769      -72.203        1.618       43.850       51.096       21.908     1922.813     2610.844      479.967        0.721        0.251       96.996       29.015        0.089      336.601        8.012      855.267
12/03/2014  11:39:00     -108.515     -107.939      -12.056       31.200       35.008       28.202      973.468     1225.529      795.336        1.328        0.150      153.056       21.139        0.019      336.401        7.678      855.274
12/03/2014  11:40:00      -94.976      -37.187      -13.859       17.922       30.053       15.247      321.212      903.181      232.483        0.603        0.073      101.997        5.840        0.003      336.391        7.662      855.238
12/03/2014  11:41:00      -38.272      -14.470       -3.574       29.366        9.777       14.873      862.343       95.581      221.194        0.143        0.059       40.916       18.401        0.202      336.463        7.784      855.162
12/03/2014  11:42:00      -20.542       -5.689       -2.168       17.181       12.229        7.182      295.195      149.554       51.584        0.048        0.025       21.316        6.838        0.103      336.565        7.953      855.100
12/03/2014  11:43:00      -28.446       -8.191       -7.760       23.434        9.913       15.568      549.172       98.274      242.358        0.091        0.044       29.602       16.020        0.293      336.480        7.811      855.083
12/03/2014  11:44:00      -55.149      -15.489       -3.336       22.872       20.520       15.766      523.126      421.071      248.563        0.224        0.060       57.283       10.035        0.031      336.611        8.029      855.062
12/03/2014  11:45:00      -58.138       -9.178        4.093       39.209       29.520       22.207     1537.359      871.426      493.154        0.319        0.145       58.858       20.686        0.124      336.730        8.228      855.060
12/03/2014  11:46:00      -94.947      -55.947        0.903       53.386       30.300       20.360     2850.035      918.095      414.530        0.816        0.209      110.204       18.600        0.028      336.703        8.184      855.062
12/03/2014  11:47:00     -139.914      -24.988        3.073       48.440       34.205       21.593     2346.419     1170.009      466.258        1.210        0.199      142.128       20.587        0.021      336.522        7.882      855.030
12/03/2014  11:48:00     -119.619       -7.851       -5.543       24.735       21.921       13.656      611.798      480.533      186.492        0.784        0.064      119.876        9.003        0.006      336.367        7.621      855.015
12/03/2014  11:49:00     -164.760      -22.869       -9.052       38.440       39.737       23.084     1477.618     1579.024      532.884        1.567        0.179      166.339       17.555        0.011      336.497        7.839      855.017
12/03/2014  11:50:00      -85.523      -22.910        8.428       58.133       40.411       28.310     3379.434     1633.026      801.442        0.686        0.291       88.539       30.059        0.115      336.672        8.132      855.005
12/03/2014  11:51:00      -91.133      -75.439       -7.333       50.160       44.212       29.329     2515.976     1954.724      860.199        0.969        0.267      118.306       15.383        0.017      336.534        7.901      854.972
12/03/2014  11:52:00      -75.758      -71.502        3.437       64.011       46.311       27.654     4097.368     2144.748      764.754        0.893        0.350      104.172       23.568        0.051      336.605        8.021      854.974
12/03/2014  11:53:00      -98.872      -90.617       -0.145       52.505       42.178       26.919     2756.747     1778.988      724.632        1.162        0.263      134.116       20.113        0.022      336.632        8.066      854.973
12/03/2014  11:54:00      -91.412      -98.266       -6.459       57.459       49.047       27.856     3301.515     2405.617      775.963        1.227        0.324      134.210       27.341        0.042      336.596        8.004      854.949
12/03/2014  11:55:00      -83.485      -42.836        0.784       43.304       45.900       23.713     1875.268     2106.817      562.295        0.667        0.227       93.833       25.168        0.072      336.582        7.981      854.946
12/03/2014  11:56:00      -92.787      -65.626       -4.371       42.985       33.235       27.675     1847.693     1104.591      765.896        0.833        0.186      113.650       27.594        0.059      336.587        7.989      854.918
12/03/2014  11:57:00      -79.135      -72.491       -0.911       31.087       33.487       20.089      966.430     1121.392      403.562        0.700        0.125      107.318        9.806        0.008      336.604        8.020      854.850
12/03/2014  11:58:00      -88.111      -51.758      -11.129       25.420       36.656       17.309      646.167     1343.657      299.612        0.643        0.114      102.189       12.073        0.014      336.538        7.906      854.811
12/03/2014  11:59:00      -86.077     -126.682       -4.521       39.848       39.423       28.285     1587.843     1554.141      800.067        1.371        0.197      153.159       26.599        0.030      336.565        7.953      854.805
12/03/2014  12:00:00     -122.956     -122.710      -11.632       31.459       32.734       22.582      989.677     1071.530      509.963        1.644        0.129      173.712       15.266        0.008      336.500        7.842      854.767
12/03/2014  12:01:00      -88.845      -94.011      -10.096       50.158       31.381       28.257     2515.778      984.787      798.480        1.057        0.215      129.350       26.982        0.044      336.569        7.959      854.738
12/03/2014  12:02:00      -50.944      -98.697       -4.837       31.466       36.086       19.595      990.115     1302.200      383.971        0.752        0.134      111.070       15.138        0.019      336.550        7.928      854.748
12/03/2014  12:03:00      -81.016      -75.219       -6.181       34.573       26.002       18.988     1195.272      676.117      360.563        0.725        0.112      110.551       14.559        0.017      336.654        8.102      854.756
12/03/2014  12:04:00      -75.686      -74.143       -1.212       42.168       29.157       21.678     1778.140      850.107      469.920        0.716        0.155      105.950       16.010        0.023      336.672        8.131      854.765
12/03/2014  12:05:00      -80.422      -79.478        9.397       80.507       54.116       26.480     6481.327     2928.489      701.176        1.149        0.506      113.068       33.245        0.086      336.724        8.219      854.737
12/03/2014  12:06:00     -145.922     -101.907       -3.259       64.610       43.857       33.632     4174.443     1923.457     1131.138        1.946        0.361      177.984       35.862        0.041      336.546        7.919      854.698
12/03/2014  12:07:00     -121.115      -34.594       -5.291       34.678       44.591       27.464     1202.592     1988.338      754.269        0.992        0.197      125.959       23.207        0.034      336.608        8.027      854.657
12/03/2014  12:08:00      -98.565       -5.865       -5.690       38.083       49.897       21.299     1450.336     2489.699      453.664        0.709        0.220       98.740        8.891        0.008      336.710        8.194      854.635
12/03/2014  12:09:00     -198.056      -94.415       -3.900       46.423       36.280       28.031     2155.108     1316.204      785.714        2.621        0.213      219.409       23.967        0.012      336.586        7.985      854.668
12/03/2014  12:10:00     -123.804     -116.476       -5.698       55.246       48.190       26.622     3052.169     2322.250      708.728        1.750        0.304      169.982       21.463        0.016      336.622        8.049      854.721
12/03/2014  12:11:00     -148.090     -112.583       -2.723       53.277       36.781       29.954     2838.489     1352.821      897.253        1.985        0.254      186.026       24.061        0.017      336.681        8.145      854.773
12/03/2014  12:12:00     -128.680      -85.280       -3.906       73.868       46.969       34.021     5456.465     2206.102     1157.416        1.633        0.441      154.374       36.466        0.056      336.734        8.234      854.832
12/03/2014  12:13:00     -138.816      -86.089       -0.077       84.577       67.666       41.776     7153.223     4578.705     1745.215        2.008        0.674      163.344       41.809        0.066      336.790        8.328      854.871
12/03/2014  12:14:00     -199.809     -111.715       -7.222       58.358       57.270       33.605     3405.711     3279.846     1129.294        3.013        0.391      228.919       32.520        0.020      336.585        7.983      854.897
12/03/2014  12:15:00      -94.338      -56.180      -11.492       68.902       54.262       18.947     4747.503     2944.409      359.007        1.012        0.403      109.800       26.104        0.057      336.721        8.213      854.902
12/03/2014  12:16:00      -87.789      -63.520       -4.180       39.641       34.579       18.442     1571.409     1195.690      340.109        0.743        0.155      108.359       20.884        0.037      336.671        8.131      854.898
12/03/2014  12:17:00      -80.274      -38.883       -5.971       26.450       29.765       13.419      699.600      885.964      180.067        0.488        0.088       89.195       10.924        0.015      336.749        8.261      854.880
12/03/2014  12:18:00     -152.686      -33.369        8.092       78.075       69.271       39.531     6095.780     4798.484     1562.724        1.847        0.623      156.290       33.082        0.045      336.804        8.350      854.865
12/03/2014  12:19:00     -183.282      -77.313      -17.699       68.133       53.606       37.465     4642.168     2873.586     1403.654        2.440        0.446      198.921       32.806        0.027      336.754        8.266      854.864
12/03/2014  12:20:00      -86.534      -18.556       17.371       78.471       40.441       33.471     6157.752     1635.513     1120.279        0.852        0.446       88.501       36.275        0.168      336.862        8.449      854.848
12/03/2014  12:21:00      -73.149      -95.829        4.326       57.080       58.581       27.868     3258.117     3431.733      776.605        1.101        0.373      120.557       29.983        0.062      336.847        8.422      854.838
12/03/2014  12:22:00      -90.793      -71.441       -0.741       47.685       37.043       25.860     2273.831     1372.173      668.730        0.883        0.216      115.530       23.146        0.040      336.841        8.412      854.825
12/03/2014  12:23:00      -89.653     -111.303      -12.863       32.288       45.452       26.618     1042.494     2065.842      708.538        1.220        0.191      142.920       15.580        0.012      336.825        8.388      854.833
12/03/2014  12:24:00      -28.908      -88.064        7.268       31.687       60.522       23.971     1004.045     3662.877      574.610        0.694        0.262       92.688       21.653        0.055      336.881        8.480      854.812
12/03/2014  12:25:00      -62.548      -73.451       -1.199       34.773       39.672       18.066     1209.156     1573.900      326.376        0.621        0.155       96.474       13.720        0.020      336.897        8.506      854.752
12/03/2014  12:26:00      -51.552        2.852        6.104       39.271       22.264       20.856     1542.231      495.696      434.968        0.259        0.124       51.630       21.060        0.166      336.939        8.575      854.672
12/03/2014  12:27:00      -76.204        9.232      -11.862       51.516       31.974       23.002     2653.873     1022.328      529.105        0.512        0.210       76.761       11.360        0.022      336.888        8.491      854.588
12/03/2014  12:28:00     -111.203      -50.058       -9.024       39.356       39.497       17.140     1548.923     1559.983      293.778        0.918        0.170      121.951       15.835        0.017      336.919        8.541      854.530
12/03/2014  12:29:00      -57.715      -22.063       -7.636       32.840       15.860       15.564     1078.473      251.531      242.235        0.272        0.079       61.789       15.657        0.064      336.881        8.480      854.476
12/03/2014  12:30:00      -61.034      -41.112        3.065       38.348       25.496       17.537     1470.571      650.045      307.560        0.393        0.121       73.589        8.633        0.014      336.940        8.579      854.448
12/03/2014  12:31:00     -145.679       -3.066      -13.769       33.078       32.125       17.239     1094.178     1032.010      297.169        1.192        0.121      145.711       14.493        0.010      336.879        8.476      854.454
12/03/2014  12:32:00     -129.191       25.188       -7.834       54.021       47.326       26.141     2918.307     2239.704      683.368        1.161        0.292      131.623       20.051        0.023      336.925        8.552      854.432
12/03/2014  12:33:00      -92.915       12.855        0.305       46.469       43.556       22.028     2159.371     1897.130      485.226        0.667        0.227       93.800       22.962        0.060      336.984        8.653      854.335
12/03/2014  12:34:00     -100.167        7.658      -11.402       19.636       42.132       13.910      385.559     1775.112      193.476        0.629        0.118      100.459        8.611        0.007      336.906        8.522      854.248
12/03/2014  12:35:00        7.255      -46.715        5.280       34.621       19.727       21.634     1198.582      389.171      468.017        0.216        0.103       47.275       16.286        0.119      337.010        8.695      854.289
12/03/2014  12:36:00      -62.300      -47.406       -8.853       46.802       29.242       25.393     2190.397      855.076      644.793        0.495        0.185       78.285       28.209        0.130      337.065        8.788      854.425
12/03/2014  12:37:00      -99.916      -43.732      -12.331       35.979       20.770       15.611     1294.503      431.374      243.702        0.701        0.098      109.068       13.226        0.015      336.910        8.526      854.496
12/03/2014  12:38:00      -95.309       -1.829       -9.271       14.065       10.224       11.058      197.836      104.528      122.286        0.480        0.021       95.327        8.142        0.007      336.933        8.566      854.518
12/03/2014  12:39:00      -86.106       19.166       -7.474       24.177       20.562       13.425      584.544      422.815      180.237        0.451        0.059       88.214        6.673        0.006      336.968        8.624      854.559
12/03/2014  12:40:00      -88.533      -46.654      -13.765       30.313       31.186       19.087      918.882      972.558      364.301        0.623        0.113      100.073       13.004        0.017      337.080        8.811      854.612
12/03/2014  12:41:00      -81.634      -53.559        6.030       62.482       49.069       25.074     3904.012     2407.779      628.723        0.825        0.347       97.635       26.868        0.076      337.193        9.001      854.660
12/03/2014  12:42:00     -141.022      -47.325       -0.794       61.893       45.872       23.551     3830.744     2104.260      554.657        1.431        0.324      148.751       28.998        0.038      337.009        8.692      854.702
12/03/2014  12:43:00     -121.220      -47.965       -4.921       47.986       50.297       23.274     2302.660     2529.818      541.678        1.120        0.269      130.364       20.476        0.025      337.099        8.844      854.731
12/03/2014  12:44:00      -72.963      -14.199        6.717       45.051       45.606       22.016     2029.560     2079.880      484.684        0.508        0.230       74.332       22.699        0.093      337.171        8.964      854.741
12/03/2014  12:45:00      -84.186      -36.016        0.064       47.934       47.594       25.819     2297.639     2265.200      666.624        0.681        0.261       91.567       25.444        0.077      337.129        8.894      854.746
12/03/2014  12:46:00     -142.388      -49.656        1.754       46.843       36.871       27.013     2194.232     1359.453      729.703        1.351        0.214      150.798       25.382        0.028      337.054        8.768      854.757
12/03/2014  12:47:00     -141.314      -38.175       -4.853       40.137       28.222       22.247     1610.968      796.496      494.927        1.218        0.145      146.380       21.982        0.023      337.068        8.792      854.756
12/03/2014  12:48:00      -72.437      -46.750       -0.661       47.316       29.734       21.833     2238.787      884.121      476.693        0.552        0.180       86.213       25.008        0.084      337.147        8.925      854.730
12/03/2014  12:49:00     -119.343      -60.474      -11.006       38.546       37.668       22.826     1485.817     1418.888      521.044        1.072        0.171      133.790       15.726        0.014      337.082        8.815      854.682
12/03/2014  12:50:00      -64.089      -48.548       -6.802       35.391       29.247       23.941     1252.506      855.409      573.158        0.460        0.134       80.400       12.672        0.025      337.123        8.881      854.586
12/03/2014  12:51:00       -9.558        4.051        7.984       11.950       16.453       15.155      142.808      270.712      229.670        0.041        0.032       10.381        7.947        0.586      337.250        9.097      854.495
12/03/2014  12:52:00      -10.820       43.817       -1.225       17.323       31.973       18.117      300.102     1022.272      328.229        0.184        0.083       45.133       18.037        0.160      337.272        9.133      854.415
12/03/2014  12:53:00      -29.480       28.727       -7.352       22.425       38.644       12.292      502.861     1493.369      151.085        0.195        0.107       41.162       12.437        0.091      337.257        9.110      854.400
12/03/2014  12:54:00      -34.759       -1.621       -2.006       20.310       32.153       15.770      412.492     1033.825      248.708        0.145        0.085       34.796       10.748        0.095      337.284        9.154      854.410
12/03/2014  12:55:00      -86.372       33.134       -2.138       31.522       48.292       21.975      993.657     2332.118      482.883        0.618        0.190       92.509       15.327        0.027      337.311        9.199      854.413
12/03/2014  12:56:00      -84.713      -61.676        3.521       37.753       35.891       22.965     1425.287     1288.178      527.413        0.712        0.162      104.786       13.739        0.017      337.183        8.984      854.429
12/03/2014  12:57:00     -110.752      -50.023       -4.134       55.758       42.060       29.810     3108.975     1769.056      888.654        1.027        0.288      121.525       33.155        0.074      337.326        9.225      854.427
12/03/2014  12:58:00      -99.231      -61.067        3.722       48.718       41.911       27.012     2373.430     1756.569      729.634        0.922        0.243      116.516       24.187        0.043      337.317        9.210      854.418
12/03/2014  12:59:00      -65.238      -21.164       -0.401       45.439       33.099       22.774     2064.733     1095.535      518.654        0.419        0.184       68.585       13.187        0.037      337.296        9.174      854.394
12/03/2014  13:00:00     -111.802       20.108      -15.383       34.006       24.676       15.539     1156.423      608.881      241.468        0.757        0.100      113.596       10.798        0.009      337.160        8.947      854.387
12/03/2014  13:01:00      -71.764      -22.392       -5.421       48.446       43.058       20.376     2347.002     1853.955      415.174        0.515        0.231       75.176       25.751        0.117      337.124        8.887      854.390
12/03/2014  13:02:00      -57.903      -25.691       -3.419       34.641       19.838       14.447     1200.005      393.560      208.718        0.291        0.090       63.347       14.359        0.051      337.171        8.965      854.397
12/03/2014  13:03:00      -65.781       -3.711       -2.802       16.722       29.089       13.005      279.635      846.144      169.141        0.282        0.065       65.886        8.945        0.018      337.173        8.969      854.383
12/03/2014  13:04:00      -58.598      -17.660       -6.034       13.002       13.268       14.519      169.062      176.039      210.804        0.217        0.028       61.201        8.685        0.020      337.181        8.982      854.391
12/03/2014  13:05:00      -31.807      -36.439        0.990       20.735       16.006       12.220      429.955      256.197      149.323        0.159        0.042       48.368       10.005        0.043      337.265        9.123      854.388
12/03/2014  13:06:00      -81.531      -44.419       -1.643       29.910       20.807       17.959      894.633      432.933      322.537        0.514        0.083       92.845       10.184        0.012      337.263        9.120      854.378
12/03/2014  13:07:00      -87.188      -59.645       -1.255       42.045       32.146       16.637     1767.794     1033.382      276.806        0.712        0.154      105.638       13.316        0.016      337.277        9.143      854.397
12/03/2014  13:08:00      -54.418      -36.072        7.307       36.508       28.594       24.847     1332.804      817.608      617.353        0.354        0.138       65.288       19.560        0.090      337.315        9.205      854.419
12/03/2014  13:09:00      -75.338      -46.865        5.958       59.774       39.244       25.965     3572.931     1540.124      674.187        0.685        0.289       88.725       27.567        0.097      337.318        9.211      854.448
12/03/2014  13:10:00     -114.598      -77.045       -5.922       64.488       39.740       30.096     4158.679     1579.297      905.755        1.287        0.332      138.090       26.702        0.037      337.253        9.102      854.429
12/03/2014  13:11:00     -137.206      -44.065        4.616       69.517       41.302       27.361     4832.642     1705.877      748.628        1.404        0.364      144.109       36.106        0.063      337.226        9.056      854.421
12/03/2014  13:12:00     -129.431      -52.262        8.847       94.853       57.239       31.705     8997.141     3276.342     1005.219        1.642        0.664      139.585       42.240        0.092      337.302        9.183      854.420
12/03/2014  13:13:00      -92.164      -26.003       -0.680       52.958       43.007       28.799     2804.548     1849.624      829.384        0.733        0.274       95.762       27.942        0.085      337.356        9.275      854.399
12/03/2014  13:14:00     -103.298       26.116       -3.620       48.947       44.819       29.502     2395.807     2008.734      870.369        0.832        0.264      106.548       29.471        0.077      337.313        9.203      854.362
12/03/2014  13:15:00     -124.750       -7.790       -2.795       64.607       38.297       29.778     4174.062     1466.649      886.730        1.108        0.326      124.993       31.620        0.064      337.262        9.119      854.313
12/03/2014  13:16:00     -217.520      -22.705      -17.555       69.023       46.046       26.414     4764.202     2120.245      697.719        2.786        0.379      218.701       31.327        0.021      337.207        9.022      854.270
12/03/2014  13:17:00     -150.174     -100.903        2.401       66.160       59.579       34.300     4377.203     3549.690     1176.461        2.092        0.455      180.925       31.070        0.029      337.227        9.058      854.271
12/03/2014  13:18:00     -135.160      -63.074       -3.099       55.474       43.407       29.907     3077.343     1884.136      894.399        1.405        0.293      149.153       29.810        0.040      337.219        9.045      854.272
12/03/2014  13:19:00     -116.849      -39.280        4.785       38.534       36.278       23.178     1484.879     1316.098      537.222        0.928        0.167      123.275       20.277        0.027      337.306        9.191      854.237
12/03/2014  13:20:00     -129.957      -57.624       -6.300       44.037       36.915       21.084     1939.282     1362.694      444.555        1.200        0.187      142.159       22.706        0.026      337.272        9.135      854.200
12/03/2014  13:21:00     -132.179      -78.157       -4.518       26.891       26.968       20.169      723.126      727.282      406.776        1.273        0.093      153.558       12.930        0.007      337.257        9.108      854.160
12/03/2014  13:22:00      -83.000      -55.392      -13.054       36.401       38.559       13.613     1325.032     1486.797      185.304        0.656        0.150       99.787       12.079        0.015      337.333        9.237      854.110
12/03/2014  13:23:00      -74.831       33.063       -4.912       64.940       42.338       25.766     4217.257     1792.470      663.862        0.669        0.334       81.810       26.805        0.107      337.405        9.355      854.046
12/03/2014  13:24:00     -114.061       21.498       -9.650       39.664       30.172       18.907     1573.231      910.367      357.457        0.820        0.142      116.069       16.845        0.021      337.344        9.255      853.978
12/03/2014  13:25:00     -117.336       -1.838      -12.584       41.439       31.208       20.711     1717.212      973.938      428.958        0.852        0.156      117.351       25.626        0.048      337.442        9.418      853.928
12/03/2014  13:26:00     -121.212       15.266      -10.379       39.247       31.209       17.500     1540.349      974.003      306.255        0.893        0.141      122.169       11.639        0.009      337.511        9.535      853.875
12/03/2014  13:27:00      -92.464       22.795      -13.873       43.582       37.916       24.446     1899.393     1437.611      597.602        0.660        0.197       95.233       20.203        0.045      337.633        9.739      853.840
12/03/2014  13:28:00     -115.775       36.341      -15.957       39.189       26.265       17.063     1535.762      689.843      291.162        0.875        0.126      121.345       14.662        0.015      337.498        9.512      853.819
12/03/2014  13:29:00      -30.393       20.963        0.919       35.475       27.725       19.977     1258.492      768.701      399.097        0.189        0.121       36.922       27.003        0.535      337.753        9.942      853.818
12/03/2014  13:30:00      -11.848       20.321        4.412       26.516       18.562       16.507      703.097      344.548      272.469        0.095        0.066       23.523       14.461        0.378      337.667        9.796      853.807
12/03/2014  13:31:00      -42.595        3.153       -2.887       38.395       39.215       24.349     1474.171     1537.815      592.867        0.272        0.180       42.711       14.143        0.110      337.593        9.672      853.806
12/03/2014  13:32:00      -77.825      -47.743        3.998       42.776       36.206       22.231     1829.757     1310.845      494.196        0.599        0.182       91.303       14.684        0.026      337.483        9.488      853.819
12/03/2014  13:33:00      -48.259       -5.892        5.003       31.616       22.608       20.708      999.551      511.131      428.805        0.216        0.097       48.618       20.234        0.173      337.571        9.634      853.804
12/03/2014  13:34:00      -74.341      -47.680       -3.149       27.293       30.105       16.677      744.927      906.311      278.122        0.487        0.096       88.317       11.596        0.017      337.429        9.396      853.786
12/03/2014  13:35:00      -31.348      -49.389        0.925       15.712       18.987       17.295      246.872      360.520      299.129        0.216        0.045       58.498       10.035        0.029      337.494        9.505      853.788
12/03/2014  13:36:00      -38.692      -21.143       11.296       31.067       19.490       18.163      965.142      379.860      329.895        0.187        0.084       44.092       19.371        0.193      337.596        9.678      853.788
12/03/2014  13:37:00      -44.224      -30.376       -0.539       25.694       16.133       12.548      660.175      260.285      157.454        0.198        0.054       53.651       10.627        0.039      337.523        9.552      853.784
12/03/2014  13:38:00      -93.381      -27.351       -7.484       29.379       28.145       19.875      863.112      792.155      394.997        0.579        0.103       97.304       19.982        0.042      337.531        9.568      853.783
12/03/2014  13:39:00      -57.666      -33.720        1.538       28.229       25.312       16.716      796.874      640.692      279.426        0.309        0.086       66.801       14.363        0.046      337.612        9.704      853.765
12/03/2014  13:40:00     -123.315      -40.614       -2.015       28.186       27.389       18.893      794.448      750.176      356.927        0.938        0.095      129.831       14.594        0.013      337.429        9.396      853.754
12/03/2014  13:41:00      -92.632      -61.495       -4.170       36.918       24.941       18.773     1362.907      622.068      352.441        0.736        0.117      111.185        8.824        0.006      337.469        9.463      853.745
12/03/2014  13:42:00      -93.501      -24.691        0.161       40.640       28.362       20.870     1651.599      804.378      435.576        0.612        0.145       96.706       23.956        0.061      337.464        9.455      853.755
12/03/2014  13:43:00      -14.764      -36.609       20.528       69.243       30.538       29.969     4794.563      932.569      898.152        0.430        0.331       39.474       31.908        0.653      337.589        9.665      853.737
12/03/2014  13:44:00     -126.668      -51.388       -2.996       71.689       57.486       30.672     5139.320     3304.681      940.754        1.404        0.469      136.695       40.306        0.087      337.482        9.486      853.708
12/03/2014  13:45:00      -86.739      -57.667       -0.974       52.750       47.706       27.557     2782.519     2275.827      759.391        0.833        0.291      104.159       22.127        0.045      337.501        9.516      853.655
12/03/2014  13:46:00      -34.076      -35.634        8.489       50.972       43.689       29.957     2598.156     1908.769      897.438        0.395        0.270       49.305       26.227        0.283      337.611        9.701      853.604
12/03/2014  13:47:00     -102.841      -17.344       -0.290       45.428       30.701       20.701     2063.677      942.569      428.534        0.716        0.172      104.293       17.492        0.028      337.533        9.571      853.573
12/03/2014  13:48:00     -120.244      -47.583        2.014       66.760       39.659       28.482     4456.896     1572.811      811.208        1.178        0.342      129.317       34.392        0.071      337.537        9.577      853.525
12/03/2014  13:49:00      -76.428      -68.785       -3.563       27.962       35.017       17.501      781.851     1226.160      306.293        0.645        0.116      102.824       13.732        0.018      337.467        9.461      853.500
12/03/2014  13:50:00      -70.617      -72.311      -14.781       18.501       15.498       13.701      342.295      240.197      187.706        0.560        0.039      101.072        6.296        0.004      337.420        9.380      853.491
12/03/2014  13:51:00      -82.746       -9.659      -12.512       31.954       16.876       16.874     1021.069      284.789      284.723        0.434        0.080       83.308       10.856        0.017      337.443        9.419      853.514
12/03/2014  13:52:00      -74.339      -30.428        4.261       49.221       27.616       22.487     2422.693      762.616      505.658        0.508        0.185       80.326       19.421        0.058      337.526        9.560      853.521
12/03/2014  13:53:00     -108.672      -72.452       -2.957       54.594       35.519       24.330     2980.524     1261.571      591.930        1.095        0.242      130.610       28.373        0.047      337.522        9.553      853.523
12/03/2014  13:54:00     -128.970      -64.623      -12.624       27.778       34.437       17.796      771.599     1185.893      316.687        1.162        0.114      144.255       15.178        0.011      337.468        9.460      853.517
12/03/2014  13:55:00     -129.013      -27.423      -17.585       30.613       17.088       15.386      937.165      292.009      236.731        0.959        0.073      131.895       16.971        0.017      337.460        9.447      853.502
12/03/2014  13:56:00      -41.280      -49.266       10.749       40.714       31.615       23.371     1657.600      999.515      546.215        0.372        0.160       64.274       23.303        0.131      337.562        9.618      853.479
12/03/2014  13:57:00      -25.007      -43.876        7.126       31.570       31.124       19.605      996.651      968.694      384.369        0.247        0.117       50.502       18.257        0.131      337.611        9.704      853.519
12/03/2014  13:58:00      -29.546      -26.857        8.379       41.728       31.107       25.599     1741.235      967.668      655.291        0.251        0.168       39.929       30.639        0.589      337.656        9.776      853.565
12/03/2014  13:59:00      -48.077      -29.423        8.413       53.281       42.910       21.189     2838.879     1841.285      448.969        0.419        0.256       56.366       27.837        0.244      337.712        9.871      853.591
12/03/2014  14:00:00     -147.184      -63.883       -7.578       34.197       27.839       18.606     1169.427      774.998      346.195        1.405        0.115      160.450       21.859        0.019      337.583        9.656      853.619
12/03/2014  14:01:00     -135.054      -79.966       -9.251       65.379       55.131       23.112     4274.386     3039.376      534.186        1.628        0.392      156.953       31.386        0.040      337.592        9.669      853.646
12/03/2014  14:02:00     -171.877      -97.144        0.911       73.019       60.356       36.421     5331.829     3642.884     1326.489        2.464        0.515      197.430       40.032        0.041      337.576        9.641      853.669
12/03/2014  14:03:00     -100.365      -70.313        8.171       56.345       52.444       29.985     3174.800     2750.422      899.071        1.095        0.341      122.544       29.643        0.059      337.624        9.723      853.673
12/03/2014  14:04:00      -81.169      -57.205       -3.350       32.907       39.395       21.995     1082.873     1551.967      483.786        0.649        0.156       99.302       19.370        0.038      337.666        9.795      853.669
12/03/2014  14:05:00     -116.388      -54.107      -13.710       46.469       34.449       18.383     2159.387     1186.716      337.947        1.017        0.184      128.350       10.280        0.006      337.668        9.798      853.689
12/03/2014  14:06:00     -119.541      -69.758       -0.267       73.996       40.206       31.895     5475.421     1616.560     1017.310        1.363        0.405      138.407       38.908        0.079      337.674        9.808      853.726
12/03/2014  14:07:00     -146.005     -101.691       -9.028       53.349       35.925       29.760     2846.098     1290.621      885.685        1.838        0.251      177.928       30.758        0.030      337.637        9.744      853.735
12/03/2014  14:08:00     -154.390      -95.067       -3.752       53.902       44.443       34.540     2905.384     1975.213     1193.033        1.948        0.304      181.312       29.162        0.026      337.573        9.637      853.728
12/03/2014  14:09:00      -97.824      -65.648      -11.050       27.075       29.621       22.116      733.059      877.390      489.127        0.805        0.105      117.810       13.537        0.013      337.619        9.715      853.753
12/03/2014  14:10:00      -43.099      -60.429        2.088       40.424       43.103       25.534     1634.088     1857.851      651.987        0.483        0.207       74.224       23.018        0.096      337.662        9.788      853.797
12/03/2014  14:11:00     -124.815      -96.805       -6.450       54.742       54.583       29.563     2996.649     2979.271      873.961        1.592        0.342      157.955       26.420        0.028      337.631        9.735      853.827
12/03/2014  14:12:00     -132.505      -97.609       -3.680       57.830       34.237       26.473     3344.315     1172.200      700.800        1.616        0.261      164.575       25.789        0.025      337.556        9.609      853.847
12/03/2014  14:13:00     -129.308      -73.165        4.668       48.629       31.902       25.247     2364.778     1017.711      637.434        1.306        0.201      148.572       22.142        0.022      337.587        9.662      853.840
12/03/2014  14:14:00     -160.145     -101.718       -1.969       53.890       34.265       31.416     2904.126     1174.088      986.993        2.053        0.253      189.718       28.452        0.022      337.551        9.599      853.820
12/03/2014  14:15:00     -196.229     -117.533       -4.890       64.033       42.856       34.072     4100.207     1836.642     1160.876        2.972        0.355      228.735       26.985        0.014      337.526        9.555      853.846
12/03/2014  14:16:00     -196.588      -78.859       -5.773       75.008       42.544       32.758     5626.214     1810.007     1073.060        2.670        0.425      211.814       32.500        0.024      337.563        9.616      853.899
12/03/2014  14:17:00     -147.360      -95.087       -9.934       66.870       46.423       27.250     4471.625     2155.118      742.580        1.911        0.368      175.375       25.968        0.022      337.609        9.698      853.927
12/03/2014  14:18:00      -88.123      -37.935        6.645       54.880       71.689       33.782     3011.831     5139.373     1141.219        0.927        0.465       95.941       29.262        0.093      337.634        9.740      853.945
12/03/2014  14:19:00     -188.701      -45.907       -2.406      105.274       65.373       38.787    11082.575     4273.632     1504.451        2.729        0.843      194.205       47.968        0.061      337.607        9.692      853.963
12/03/2014  14:20:00     -177.999      -80.341       -6.199       92.342       88.376       34.587     8527.042     7810.239     1196.241        2.785        0.877      195.290       36.712        0.035      337.641        9.750      853.951
12/03/2014  14:21:00     -145.097     -150.845       -3.814       64.334       48.401       35.809     4138.901     2342.691     1282.283        2.579        0.388      209.302       35.129        0.028      337.608        9.693      853.927
12/03/2014  14:22:00     -133.223      -63.156       -7.451       42.038       32.498       27.326     1767.198     1056.122      746.714        1.268        0.179      147.435       20.634        0.020      337.625        9.726      853.902
12/03/2014  14:23:00      -75.883      -58.310       -2.810       52.967       64.735       25.921     2805.495     4190.624      671.903        0.842        0.383       95.698       28.651        0.090      337.697        9.845      853.875
12/03/2014  14:24:00      -73.446      -67.662       -0.472       63.051       51.274       30.615     3975.487     2629.017      937.266        0.876        0.377       99.862       30.302        0.092      337.712        9.869      853.888
12/03/2014  14:25:00     -127.578      -99.422        2.226       71.090       50.937       34.371     5053.722     2594.618     1181.333        1.750        0.441      161.743       32.182        0.040      337.696        9.842      853.926
12/03/2014  14:26:00     -158.337     -134.184       -2.487       81.728       46.335       40.943     6679.539     2146.957     1676.332        2.679        0.525      207.548       48.170        0.054      337.619        9.712      853.967
12/03/2014  14:27:00      -96.403      -37.183        7.311       67.335       59.543       37.781     4534.034     3545.327     1427.410        1.012        0.475      103.326       37.495        0.132      337.686        9.828      854.008
12/03/2014  14:28:00     -118.584      -67.347       -3.590       41.693       32.894       21.392     1738.339     1081.989      457.600        1.094        0.164      136.374       19.729        0.021      337.666        9.795      854.004
12/03/2014  14:29:00     -137.714      -73.086       -9.808       29.746       31.528       17.610      884.842      994.017      310.113        1.330        0.109      155.906       14.768        0.009      337.641        9.751      853.967
12/03/2014  14:30:00      -67.695      -90.148        0.671       44.672       35.434       27.305     1995.613     1255.589      745.579        0.835        0.200      112.736       25.653        0.052      337.676        9.812      853.972
12/03/2014  14:31:00      -86.286      -34.973       -2.995       54.005       42.900       23.104     2916.516     1840.449      533.816        0.698        0.265       93.105       26.365        0.080      337.723        9.889      853.931
12/03/2014  14:32:00       20.602       28.218       10.561       14.607       17.209       15.799      213.375      296.136      249.594        0.105        0.038       34.939        6.954        0.040      337.791       10.004      853.864
12/03/2014  14:33:00      -43.471        2.444       -2.079       44.375       23.852        7.662     1969.110      568.915       58.706        0.225        0.130       43.539        6.363        0.021      337.786        9.996      853.784
12/03/2014  14:34:00      -84.047       56.636      -14.825       27.099       38.301       18.836      734.348     1466.980      354.799        0.652        0.128      101.349       13.271        0.017      337.844       10.092      853.612
12/03/2014  14:35:00     -102.081      194.135      -26.418       35.530       73.526       35.588     1262.411     5406.003     1266.525        2.837        0.397      219.337       17.025        0.006      338.073       10.474      853.512
12/03/2014  14:36:00      -72.835       65.680      -22.311       38.103       63.102       35.049     1451.806     3981.877     1228.412        0.839        0.333       98.076       30.381        0.096      338.150       10.605      853.431
12/03/2014  14:37:00       53.429       55.514        6.502       41.822       38.670       34.258     1749.039     1495.356     1173.578        0.520        0.221       77.048       26.543        0.119      338.063       10.461      853.335
12/03/2014  14:38:00       76.795       31.747       23.935       32.969       44.447       32.936     1086.964     1975.548     1084.788        0.581        0.207       83.098       21.609        0.068      338.054       10.446      853.258
12/03/2014  14:39:00       73.411       71.724       65.960       49.524       42.964       40.319     2452.585     1845.863     1625.586        1.040        0.296      102.633       23.026        0.050      338.104       10.529      853.204
12/03/2014  14:40:00      114.772      -26.045       51.644      109.068      138.281       89.090    11895.824    19121.690     7937.023        2.773        1.948      117.690      100.497        0.729      338.183       10.659      853.168
12/03/2014  14:41:00       19.588      -35.558       46.103       45.248       97.322       49.952     2047.416     9471.595     2495.201        0.889        0.701       40.596       50.690        1.559      338.192       10.676      853.184
12/03/2014  14:42:00       35.229      -91.079       -0.604       65.288       53.461       37.266     4262.478     2858.096     1388.721        0.902        0.425       97.655       23.851        0.060      338.267       10.802      853.178
12/03/2014  14:43:00       23.982      -16.269       39.190       46.056      109.593       38.579     2121.141    12010.718     1488.340        0.899        0.781       28.979       31.058        1.149      338.315       10.883      853.142
12/03/2014  14:44:00      -78.116      -22.514        4.896       54.063       56.121       26.427     2922.763     3149.604      698.380        0.670        0.339       81.296       24.628        0.092      338.303       10.863      853.130
12/03/2014  14:45:00      -10.130      -70.710       -8.298       62.097       48.778       27.514     3856.005     2379.264      757.004        0.608        0.350       71.432       18.016        0.064      338.409       11.041      853.143
12/03/2014  14:46:00      -38.976      -73.478       -6.388       47.883       61.201       32.048     2292.748     3745.603     1027.048        0.701        0.353       83.175       17.537        0.044      338.378       10.989      853.184
12/03/2014  14:47:00        5.007      -16.997        7.412       19.755       16.645       14.417      390.274      277.073      207.841        0.062        0.044       17.719       10.758        0.369      338.333       10.914      853.176
12/03/2014  14:48:00      -56.097       18.896        1.809       58.623       39.492       26.158     3436.616     1559.631      684.233        0.459        0.284       59.194       33.330        0.317      338.252       10.777      853.120
12/03/2014  14:49:00      -42.812      -21.176       -0.351       57.160       52.318       32.497     3267.264     2737.199     1056.068        0.467        0.353       47.763       21.635        0.205      338.314       10.881      853.078
12/03/2014  14:50:00     -121.835      -76.107       11.097      116.629       98.898       53.201    13602.394     9780.861     2830.334        2.348        1.311      143.653       58.204        0.164      338.434       11.081      853.116
12/03/2014  14:51:00     -160.232     -131.518      -10.914       99.424       96.753       52.886     9885.082     9361.086     2796.969        3.256        1.102      207.296       38.159        0.034      338.580       11.326      853.160
12/03/2014  14:52:00     -194.670      -69.184       -7.544       85.983       85.442       50.974     7393.049     7300.255     2598.338        3.001        0.865      206.598       53.316        0.067      338.695       11.517      853.099
12/03/2014  14:53:00     -152.903      -69.966       -5.259       83.389       72.149       43.105     6953.684     5205.446     1858.018        2.116        0.701      168.150       34.067        0.041      338.624       11.399      853.087
12/03/2014  14:54:00     -191.157       -2.199        0.944       95.245       58.130       47.934     9071.528     3379.116     2297.659        2.564        0.737      191.170       49.558        0.067      338.509       11.206      853.140
12/03/2014  14:55:00     -181.137      -63.720        1.590       83.641       50.134       32.159     6995.736     2513.422     1034.179        2.371        0.527      192.018       29.725        0.024      338.476       11.151      853.161
12/03/2014  14:56:00     -218.679      -30.842       -7.479       73.336       64.089       38.236     5378.160     4107.358     1461.986        2.989        0.547      220.843       15.305        0.005      338.343       10.927      853.089
12/03/2014  14:57:00     -124.836       30.839       -4.653      109.682       60.266       40.506    12030.155     3632.028     1640.710        1.693        0.865      128.589       50.150        0.152      338.374       10.981      853.018
12/03/2014  14:58:00     -201.744      -43.539      -14.511       72.857       74.147       35.899     5308.173     5497.704     1288.719        2.745        0.605      206.388       29.748        0.021      338.392       11.010      853.099
12/03/2014  14:59:00     -152.137     -163.121      -10.830      110.630       57.674       50.314    12239.017     3326.320     2531.514        3.398        0.905      223.056       47.948        0.046      338.429       11.071      853.182
12/03/2014  15:00:00        6.833     -103.160        2.174       23.719       34.365       21.924      562.575     1180.932      480.643        0.646        0.111      103.386       13.106        0.016      338.448       11.104      853.230
12/03/2014  15:01:00      -40.928      -89.940      -10.703       51.878       24.765       20.193     2691.319      613.305      407.771        0.679        0.186       98.814        9.658        0.010      338.509       11.210      853.267
12/03/2014  15:02:00     -229.975     -124.274      -17.045       64.010       60.699       35.408     4097.264     3684.407     1253.714        3.883        0.452      261.405       18.470        0.005      338.456       11.117      853.320
12/03/2014  15:03:00     -139.222       58.610       -4.547       87.945       79.097       41.421     7734.323     6256.287     1715.696        1.927        0.785      151.056       37.521        0.062      338.528       11.240      853.242
12/03/2014  15:04:00     -126.910        0.368      -12.727       76.295       80.549       43.855     5820.917     6488.077     1923.237        1.525        0.712      126.911       27.108        0.046      338.581       11.329      853.177
12/03/2014  15:05:00       43.444      -79.816       35.232      110.387       65.832       55.872    12185.288     4333.836     3121.658        1.457        0.982       90.874       38.318        0.178      338.593       11.349      853.345
12/03/2014  15:06:00      -98.235     -179.399      -11.498       68.718       59.884       38.649     4722.181     3586.123     1493.776        2.588        0.490      204.534       37.066        0.033      338.527       11.236      853.530
12/03/2014  15:07:00     -117.915      -59.894      -14.621       53.731       83.420       27.559     2887.046     6958.935      759.475        1.415        0.530      132.255       34.802        0.069      338.511       11.214      853.591
12/03/2014  15:08:00      -15.685       47.745       38.113       69.069       38.491       52.160     4770.458     1481.594     2720.706        0.647        0.449       50.255       34.129        0.461      338.608       11.376      853.580
12/03/2014  15:09:00        3.878      -19.930       14.568       47.929       60.505       36.351     2297.162     3660.897     1321.391        0.395        0.364       20.304       39.059        3.701      338.763       11.636      853.594
12/03/2014  15:10:00     -114.386     -198.414      -15.473       73.418      116.951       53.044     5390.198    13677.617     2813.661        3.728        1.094      229.025       38.300        0.028      338.892       11.850      853.559
12/03/2014  15:11:00     -172.377       38.975      -13.246       90.151       70.988       47.220     8127.117     5039.231     2229.704        2.340        0.770      176.728       35.400        0.040      338.889       11.845      853.487
12/03/2014  15:12:00      -44.923       52.785       12.022       44.626       39.514       34.792     1991.521     1561.388     1210.472        0.486        0.238       69.314       17.557        0.064      338.919       11.899      853.478
12/03/2014  15:13:00       56.831       85.769        4.867       77.511       75.372       49.856     6007.963     5681.007     2485.648        1.239        0.709      102.889       34.351        0.111      338.888       11.846      853.489
12/03/2014  15:14:00     -105.521      -28.997        9.471       61.804       60.624       30.203     3819.795     3675.289      912.236        1.023        0.420      109.433       28.474        0.068      338.885       11.839      853.549
12/03/2014  15:15:00        2.434       14.557       24.238       50.598       40.736       29.969     2560.188     1659.459      898.139        0.296        0.256       14.759       31.416        4.531      338.838       11.762      853.574
12/03/2014  15:16:00       -8.739      -69.930        2.557       44.717       93.646       44.634     1999.611     8769.659     1992.201        0.886        0.638       70.474       51.200        0.528      338.918       11.897      853.594
12/03/2014  15:17:00       44.145      -96.245        0.223       53.680       61.905       37.320     2881.490     3832.280     1392.815        0.966        0.405      105.886       34.103        0.104      338.911       11.885      853.635
12/03/2014  15:18:00       80.837       64.841       39.934      100.714       97.728       67.453    10143.219     9550.725     4549.865        1.828        1.212      103.629       77.763        0.563      338.947       11.942      853.583
12/03/2014  15:19:00      -25.979      -12.233        4.915       50.319       54.432       41.665     2532.012     2962.793     1735.945        0.404        0.362       28.716       34.149        1.414      339.066       12.145      853.581
12/03/2014  15:20:00       38.158       35.984       18.823       42.852       55.217       38.808     1836.330     3048.954     1506.072        0.475        0.320       52.449       33.137        0.399      339.022       12.071      853.565
12/03/2014  15:21:00       57.703      -11.807       43.792       69.694       84.144       48.954     4857.285     7080.263     2396.479        0.986        0.717       58.899       38.052        0.417      339.054       12.124      853.540
12/03/2014  15:22:00       84.958     -154.842       21.047      107.886      140.910       76.838    11639.342    19855.676     5904.086        3.451        1.870      176.618       76.080        0.186      339.121       12.236      853.580
12/03/2014  15:23:00       89.146      -38.949      123.314      141.948      208.241      115.633    20149.320    43364.521    13370.983        5.076        3.844       97.283      133.656        1.888      339.172       12.320      853.575
12/03/2014  15:24:00      121.269     -141.536       28.862      130.299      166.203       86.631    16977.783    27623.561     7504.920        4.383        2.605      186.383       84.411        0.205      339.079       12.163      853.644
12/03/2014  15:25:00      109.524       -3.963      132.644      143.958      241.662      132.755    20723.771    58400.532    17623.786        6.316        4.837      109.595      177.424        2.621      339.337       12.598      853.572
12/03/2014  15:26:00      155.310      -35.529       81.182      131.542      185.009      110.704    17303.381    34228.455    12255.275        4.787        3.189      159.322      133.382        0.701      339.329       12.583      853.505
12/03/2014  15:27:00      138.832      -25.149      111.810      128.533      168.645      128.207    16520.613    28441.029    16436.949        4.689        3.070      141.092      133.579        0.896      339.315       12.561      853.397
12/03/2014  15:28:00      298.209     -326.168      -38.634      126.803      158.933       74.789    16079.087    25259.764     5593.437       12.186        2.347      441.943       53.813        0.015      339.330       12.587      853.346
12/03/2014  15:29:00       63.374      108.073      206.121      188.206      208.281      130.369    35421.579    43381.039    16996.067        7.697        4.790      125.284      152.716        1.486      339.278       12.499      853.389
12/03/2014  15:30:00       73.545     -118.154       54.602      112.724      191.418       95.623    12706.662    36640.971     9143.785        4.041        2.925      139.174      113.766        0.668      339.258       12.466      853.408
12/03/2014  15:31:00      141.206       11.969      153.646      179.298      195.083      126.377    32147.657    38057.235    15971.058        6.492        4.309      141.713      134.592        0.902      339.199       12.365      853.358
12/03/2014  15:32:00       47.739     -138.309      101.840      155.641      241.782      110.385    24224.048    58458.486    12184.775        6.330        4.743      146.316      133.076        0.827      339.186       12.346      853.356
12/03/2014  15:33:00       62.996      -24.240      119.618      143.862      198.925      110.705    20696.350    39570.998    12255.674        4.568        3.626       67.499      129.627        3.688      339.205       12.376      853.366
12/03/2014  15:34:00      250.909     -206.616       41.547      231.083      306.269      213.205    53399.486    93800.925    45456.399       14.998        9.633      325.031      254.509        0.613      339.174       12.323      853.320
12/03/2014  15:35:00      129.046     -190.892       34.530      133.708      184.775      123.428    17877.913    34141.906    15234.583        6.076        3.363      230.419      119.902        0.271      339.198       12.365      853.410
12/03/2014  15:36:00      175.137     -273.643      -17.425      152.879      141.084       67.324    23372.012    19904.832     4532.478        7.682        2.390      324.890       45.871        0.020      339.216       12.395      853.604
12/03/2014  15:37:00      -61.636     -122.117       -0.074       88.326       84.338       46.041     7801.502     7112.955     2119.809        1.787        0.852      136.790       31.828        0.054      339.221       12.406      853.729
12/03/2014  15:38:00       23.117     -114.364       33.833      119.435      169.926      110.686    14264.621    28874.980    12251.331        3.506        2.770      116.677       85.335        0.535      339.164       12.308      853.831
12/03/2014  15:39:00       61.346     -238.446        1.269      101.752      131.261       74.215    10353.542    17229.547     5507.794        4.685        1.655      246.211       62.947        0.065      339.185       12.344      853.900
12/03/2014  15:40:00      124.002     -154.300        2.381       97.770       74.189       68.515     9559.038     5504.038     4694.267        2.947        0.988      197.952       39.321        0.039      339.160       12.300      853.968
12/03/2014  15:41:00      155.191     -197.225       14.584      143.993      238.447      111.540    20733.986    56857.074    12441.189        7.660        4.502      250.963      141.779        0.319      339.116       12.226      853.949
12/03/2014  15:42:00      179.841     -203.439       15.959      155.077      184.620      102.399    24048.790    34084.457    10485.503        7.129        3.431      271.533      116.758        0.185      339.081       12.168      853.856
12/03/2014  15:43:00       47.805     -109.047       16.889      123.720       99.714       55.577    15306.746     9942.862     3088.809        2.139        1.417      119.065       57.118        0.230      339.149       12.284      853.865
12/03/2014  15:44:00       24.976     -221.831       -0.407      160.722      121.319       74.580    25831.602    14718.354     5562.158        4.796        2.306      223.233       68.641        0.095      339.138       12.263      853.897
12/03/2014  15:45:00     -147.678     -329.765       15.868      133.385      159.279       72.975    17791.565    25369.845     5325.300        8.964        2.424      361.322       51.421        0.020      339.155       12.291      854.028
12/03/2014  15:46:00       -3.804     -204.713       27.119      123.424      138.380       73.188    15233.569    19149.034     5356.479        4.119        1.987      204.748       68.348        0.111      339.122       12.237      854.145
12/03/2014  15:47:00      -12.217     -195.965      -11.469      118.285      135.208       77.406    13991.404    18281.077     5991.703        3.847        1.913      196.346       62.485        0.101      339.117       12.228      854.231
12/03/2014  15:48:00      -18.463     -300.521       -4.090      164.321      198.656       80.170    27001.405    39464.148     6427.306        8.177        3.645      301.088       70.400        0.055      339.018       12.061      854.325
12/03/2014  15:49:00     -250.271     -142.084       10.969      166.459      134.893       76.916    27708.743    18196.062     5916.077        6.737        2.591      287.790       74.401        0.067      338.872       11.815      854.439
12/03/2014  15:50:00     -311.443     -265.762       -2.419      189.741      179.421       90.478    36001.773    32191.798     8186.311       12.199        3.819      409.422       88.054        0.046      338.713       11.547      854.558
12/03/2014  15:51:00     -339.496     -240.213      -21.861      156.832      109.092       71.356    24596.211    11900.998     5091.642       10.750        2.079      415.884       70.429        0.029      338.663       11.462      854.564
12/03/2014  15:52:00     -107.663     -152.880       12.071      139.092      111.739       57.393    19346.621    12485.584     3293.923        3.511        1.756      186.986       57.908        0.096      338.720       11.559      854.473
12/03/2014  15:53:00      -71.843     -168.377       -4.129       89.175      123.878       54.240     7952.242    15345.762     2941.945        2.988        1.312      183.064       58.556        0.102      338.808       11.709      854.420
12/03/2014  15:54:00     -165.448      -98.476       -5.771       94.193       84.528       41.675     8872.236     7145.005     1736.815        2.743        0.888      192.538       51.116        0.070      338.704       11.534      854.418
12/03/2014  15:55:00     -195.780      -66.087      -14.366       76.175       50.055       43.198     5802.610     2505.478     1866.081        2.654        0.509      206.634       48.175        0.054      338.638       11.423      854.307
12/03/2014  15:56:00     -244.800      -88.586       -6.232      161.958      149.133       79.405    26230.398    22240.685     6305.146        6.128        2.739      260.336       87.334        0.113      338.607       11.371      854.211
12/03/2014  15:57:00     -186.841     -149.042       -2.183      161.212      115.776       65.273    25989.337    13403.993     4260.575        5.038        2.183      239.004       76.559        0.103      338.528       11.238      854.198
12/03/2014  15:58:00      -50.310      -55.029       16.910       84.946       67.021       51.815     7215.809     4491.793     2684.843        1.012        0.720       74.561       51.241        0.472      338.433       11.081      854.127
12/03/2014  15:59:00     -190.017       29.842      -15.634       72.917       69.422       33.564     5316.875     4819.468     1126.552        2.425        0.563      192.346       22.912        0.014      338.314       10.879      854.079
12/03/2014  16:00:00     -164.017      -58.832        0.845      108.945       76.046       45.038    11869.031     5783.000     2028.433        2.502        0.984      174.249       56.651        0.106      338.279       10.821      854.106
12/03/2014  16:01:00     -185.468       -9.470       -5.947       78.149       65.009       41.845     6107.216     4226.193     1751.033        2.330        0.604      185.710       27.729        0.022      338.225       10.730      854.050
12/03/2014  16:02:00     -237.799      -21.362      -15.711       67.464       63.787       38.529     4551.424     4068.796     1484.473        3.368        0.505      238.756       33.753        0.020      338.140       10.587      853.948
12/03/2014  16:03:00     -238.888       22.089      -24.011      100.746       82.724       56.574    10149.830     6843.263     3200.651        3.916        1.010      239.907       58.964        0.060      338.131       10.570      853.787
12/03/2014  16:04:00     -361.537     -116.910      -32.903      125.937      125.561       52.823    15860.141    15765.536     2790.243        8.993        1.721      379.970       48.900        0.017      338.096       10.512      853.622
12/03/2014  16:05:00     -184.566      -58.900      -10.635       88.885       77.263       56.918     7900.502     5969.521     3239.675        2.737        0.855      193.737       44.994        0.054      338.029       10.400      853.570
12/03/2014  16:06:00      -91.198      -36.115        0.088       74.752       61.078       41.184     5587.803     3730.561     1696.088        1.032        0.551       98.089       31.272        0.102      338.011       10.373      853.539
12/03/2014  16:07:00      -60.499      -24.277       -1.577       65.758       40.337       23.224     4324.058     1627.034      539.349        0.537        0.325       65.188       18.481        0.080      337.994       10.343      853.520
12/03/2014  16:08:00      -59.806      -45.034       -0.878       62.756       48.395       33.265     3938.326     2342.064     1106.547        0.649        0.369       74.865       28.536        0.145      338.089       10.504      853.516
12/03/2014  16:09:00      -55.601        6.369       -7.411       74.220       28.697       37.357     5508.627      823.538     1395.545        0.546        0.386       55.964       32.619        0.340      338.059       10.453      853.538
12/03/2014  16:10:00      -51.580      -48.683       -3.790       62.731       42.048       39.120     3935.143     1768.070     1530.399        0.614        0.362       70.926       30.594        0.186      338.063       10.462      853.591
12/03/2014  16:11:00     -123.505      -37.719       -1.361       80.845       52.954       34.679     6535.897     2804.176     1202.628        1.361        0.527      129.137       39.945        0.096      338.072       10.473      853.620
12/03/2014  16:12:00      -85.137      -57.138        2.446       52.977       31.022       22.747     2806.510      962.352      517.410        0.740        0.214      102.533       24.281        0.056      338.089       10.504      853.595
12/03/2014  16:13:00     -124.507      -92.938      -10.680       58.611       41.933       30.962     3435.280     1758.392      958.657        1.520        0.308      155.369       29.361        0.036      338.151       10.607      853.536
12/03/2014  16:14:00     -159.058      -75.308      -11.966       70.403       45.651       25.054     4956.562     2084.017      627.716        1.939        0.383      175.985       24.560        0.019      338.161       10.624      853.490
12/03/2014  16:15:00     -261.018      -71.460      -10.411       90.923       76.780       41.045     8267.003     5895.124     1684.690        4.459        0.792      270.623       40.453        0.022      337.973       10.306      853.476
12/03/2014  16:16:00     -136.237      -76.792       13.001      106.782      112.408       45.409    11402.403    12635.549     2061.945        2.536        1.305      156.389       50.487        0.104      337.946       10.262      853.451
12/03/2014  16:17:00     -162.450      -33.047       -7.143       84.237       57.282       34.651     7095.892     3281.188     1200.662        1.955        0.579      165.777       43.405        0.069      337.900       10.185      853.413
12/03/2014  16:18:00     -135.899      -21.587        0.284      104.261       58.106       37.115    10870.428     3376.306     1377.536        1.728        0.781      137.603       48.355        0.123      337.897       10.178      853.369
12/03/2014  16:19:00     -147.473      -47.286        1.116       75.045       39.681       29.238     5631.708     1574.571      854.875        1.602        0.403      154.869       31.878        0.042      337.951       10.271      853.444
12/03/2014  16:20:00     -188.731      -78.955      -10.782       90.465       51.178       38.023     8183.968     2619.162     1445.742        2.711        0.612      204.581       43.330        0.045      337.982       10.323      853.589
12/03/2014  16:21:00      -98.824      -90.051       -8.508       70.838       71.282       45.458     5018.069     5081.161     2066.391        1.505        0.608      133.698       45.613        0.116      337.981       10.323      853.650
12/03/2014  16:22:00     -108.965      -77.139      -12.697      106.711       79.372       44.107    11387.217     6299.843     1945.455        1.880        0.982      133.506       53.348        0.160      337.949       10.268      853.638
12/03/2014  16:23:00     -115.642      -47.606       -0.667       88.368       65.127       41.819     7808.932     4241.508     1748.863        1.472        0.690      125.058       34.932        0.078      337.958       10.283      853.587
12/03/2014  16:24:00     -250.549       -6.397      -22.671       82.902       57.385       42.144     6872.748     3293.053     1776.087        3.763        0.597      250.631       46.941        0.035      337.964       10.289      853.538
12/03/2014  16:25:00     -195.273      -34.826      -14.182       66.149       52.263       31.064     4375.715     2731.370      964.989        2.381        0.404      198.354       34.672        0.031      337.959       10.284      853.530
12/03/2014  16:26:00     -166.035      -72.516       -7.292       59.317       45.759       29.741     3518.509     2093.875      884.536        1.969        0.325      181.180       26.814        0.022      337.933       10.240      853.593
12/03/2014  16:27:00     -137.119      -63.658        0.925       37.885       33.785       19.374     1435.236     1141.458      375.350        1.290        0.148      151.175       17.366        0.013      337.945       10.263      853.671
12/03/2014  16:28:00      -81.768      -39.203       -2.749       34.469       26.953       13.125     1188.124      726.444      172.260        0.516        0.104       90.680        6.960        0.006      337.953       10.276      853.628
12/03/2014  16:29:00      -69.689        3.206        5.053       44.277       35.932       21.898     1960.462     1291.132      479.510        0.431        0.187       69.763       22.633        0.105      337.984       10.327      853.542
12/03/2014  16:30:00      -94.117       56.251      -22.695       35.825       26.983       14.780     1283.396      728.097      218.444        0.738        0.111      109.646        5.475        0.002      338.110       10.540      853.430
12/03/2014  16:31:00      -65.252       -1.299       -6.336       20.532       48.824       15.359      421.549     2383.788      235.900        0.367        0.152       65.265       18.148        0.077      338.304       10.864      853.374
12/03/2014  16:32:00      -22.066      -35.565        0.008       19.954       14.639       11.265      398.144      214.311      126.902        0.125        0.037       41.855        3.441        0.007      338.316       10.884      853.391
12/03/2014  16:33:00      -12.056      -62.571        1.395       35.016       56.824       28.838     1226.119     3228.975      831.653        0.467        0.264       63.722       28.929        0.206      338.740       11.595      853.447
12/03/2014  16:34:00       78.700      -43.306        9.969       60.704       83.842       37.493     3684.969     7029.494     1405.761        1.014        0.606       89.828       38.191        0.181      338.898       11.862      853.443
12/03/2014  16:35:00       67.983       50.874       45.002      102.614       76.485       46.547    10529.641     5849.928     2166.603        1.389        0.927       84.911       45.713        0.290      338.566       11.305      853.440
12/03/2014  16:36:00       69.799       26.891       20.685       47.849       33.199       28.273     2289.517     1102.163      799.352        0.511        0.210       74.800       23.263        0.097      338.385       11.001      853.431
12/03/2014  16:37:00       58.494       17.040       27.057       35.680       54.071       40.523     1273.031     2923.692     1642.086        0.514        0.292       60.925       38.337        0.396      338.406       11.037      853.371
12/03/2014  16:38:00      133.167        6.312       25.757       72.806       69.462       63.271     5300.778     4824.936     4003.218        1.628        0.706      133.317       45.379        0.116      338.744       11.603      853.368
12/03/2014  16:39:00       33.725       78.266       87.778       53.485       75.916       44.292     2860.667     5763.188     1961.767        1.277        0.529       85.223       40.336        0.224      338.824       11.737      853.419
12/03/2014  16:40:00       83.497      -61.912       12.425       35.445       37.728       30.936     1256.335     1423.383      957.054        0.730        0.182      103.946       17.541        0.028      338.823       11.737      853.512
12/03/2014  16:41:00        7.224       -3.938       14.050       25.277       39.469       19.100      638.944     1557.809      364.793        0.141        0.128        8.228       19.812        5.799      338.702       11.532      853.534
12/03/2014  16:42:00        7.531       16.702       -9.513       28.822       19.284       12.373      830.684      371.870      153.097        0.089        0.068       18.321       10.724        0.343      338.699       11.526      853.493
12/03/2014  16:43:00       35.738       51.000       52.555       29.868       41.189       46.040      892.111     1696.505     2119.705        0.567        0.235       62.275       37.069        0.354      338.651       11.449      853.450
12/03/2014  16:44:00       49.273      111.416      110.551       72.176       50.685       47.114     5209.411     2568.928     2219.691        1.853        0.500      121.825       37.698        0.096      338.509       11.208      853.442
12/03/2014  16:45:00       90.888       75.998       40.037       74.182       54.247       38.365     5502.899     2942.732     1471.908        1.278        0.496      118.475       39.912        0.113      338.306       10.867      853.470
12/03/2014  16:46:00       23.808      -75.802        4.617       88.796       76.279       30.456     7884.785     5818.531      927.559        1.048        0.732       79.453       19.131        0.058      338.759       11.628      853.448
12/03/2014  16:47:00       19.924      -29.402       56.130       56.155       66.006       42.411     3153.354     4356.808     1798.656        0.686        0.465       35.517       43.055        1.470      338.691       11.514      853.429
12/03/2014  16:48:00       59.544     -100.691       39.902       77.246      148.985       69.950     5966.939    22196.568     4892.992        2.416        1.653      116.979       88.173        0.568      338.538       11.256      853.455
12/03/2014  16:49:00       65.865       78.932       92.618       76.507      121.265       76.586     5853.307    14705.312     5865.388        2.278        1.321      102.803       83.258        0.656      338.414       11.048      853.518
12/03/2014  16:50:00       46.487     -188.543       -0.541       96.637      112.910       65.942     9338.775    12748.725     4348.342        3.207        1.322      194.189       65.681        0.114      338.726       11.571      853.532
12/03/2014  16:51:00       80.497     -105.522       13.554      142.216      122.766       69.684    20225.456    15071.458     4855.838        2.897        2.008      132.720       72.507        0.298      338.875       11.823      853.483
12/03/2014  16:52:00       85.895     -103.186       -1.926       69.912      123.239       46.899     4887.724    15187.952     2199.561        2.015        1.114      134.259       62.029        0.213      338.907       11.877      853.434
12/03/2014  16:53:00      147.759     -215.117       19.160      136.027      228.712      110.012    18503.404    52309.366    12102.567        7.568        4.146      260.975      133.582        0.262      338.996       12.024      853.384
12/03/2014  16:54:00      192.920     -313.215      -41.343      135.607      175.279       90.937    18389.274    30722.766     8269.526        9.719        2.869      367.861       78.483        0.046      339.115       12.225      853.376
12/03/2014  16:55:00       93.477     -111.692       48.281       91.514      145.242       82.968     8374.894    21095.154     6883.627        2.994        1.818      145.647       98.615        0.458      339.188       12.349      853.410
12/03/2014  16:56:00      -62.848      -87.925        9.478       76.323       50.318       31.921     5825.189     2531.872     1018.970        1.057        0.469      108.077       29.844        0.076      339.054       12.125      853.493
12/03/2014  16:57:00      -34.410     -114.726        5.612      101.687      128.663       54.383    10340.302    16554.094     2957.519        2.211        1.493      119.775       34.158        0.081      339.002       12.034      853.494
12/03/2014  16:58:00       93.760     -137.037       21.812      109.290      166.396       62.565    11944.256    27687.620     3914.375        3.579        2.177      166.043       86.120        0.269      339.115       12.226      853.470
12/03/2014  16:59:00      167.296     -164.558       41.959      140.737      220.974      108.087    19806.791    48829.570    11682.883        6.856        4.016      234.664      122.734        0.274      339.181       12.335      853.398
12/03/2014  17:00:00      128.647      -58.548       80.333      139.626      179.906      108.040    19495.464    32366.087    11672.690        4.497        3.177      141.344      111.693        0.624      339.207       12.380      853.353
12/03/2014  17:01:00      216.186     -165.428       38.106      180.737      245.604      131.461    32665.820    60321.410    17281.880        9.289        5.513      272.218      159.892        0.345      339.186       12.343      853.336
12/03/2014  17:02:00       98.898      -75.150       94.861      119.490      193.937      109.940    14277.892    37611.612    12086.907        4.419        3.199      124.211      114.905        0.856      339.177       12.329      853.341
12/03/2014  17:03:00      149.499     -135.273       23.726       93.585      130.864       70.771     8758.184    17125.469     5008.602        3.605        1.545      201.616       81.305        0.163      339.170       12.316      853.385
12/03/2014  17:04:00       76.588      -19.257       80.980      106.071      104.272       69.972    11251.133    10872.561     4896.039        1.990        1.351       78.972       63.181        0.640      339.150       12.284      853.404
12/03/2014  17:05:00      125.684     -102.706       34.849      143.152      103.767       65.864    20492.593    10767.573     4338.125        3.157        1.780      162.311       74.286        0.209      339.162       12.305      853.432
12/03/2014  17:06:00       57.174      -56.701       67.577       88.018      149.138      114.271     7747.104    22242.139    13057.797        2.704        2.152       80.522      105.410        1.714      339.137       12.262      853.436
12/03/2014  17:07:00       98.384       28.628      133.940      148.894      161.578      126.421    22169.482    26107.551    15982.345        4.634        3.213      102.464      115.911        1.280      339.176       12.327      853.449
12/03/2014  17:08:00       62.142      -20.333      119.951      138.028      164.115      129.475    19051.625    26933.789    16763.877        4.069        3.137       65.384      108.280        2.743      339.199       12.366      853.428
12/03/2014  17:09:00       47.187       40.507      176.889      126.121      167.467      117.889    15906.593    28045.062    13897.872        4.649        2.892       62.189      110.826        3.176      339.182       12.339      853.454
12/03/2014  17:10:00      155.476      -52.922      148.635      193.305      217.411      145.837    37366.650    47267.539    21268.569        7.746        5.295      164.236      162.591        0.980      339.240       12.436      853.449
12/03/2014  17:11:00      118.355      -83.801       97.273      191.749      235.203      161.741    36767.506    55320.230    26160.081        7.435        5.912      145.019      172.573        1.416      339.220       12.401      853.507
12/03/2014  17:12:00      111.522     -209.327       91.065      178.625      329.192      181.072    31906.788   108367.450    32787.101       11.877        8.653      237.182      224.809        0.898      339.311       12.555      853.551
12/03/2014  17:13:00       65.757      -68.266       98.337       99.923      112.084       91.250     9984.685    12562.930     8326.502        2.476        1.544       94.786       66.414        0.491      339.231       12.423      853.606
12/03/2014  17:14:00       79.071        0.654       87.473      111.542      122.234       75.776    12441.587    14941.165     5742.051        2.351        1.656       79.074       81.624        1.066      339.193       12.357      853.634
12/03/2014  17:15:00        0.911       -4.030      102.194      109.938      129.412       90.604    12086.388    16747.342     8209.161        2.374        1.852        4.132       79.365      368.966      339.141       12.268      853.673
12/03/2014  17:16:00       54.852       19.102       80.821       76.425      104.921       86.654     5840.761    11008.502     7508.921        1.713        1.218       58.083       81.788        1.983      339.194       12.360      853.700
12/03/2014  17:17:00      179.267     -212.846       33.490      183.829      250.825      165.432    33792.968    62913.351    27367.840       10.129        6.204      278.280      175.546        0.398      339.211       12.387      853.620
12/03/2014  17:18:00       40.493      -20.477      117.181      112.182      201.460      131.942    12584.724    40586.150    17408.634        4.317        3.529       45.376      148.485       10.708      339.203       12.373      853.727
12/03/2014  17:19:00       65.397        7.014      170.144      135.078      177.050      132.980    18246.022    31346.642    17683.715        5.026        3.364       65.772      135.937        4.272      339.192       12.355      853.751
12/03/2014  17:20:00       80.203     -183.751       19.763      108.674      149.310       78.539    11810.136    22293.615     6168.378        4.042        2.014      200.492       85.571        0.182      339.221       12.403      853.819
12/03/2014  17:21:00      122.733     -119.683       32.890      112.224      136.650       90.579    12594.245    18673.107     8204.599        3.496        1.974      171.428       86.276        0.253      339.207       12.380      853.832
12/03/2014  17:22:00      134.593     -169.992       68.405      134.894      231.713      114.235    18196.510    53690.961    13049.560        6.830        4.247      216.824      131.798        0.369      339.232       12.422      853.828
12/03/2014  17:23:00       39.261        9.183      141.222      136.253      188.373      121.751    18564.800    35484.443    14823.292        4.521        3.444       40.321      138.691       11.831      339.148       12.281      853.842
12/03/2014  17:24:00      125.531     -155.870       38.900      109.728      153.926       93.293    12040.186    23693.204     8703.539        4.299        2.222      200.134       96.335        0.232      339.221       12.402      853.791
12/03/2014  17:25:00       79.913      -35.588       87.458      123.480      178.920      122.514    15247.204    32012.285    15009.742        3.877        3.113       87.479      144.160        2.716      339.192       12.354      853.767
12/03/2014  17:26:00      197.892     -233.083        3.706      135.895      151.819       83.576    18467.541    23048.959     6984.907        7.099        2.425      305.759       82.218        0.072      339.178       12.331      853.783
12/03/2014  17:27:00      222.834     -107.116       74.500      199.060      238.176      154.765    39624.880    56727.627    23952.109        9.347        6.015      247.242      169.415        0.470      339.125       12.241      853.745
12/03/2014  17:28:00       78.944       53.405      135.629      124.081      161.300      132.459    15396.015    26017.574    17545.499        4.321        2.948       95.311      129.530        1.847      339.088       12.179      853.724
12/03/2014  17:29:00      140.222      -62.654      117.178      167.605      277.994      187.084    28091.424    77280.640    35000.501        8.882        7.019      153.583      204.875        1.779      339.102       12.203      853.616
12/03/2014  17:30:00      156.559     -161.404       66.264      210.320      285.854      136.516    44234.387    81712.231    18636.562        9.974        7.229      224.859      180.415        0.644      339.127       12.245      853.628
12/03/2014  17:31:00       74.822      -79.470       90.669      136.079      183.514      121.980    18517.426    33677.332    14879.009        4.359        3.354      109.150      133.652        1.499      339.144       12.274      853.606
12/03/2014  17:32:00      234.926     -216.408       40.361      170.618      301.614      160.849    29110.611    90970.973    25872.283       12.477        7.298      319.410      197.415        0.382      339.176       12.328      853.569
12/03/2014  17:33:00      301.135     -301.655      -31.410      172.096      218.010      101.147    29616.937    47528.281    10230.718       13.500        4.369      426.237      104.641        0.060      339.133       12.254      853.561
12/03/2014  17:34:00      437.745     -376.215      -13.017      239.002      245.494      147.064    57121.771    60267.477    21627.690       23.614        6.951      577.199      166.990        0.084      339.140       12.266      853.598
12/03/2014  17:35:00      201.674      -93.841      151.919      233.931      320.579      196.153    54723.529   102771.124    38476.009       13.423        9.799      222.437      215.661        0.940      339.134       12.256      853.651
12/03/2014  17:36:00       89.008      -60.770      156.984      252.165      284.150      168.682    63587.081    80741.010    28453.724       10.449        8.639      107.775      201.531        3.497      339.129       12.248      853.719
12/03/2014  17:37:00      139.501     -191.153       45.074      162.288      213.965      121.545    26337.512    45781.175    14773.259        7.244        4.345      236.643      129.895        0.301      339.141       12.269      853.800
12/03/2014  17:38:00       51.765      -26.408      129.436      119.488      172.300      112.474    14277.406    29687.120    12650.410        3.836        2.831       58.112      128.767        4.910      339.127       12.244      853.836
12/03/2014  17:39:00      198.089     -211.085       11.880      117.632      100.889       85.735    13837.311    10178.507     7350.456        5.765        1.568      289.476       66.820        0.053      339.181       12.335      853.850
12/03/2014  17:40:00       14.486       14.320      100.931       72.881      128.042       89.481     5311.673    16394.795     8006.771        2.015        1.486       20.369       91.277       20.081      339.112       12.221      853.879
12/03/2014  17:41:00      173.120     -217.862       11.049      162.220      239.667      111.118    26315.470    57440.291    12347.189        8.681        4.805      278.271      146.017        0.275      339.109       12.216      853.944
12/03/2014  17:42:00      191.192     -289.353      -15.454      178.567      218.299      119.667    31886.163    47654.579    14320.243       10.717        4.693      346.813      116.853        0.114      339.133       12.254      853.979
12/03/2014  17:43:00      237.052     -246.715        6.593      135.418      168.141       86.502    18338.092    28271.291     7482.523        8.559        2.705      342.143       96.686        0.080      339.194       12.358      853.996
12/03/2014  17:44:00       20.780      -97.091       62.010      142.176      192.172      101.064    20213.944    36930.121    10213.837        4.052        3.368       99.290      117.499        1.400      339.143       12.272      853.961
12/03/2014  17:45:00      125.951      -74.161       87.411      166.606      189.425      122.753    27757.436    35881.816    15068.195        5.384        3.935      146.163      142.256        0.947      339.097       12.195      853.944
12/03/2014  17:46:00      147.174     -264.159       49.210      178.614      304.391      168.171    31902.877    92654.159    28281.539       12.332        7.642      302.391      203.646        0.454      339.119       12.231      853.877
12/03/2014  17:47:00      152.350     -187.610       46.405      167.088      187.041      111.935    27918.466    34984.291    12529.441        6.798        3.772      241.678      137.267        0.323      339.115       12.225      853.868
12/03/2014  17:48:00      141.684     -164.443       53.401      152.381      207.031      125.959    23220.071    42861.818    15865.644        6.594        4.097      217.062      146.286        0.454      339.104       12.205      853.897
12/03/2014  17:49:00      105.854     -128.374       48.038      177.879      196.986      123.616    31640.871    38803.624    15280.945        5.784        4.286      166.388      128.578        0.597      339.083       12.172      853.933
12/03/2014  17:50:00       48.698     -136.113      -10.385      129.434      126.213       80.975    16753.261    15929.714     6556.900        3.012        1.962      144.562       72.592        0.252      339.070       12.149      854.036
12/03/2014  17:51:00       59.436     -186.300        9.169      119.323      128.927       81.065    14238.065    16622.123     6571.557        3.787        1.872      195.552       78.112        0.160      339.142       12.270      854.114
12/03/2014  17:52:00     -105.243     -184.206       -6.517      118.624       96.099       52.701    14071.617     9235.030     2777.408        3.556        1.304      212.151       21.940        0.011      339.081       12.167      854.187
12/03/2014  17:53:00       31.986     -132.358       -8.236       85.342      109.370       55.131     7283.333    11961.813     3039.397        2.044        1.114      136.169       67.274        0.244      339.123       12.239      854.228
12/03/2014  17:54:00      -33.219      -66.334       -3.128       90.502       87.807       42.643     8190.662     7710.025     1818.404        1.161        0.886       74.187       32.849        0.196      339.054       12.125      854.272
12/03/2014  17:55:00      -11.509      -77.792       14.246       83.205       51.407       43.876     6923.087     2642.651     1925.120        0.894        0.575       78.639       34.741        0.195      339.047       12.112      854.366
12/03/2014  17:56:00     -107.330      -57.950        0.887      156.113       80.279       59.350    24371.124     6444.721     3522.380        2.460        1.717      121.975       67.764        0.309      339.029       12.080      854.426
12/03/2014  17:57:00      -72.516     -272.974      -21.571      117.440      167.367       70.082    13792.215    28011.626     4911.432        6.347        2.336      282.442       62.963        0.050      339.093       12.187      854.494
12/03/2014  17:58:00      -32.349     -246.613      -10.523      106.427      144.164       50.837    11326.738    20783.331     2584.367        4.833        1.735      248.725       46.503        0.035      339.096       12.193      854.516
12/03/2014  17:59:00      -72.119     -157.122        4.205      103.558       97.655       53.529    10724.281     9536.525     2865.326        2.651        1.156      172.883       34.587        0.040      339.049       12.114      854.479
12/03/2014  18:00:00      -76.820      -23.901       -0.173       70.884       44.151       33.979     5024.571     1949.281     1154.576        0.730        0.406       80.452       38.965        0.235      338.871       11.817      854.444
12/03/2014  18:01:00      -22.474      -58.952       -1.283       42.785       39.008       25.329     1830.561     1521.646      641.570        0.399        0.200       63.091       25.471        0.163      338.824       11.737      854.433
12/03/2014  18:02:00      -15.376      -14.981        2.597       25.310       26.207       18.883      640.609      686.813      356.569        0.108        0.084       21.467       19.577        0.832      338.795       11.688      854.385
12/03/2014  18:03:00     -131.175      -76.103       -2.271       76.168       60.130       28.058     5801.562     3615.626      787.228        1.660        0.510      151.653       24.517        0.026      338.700       11.527      854.425
12/03/2014  18:04:00     -232.340      -50.373        7.548      111.517       71.082       47.756    12436.045     5052.651     2280.595        3.817        0.988      237.738       47.288        0.040      338.582       11.329      854.497
12/03/2014  18:05:00     -292.095     -109.189      -19.447      115.377       62.869       40.292    13311.944     3952.518     1623.440        5.825        0.944      311.836       49.202        0.025      338.507       11.202      854.491
12/03/2014  18:06:00     -190.930      -21.304      -23.440       85.325       59.534       37.804     7280.439     3544.317     1429.137        2.485        0.613      192.115       40.700        0.045      338.462       11.127      854.443
12/03/2014  18:07:00     -134.937      -39.937      -17.693       54.665       48.952       28.484     2988.300     2396.338      811.329        1.315        0.310      140.723       29.668        0.044      338.500       11.194      854.343
12/03/2014  18:08:00      -95.895      -18.907      -10.580       40.978       60.540       25.436     1679.223     3665.117      646.988        0.783        0.300       97.741       24.312        0.062      338.506       11.203      854.342
12/03/2014  18:09:00      -97.109       -8.539       18.709      111.083       76.292       44.159    12339.373     5820.520     1950.033        1.498        1.005       97.484       67.558        0.480      338.590       11.343      854.377
12/03/2014  18:10:00     -119.588      -44.757        2.783      105.216       55.177       41.263    11070.325     3044.541     1702.646        1.606        0.791      127.690       39.455        0.095      338.486       11.170      854.552
12/03/2014  18:11:00     -138.032      -93.508        4.722       82.742       53.963       37.095     6846.158     2912.012     1376.037        1.947        0.557      166.723       37.940        0.052      338.533       11.248      854.748
12/03/2014  18:12:00     -158.617     -113.171       -4.000       52.135       50.177       35.461     2718.027     2517.702     1257.458        2.224        0.325      194.851       31.035        0.025      338.547       11.272      854.900
12/03/2014  18:13:00     -107.783      -84.544        7.785       73.998       52.367       35.284     5475.634     2742.300     1244.996        1.414        0.473      136.985       27.501        0.040      338.540       11.260      854.998
12/03/2014  18:14:00     -141.727     -167.910        1.152       64.743       74.326       45.842     4191.625     5524.329     2101.475        3.005        0.591      219.728       36.248        0.027      338.536       11.251      855.053
12/03/2014  18:15:00     -132.694      -86.701      -15.120       41.250       73.231       35.332     1701.580     5362.787     1248.369        1.683        0.416      158.508       31.759        0.040      338.476       11.153      855.000
12/03/2014  18:16:00     -104.234      -86.436       -4.029       49.516       53.497       28.631     2451.798     2861.937      819.752        1.224        0.307      135.411       25.806        0.036      338.505       11.203      854.916
12/03/2014  18:17:00      -41.609      -56.964        9.786       61.623       39.562       28.229     3797.426     1565.180      796.887        0.561        0.308       70.542       11.727        0.028      338.526       11.238      854.911
12/03/2014  18:18:00      -37.453      -37.363       17.927       55.339       42.625       34.442     3062.350     1816.904     1186.268        0.459        0.303       52.903       31.317        0.350      338.559       11.293      854.952
12/03/2014  18:19:00     -132.875     -170.165       -7.371       70.039       95.720       36.256     4905.477     9162.407     1314.514        3.102        0.769      215.898       40.741        0.036      338.623       11.399      854.977
12/03/2014  18:20:00      -98.351     -134.187       -5.564       51.009       43.338       25.230     2601.869     1878.211      636.530        1.641        0.256      166.370       20.608        0.015      338.594       11.351      854.992
12/03/2014  18:21:00     -154.268      -62.665        2.628       46.101       47.138       30.967     2125.261     2221.946      958.942        1.652        0.265      166.509       30.772        0.034      338.578       11.323      854.999
12/03/2014  18:22:00     -154.248      -50.500       -9.846       49.326       41.067       27.956     2433.077     1686.468      781.527        1.567        0.245      162.305       22.514        0.019      338.683       11.500      854.995
12/03/2014  18:23:00     -212.040      -79.753       -9.734       39.710       45.413       29.429     1576.899     2062.345      866.095        2.796        0.225      226.543       24.535        0.012      338.743       11.599      854.985
12/03/2014  18:24:00     -185.644      -48.952      -12.130       35.307       38.253       24.084     1246.612     1463.317      580.048        2.015        0.164      191.990       18.034        0.009      338.710       11.545      854.983
12/03/2014  18:25:00      -99.188      -27.744       -0.042       65.124       33.737       23.133     4241.087     1138.167      535.145        0.826        0.296      102.995       31.748        0.095      338.644       11.435      855.004
12/03/2014  18:26:00     -180.396      -28.629      -13.691       55.253       40.157       24.813     3052.869     1612.581      615.693        1.941        0.264      182.653       26.462        0.021      338.610       11.378      855.009
12/03/2014  18:27:00     -191.582       24.654       -9.700       61.546       56.306       25.424     3787.962     3170.410      646.402        2.250        0.380      193.162       25.139        0.017      338.557       11.289      854.950
12/03/2014  18:28:00     -153.054       75.668       -6.584       67.857       42.053       35.441     4604.578     1768.453     1256.094        1.841        0.381      170.737       28.878        0.029      338.543       11.265      854.872
12/03/2014  18:29:00     -156.245      -10.105      -21.296       45.610       48.660       24.708     2080.238     2367.756      610.473        1.501        0.253      156.572       19.616        0.016      338.849       11.780      854.830
12/03/2014  18:30:00     -148.946      -61.431       -3.016       77.424       42.696       34.389     5994.543     1822.985     1182.597        1.748        0.450      161.117       36.355        0.051      338.641       11.429      854.838
12/03/2014  18:31:00     -140.095      -62.001       -7.526       59.637       50.829       29.868     3556.601     2583.579      892.068        1.528        0.352      153.202       26.115        0.029      338.699       11.527      854.854
12/03/2014  18:32:00     -175.278      -16.501       -2.857      125.874       71.639       48.298    15844.163     5132.215     2332.707        2.715        1.165      176.053       65.706        0.139      338.693       11.515      854.846
12/03/2014  18:33:00     -328.456      -85.998      -14.235      161.756      105.419       55.751    26165.111    11113.252     3108.142        7.793        2.019      339.527       64.974        0.037      338.836       11.756      854.843
12/03/2014  18:34:00     -269.128      -35.632       -3.274       99.529      100.151       52.915     9906.005    10030.179     2800.008        4.822        1.137      271.476       51.748        0.036      338.860       11.794      854.838
12/03/2014  18:35:00     -245.751     -107.552       -0.966      154.386      114.917       62.561    23835.160    13205.869     3913.931        5.645        2.048      268.255       63.454        0.056      338.818       11.724      854.821
12/03/2014  18:36:00     -266.530      -42.663        3.203      139.682       82.488       52.698    19511.183     6804.251     2777.030        5.097        1.455      269.923       59.192        0.048      338.862       11.799      854.768
12/03/2014  18:37:00     -265.413      -95.478       -9.185      125.722       72.051       44.785    15806.123     5191.275     2005.720        5.132        1.150      282.064       59.300        0.044      338.757       11.623      854.726
12/03/2014  18:38:00     -247.938      -32.802       -3.921       93.230       80.967       54.647     8691.763     6555.596     2986.241        4.040        0.912      250.098       48.072        0.037      338.807       11.706      854.684
12/03/2014  18:39:00     -207.640      -28.525       -5.201       82.846       56.856       43.563     6863.477     3232.606     1897.713        2.797        0.600      209.590       44.138        0.044      338.815       11.720      854.652
12/03/2014  18:40:00     -250.070      -97.389        1.582       75.436       62.638       35.099     5690.526     3923.577     1231.913        4.143        0.542      268.365       34.151        0.016      338.789       11.674      854.669
12/03/2014  18:41:00     -243.994      -98.945        7.199      134.461       82.230       60.480    18079.805     6761.791     3657.826        4.893        1.425      263.293       61.103        0.054      338.676       11.487      854.754
12/03/2014  18:42:00     -237.769     -118.563        3.464      121.074      116.337       76.001    14658.851    13534.329     5776.140        5.228        1.698      265.690       73.582        0.077      338.549       11.272      854.894
12/03/2014  18:43:00     -191.918     -127.494       18.642      169.186      114.470       76.606    28623.743    13103.452     5868.488        5.051        2.380      230.407       97.365        0.179      338.439       11.088      855.008
12/03/2014  18:44:00     -230.165      -65.361       -5.685      145.958      122.883       73.232    21303.805    15100.322     5362.928        4.952        2.088      239.265       78.518        0.108      338.354       10.946      855.045
12/03/2014  18:45:00     -262.131      -25.532       -7.519      112.544      116.890       56.175    12666.208    13663.242     3155.585        4.945        1.474      263.371       39.848        0.023      338.272       10.808      854.928
12/03/2014  18:46:00     -232.053      -70.847      -16.181      150.974       87.674       56.168    22793.109     7686.757     3154.834        4.638        1.682      242.627       75.133        0.096      338.257       10.784      854.788
12/03/2014  18:47:00     -136.936      -20.841       -0.641       92.739       74.553       47.777     8600.440     5558.203     2282.629        1.781        0.822      138.513       37.642        0.074      338.204       10.696      854.745
12/03/2014  18:48:00     -253.826      -71.345       -9.812      122.515      103.699       61.049    15009.950    10753.427     3726.935        4.955        1.475      263.662       53.883        0.042      338.158       10.616      854.741
12/03/2014  18:49:00     -199.753      -39.019       -7.130      105.365       99.480       48.280    11101.740     9896.227     2330.955        3.240        1.166      203.528       47.799        0.055      338.137       10.582      854.798
12/03/2014  18:50:00     -132.545      -69.925      -12.753       79.576       73.756       33.068     6332.403     5439.975     1093.483        1.774        0.643      149.859       34.931        0.054      338.140       10.587      854.816
12/03/2014  18:51:00      -94.747      -19.262       -9.995       55.837       69.184       27.113     3117.795     4786.467      735.119        0.904        0.432       96.686       25.454        0.069      338.144       10.596      854.785
12/03/2014  18:52:00     -116.875     -119.968        7.491      104.715       95.884       57.813    10965.208     9193.831     3342.287        2.580        1.175      167.488       46.748        0.078      338.191       10.671      854.780
12/03/2014  18:53:00     -156.409     -119.536        2.326      135.751      101.331       56.414    18428.414    10267.894     3182.506        3.531        1.594      196.857       61.193        0.097      338.183       10.659      854.827
12/03/2014  18:54:00     -240.542      -83.941      -14.232      145.544      107.881       60.617    21183.135    11638.226     3674.382        5.080        1.825      254.767       61.506        0.058      338.252       10.774      854.878
12/03/2014  18:55:00      -83.175     -105.346        0.123      126.379       84.466       55.429    15971.568     7134.587     3072.418        2.209        1.309      134.223       56.179        0.175      338.252       10.776      854.898
12/03/2014  18:56:00     -217.214     -146.013      -11.644      110.727       98.444       55.798    12260.517     9691.292     3113.417        4.685        1.253      261.728       53.239        0.041      338.210       10.703      854.885
12/03/2014  18:57:00     -174.756      -80.657       -0.203       74.962       95.645       46.058     5619.235     9147.967     2121.375        2.696        0.844      192.471       33.469        0.030      338.271       10.807      854.823
12/03/2014  18:58:00      -78.903      -41.230        3.686       80.227       70.109       35.079     6436.340     4915.253     1230.539        1.026        0.629       89.026       34.001        0.146      338.318       10.887      854.783
12/03/2014  18:59:00     -136.621     -109.748      -10.650       66.142       89.286       41.743     4374.753     7972.066     1742.498        2.245        0.704      175.242       35.551        0.041      338.314       10.881      854.807
12/03/2014  19:00:00      -78.834     -117.176       -3.720       56.875       49.677       28.676     3234.754     2467.783      822.330        1.324        0.326      141.227       27.768        0.039      338.319       10.889      854.853
12/03/2014  19:01:00     -173.876     -187.218       -8.992       58.137       80.951       42.197     3379.892     6553.038     1780.612        3.854        0.586      255.506       39.915        0.024      338.285       10.829      854.955
12/03/2014  19:02:00     -166.350     -135.273        3.335       97.822       94.291       50.046     9569.137     8890.846     2504.579        3.347        1.048      214.409       50.284        0.055      338.239       10.753      854.991
12/03/2014  19:03:00     -233.304     -221.927        2.340      126.307      108.976       63.338    15953.474    11875.732     4011.696        6.776        1.592      321.997       54.428        0.029      338.389       11.004      854.980
12/03/2014  19:04:00     -297.937     -206.374      -12.873      172.960      102.410       68.364    29915.018    10487.843     4673.700        8.829        2.254      362.432       81.389        0.050      338.444       11.096      854.911
12/03/2014  19:05:00     -211.939      -80.225      -15.720      102.674       62.813       54.341    10541.951     3945.473     2952.917        3.452        0.872      226.614       47.127        0.043      338.361       10.956      854.815
12/03/2014  19:06:00     -264.550     -128.767       -4.012      115.052       99.697       48.058    13236.937     9939.413     2309.556        5.603        1.274      294.224       43.439        0.022      338.338       10.918      854.716
12/03/2014  19:07:00     -302.060      -85.655       -7.604      107.744       64.360       44.209    11608.804     4142.224     1954.416        5.817        0.885      313.969       48.298        0.024      338.423       11.062      854.712
12/03/2014  19:08:00     -255.898      -77.454        0.034       80.175       81.045       52.929     6428.003     6568.350     2801.463        4.364        0.790      267.363       50.660        0.036      338.366       10.964      854.754
12/03/2014  19:09:00     -190.341      -81.271        9.705      112.469       93.189       53.605    12649.249     8684.231     2873.534        3.356        1.210      206.966       60.670        0.086      338.385       10.997      854.774
12/03/2014  19:10:00     -182.988      -23.260      -13.192       70.576       58.744       37.290     4980.994     3450.899     1390.536        2.201        0.491      184.460       31.524        0.029      338.443       11.096      854.783
12/03/2014  19:11:00     -137.970      -45.561       -1.243       75.123       57.601       35.198     5643.445     3317.903     1238.912        1.565        0.510      145.298       34.097        0.055      338.462       11.128      854.802
12/03/2014  19:12:00     -170.535      -85.289       -4.398       80.738       73.246       39.828     6518.686     5364.996     1586.290        2.492        0.673      190.674       41.062        0.046      338.460       11.123      854.815
12/03/2014  19:13:00     -180.196      -71.824       -0.738      130.860       74.403       50.838    17124.230     5535.837     2584.489        3.143        1.262      193.983       65.975        0.116      338.476       11.151      854.829
12/03/2014  19:14:00     -204.133     -113.895        7.680      132.804       91.983       58.716    17636.926     8460.891     3447.570        4.212        1.477      233.757       65.789        0.079      338.500       11.192      854.821
12/03/2014  19:15:00     -152.660     -108.662        4.473       93.100       78.532       46.217     8667.569     6167.258     2135.981        2.605        0.849      187.383       40.337        0.046      338.476       11.151      854.775
12/03/2014  19:16:00     -147.745     -105.456       -2.044       74.188       57.112       42.363     5503.862     3261.755     1794.591        2.175        0.528      181.520       38.811        0.046      338.481       11.160      854.748
12/03/2014  19:17:00     -117.232     -151.320        4.577       70.666       89.464       43.191     4993.690     8003.823     1865.431        2.576        0.743      191.419       48.384        0.064      338.607       11.371      854.809
12/03/2014  19:18:00     -156.257     -155.879       -5.889       74.876       78.750       41.187     5606.399     6201.490     1696.334        3.112        0.675      220.714       35.873        0.026      338.605       11.368      854.855
12/03/2014  19:19:00     -179.356      -76.009      -11.385       66.587       54.980       32.423     4433.838     3022.753     1051.232        2.329        0.425      194.797       29.463        0.023      338.498       11.187      854.778
12/03/2014  19:20:00     -206.651     -106.473        1.603       80.709       59.081       41.500     6513.948     3490.607     1722.222        3.288        0.586      232.467       46.027        0.039      338.476       11.151      854.671
12/03/2014  19:21:00     -377.622     -113.860       -3.672      146.673      116.166       64.605    21513.015    13494.494     4173.777        9.737        1.959      394.414       69.749        0.031      338.485       11.165      854.650
12/03/2014  19:22:00     -332.819     -131.842      -13.193      141.398      111.115       62.252    19993.284    12346.478     3875.339        8.226        1.811      357.981       61.154        0.029      338.480       11.156      854.745
12/03/2014  19:23:00     -248.502      -35.444      -10.171       98.013       91.891       50.781     9606.595     8443.948     2578.718        4.187        1.031      251.017       50.346        0.040      338.421       11.056      854.840
12/03/2014  19:24:00     -125.420      -44.438       -3.317       81.243      118.884       39.651     6600.506    14133.463     1572.215        2.001        1.115      133.060       34.390        0.067      338.370       10.973      854.829
12/03/2014  19:25:00     -208.009     -109.004       -0.143      113.986      135.454       64.235    12992.855    18347.866     4126.163        4.530        1.773      234.840       57.990        0.061      338.281       10.824      854.822
12/03/2014  19:26:00     -264.071     -100.472       -5.911      132.152      110.558       59.296    17464.094    12223.180     3515.993        5.653        1.660      282.539       57.049        0.041      338.240       10.755      854.857
12/03/2014  19:27:00     -200.942     -173.950        3.545      178.949      123.832       87.190    32022.890    15334.417     7602.135        6.279        2.748      265.775       99.399        0.140      338.211       10.706      854.928
12/03/2014  19:28:00     -275.255     -130.892      -20.826      161.743       80.148       57.528    26160.821     6423.754     3309.425        6.461        1.795      304.792       78.787        0.067      338.222       10.723      854.981
12/03/2014  19:29:00     -181.602     -146.324       -7.029       89.128       76.711       44.091     7943.772     5884.526     1944.042        3.510        0.789      233.216       39.617        0.029      338.254       10.778      854.988
12/03/2014  19:30:00     -106.458      -90.645        3.084       68.305       78.257       38.211     4665.552     6124.136     1460.100        1.590        0.612      139.821       33.962        0.059      338.194       10.678      854.962
12/03/2014  19:31:00     -272.216      -71.924       -9.829      109.013       79.542       52.621    11883.918     6326.976     2768.931        5.017        1.049      281.558       63.985        0.052      338.228       10.734      854.951
12/03/2014  19:32:00     -202.199      -94.694       -1.788       94.622       65.242       47.034     8953.300     4256.531     2212.200        3.264        0.771      223.274       49.092        0.048      338.194       10.675      854.977
12/03/2014  19:33:00     -163.352      -48.828        2.167      132.211       58.676       36.365    17479.768     3442.880     1322.380        2.565        1.112      170.493       46.141        0.073      338.249       10.770      854.961
12/03/2014  19:34:00      -35.894      -38.081        5.376       47.203       46.073       27.339     2228.147     2122.707      747.434        0.393        0.255       52.331       28.677        0.300      338.235       10.749      854.913
12/03/2014  19:35:00      -57.802     -122.052       -4.642       44.602       72.959       22.473     1989.336     5322.954      505.054        1.304        0.391      135.047       30.329        0.050      338.398       11.020      854.948
12/03/2014  19:36:00     -116.878     -125.339       -4.682       84.149       80.307       37.570     7080.986     6449.285     1411.484        2.216        0.747      171.378       38.710        0.051      338.411       11.042      855.132
12/03/2014  19:37:00     -162.348     -118.146       -4.994       67.955       66.909       40.455     4617.901     4476.869     1636.606        2.553        0.537      200.787       35.425        0.031      338.297       10.851      855.303
12/03/2014  19:38:00     -143.106      -34.977       -0.118       83.690       67.662       38.189     7003.985     4578.079     1458.414        1.737        0.652      147.318       42.231        0.082      338.266       10.799      855.287
12/03/2014  19:39:00     -161.912       40.945      -24.949       68.972       48.728       33.130     4757.083     2374.425     1097.625        1.837        0.411      167.009       20.034        0.014      338.337       10.920      855.111
12/03/2014  19:40:00      -79.766       -5.968       -3.084       26.907       43.892       19.757      723.970     1926.519      390.323        0.472        0.152       79.989       10.902        0.019      338.248       10.771      855.027
12/03/2014  19:41:00      -82.931     -125.673      -15.264       62.844       47.141       28.178     3949.402     2222.295      794.025        1.493        0.348      150.570       31.229        0.043      338.268       10.804      855.213
12/03/2014  19:42:00     -106.287      -98.574        5.040       59.726       39.288       35.245     3567.173     1543.518     1242.209        1.369        0.318      144.961       28.967        0.040      338.242       10.760      855.410
12/03/2014  19:43:00     -114.375      -61.091        0.315       60.655       53.410       27.495     3679.068     2852.592      755.961        1.205        0.364      129.668       18.572        0.021      338.205       10.696      855.501
12/03/2014  19:44:00      -69.223      -19.812       -1.197       59.162       49.479       31.435     3500.180     2448.175      988.171        0.606        0.347       72.003       28.683        0.159      338.228       10.737      855.467
12/03/2014  19:45:00       -6.435       42.975       13.553       29.128       21.214       23.397      848.450      450.048      547.413        0.196        0.092       43.454       17.235        0.157      338.174       10.646      855.363
12/03/2014  19:46:00       76.190       59.403       -5.922       46.117       41.923       35.123     2126.790     1757.524     1233.628        0.724        0.256       96.611       22.983        0.057      338.160       10.621      855.247
12/03/2014  19:47:00      141.793       56.373       13.804       83.626       41.502       44.140     6993.339     1722.424     1948.369        1.707        0.533      152.588       24.892        0.027      338.003       10.358      855.062
12/03/2014  19:48:00      149.349       64.337       10.305       72.794       52.015       39.856     5299.030     2705.591     1588.536        1.807        0.480      162.617       21.274        0.017      337.852       10.105      854.927
12/03/2014  19:49:00      166.142       75.435       15.992       64.634       50.398       43.176     4177.602     2539.935     1864.159        2.106        0.429      182.466       29.228        0.026      337.792       10.004      854.861
12/03/2014  19:50:00       49.632       -4.561       30.052       34.991       32.863       24.954     1224.402     1080.009      622.707        0.316        0.146       49.841       15.312        0.094      337.750        9.934      854.934
12/03/2014  19:51:00       40.151      -85.401       13.729       35.343       39.425       25.825     1249.093     1554.368      666.953        0.628        0.174       94.369       21.760        0.053      338.109       10.539      855.114
12/03/2014  19:52:00        8.276      -19.957        2.909       54.995       40.499       27.741     3024.463     1640.148      769.554        0.295        0.272       21.605       13.410        0.385      338.118       10.552      855.181
12/03/2014  19:53:00     -198.103      -84.238       -6.052       53.475       44.407       27.333     2859.598     1972.023      747.094        2.598        0.279      215.269       20.777        0.009      338.228       10.733      855.122
12/03/2014  19:54:00     -105.319      -88.116       -3.860       51.948       50.353       27.913     2698.636     2535.453      779.143        1.244        0.301      137.319       26.721        0.038      338.626       11.404      855.088
12/03/2014  19:55:00     -106.199     -132.139      -10.475       67.133       74.222       43.345     4506.854     5508.940     1878.790        2.037        0.595      169.526       47.404        0.078      338.454       11.115      855.092
12/03/2014  19:56:00      -68.615     -103.393       -8.961       58.875       53.630       24.117     3466.276     2876.164      581.642        1.120        0.346      124.089       26.130        0.044      338.528       11.240      855.055
12/03/2014  19:57:00      -15.840      -38.856        4.142       18.515       26.978       11.418      342.801      727.803      130.371        0.149        0.060       41.961        7.921        0.036      338.505       11.204      854.960
12/03/2014  19:58:00      -18.132      -61.491       -2.588       29.177       30.614       22.899      851.322      937.197      524.349        0.321        0.116       64.109        9.423        0.022      338.487       11.170      854.935
12/03/2014  19:59:00      -58.254      -77.622        8.407       62.659       40.024       32.894     3926.112     1601.953     1082.040        0.805        0.331       97.050       29.238        0.091      338.361       10.959      855.017
12/03/2014  20:00:00     -162.938     -192.817       -9.905       58.183       76.750       41.773     3385.269     5890.584     1744.996        3.742        0.551      252.442       28.389        0.013      338.645       11.434      855.098
12/03/2014  20:01:00     -236.310     -162.003       -6.482       69.258       84.761       48.601     4796.631     7184.396     2362.104        4.823        0.717      286.509       37.012        0.017      338.553       11.279      855.163
12/03/2014  20:02:00     -151.919      -88.530       -5.285       88.421       73.234       43.026     7818.330     5363.149     1851.235        2.299        0.752      175.832       33.681        0.037      338.377       10.984      855.195
12/03/2014  20:03:00     -132.908      -54.052        3.235       75.171       70.632       41.607     5650.702     4988.846     1731.156        1.648        0.619      143.479       39.207        0.075      338.307       10.868      855.175
12/03/2014  20:04:00     -117.010      -80.086       -2.294       73.696       67.575       44.797     5431.143     4566.317     2006.804        1.605        0.600      141.792       40.675        0.082      338.263       10.795      855.162
12/03/2014  20:05:00      -40.306      -30.663        2.677       51.174       58.931       23.855     2618.754     3472.839      569.064        0.461        0.333       50.644       28.488        0.316      338.311       10.877      855.133
12/03/2014  20:06:00       -7.033      -40.222        5.360       52.280       57.924       20.640     2733.215     3355.217      426.011        0.410        0.326       40.832       12.142        0.088      338.374       10.981      855.114
12/03/2014  20:07:00      -46.730      -47.570        9.663       26.772       24.278       20.831      716.744      589.399      433.920        0.314        0.087       66.683       15.007        0.051      338.370       10.976      855.091
12/03/2014  20:08:00      -65.464      -13.933       -0.737       61.662       25.707       18.642     3802.161      660.872      347.523        0.464        0.241       66.930       23.796        0.126      338.331       10.911      855.103
12/03/2014  20:09:00     -134.216      -14.730       -9.569       23.993       41.979       17.951      575.682     1762.268      322.238        1.049        0.133      135.022        9.312        0.005      338.461       11.128      855.088
12/03/2014  20:10:00     -101.379      -52.632       -2.850       44.325       31.401       18.603     1964.676      986.020      346.053        0.818        0.165      114.227        5.886        0.003      338.335       10.917      855.108
12/03/2014  20:11:00     -111.542      -53.274        1.733       28.404       35.004       20.837      806.774     1225.261      434.192        0.887        0.123      123.612       17.404        0.020      338.265       10.800      855.152
12/03/2014  20:12:00     -116.432     -102.747        0.492       68.142       46.491       38.873     4643.361     2161.434     1511.083        1.621        0.416      155.284       41.527        0.072      338.275       10.816      855.203
12/03/2014  20:13:00     -150.971      -86.056        6.697       57.942       50.499       29.812     3357.278     2550.101      888.756        1.852        0.340      173.776       26.923        0.024      338.243       10.760      855.247
12/03/2014  20:14:00     -121.243     -111.914       -4.501       42.419       51.873       26.000     1799.376     2690.805      675.994        1.620        0.258      164.999       20.515        0.015      338.293       10.845      855.301
12/03/2014  20:15:00     -172.437     -122.636       -5.350       62.211       49.884       28.369     3870.156     2488.420      804.801        2.598        0.358      211.599       24.578        0.013      338.314       10.879      855.337
12/03/2014  20:16:00     -243.689     -103.182       -9.936       77.294       54.761       39.030     5974.334     2998.764     1523.330        4.031        0.525      264.633       36.926        0.019      338.258       10.784      855.361
12/03/2014  20:17:00     -253.541      -60.264        3.383      103.726       69.878       43.057    10758.994     4882.997     1853.940        4.271        0.875      260.605       49.184        0.036      338.287       10.834      855.411
12/03/2014  20:18:00     -200.852      -63.396        2.713       75.483       59.830       37.119     5697.685     3579.629     1377.831        2.751        0.533      210.620       38.662        0.034      338.246       10.764      855.442
12/03/2014  20:19:00     -235.609      -73.861      -10.429       77.382       70.197       38.293     5987.959     4927.659     1466.352        3.673        0.619      246.915       41.524        0.028      338.283       10.826      855.420
12/03/2014  20:20:00     -179.455      -40.651       -3.956       90.642       52.374       37.557     8215.921     2742.994     1410.520        2.312        0.618      184.002       42.220        0.053      338.232       10.741      855.351
12/03/2014  20:21:00     -165.376      -35.661       -1.338       56.473       52.673       30.063     3189.144     2774.473      903.814        1.774        0.343      169.177       27.115        0.026      338.242       10.759      855.282
12/03/2014  20:22:00     -239.848      -79.768      -10.093      110.311       58.421       40.052    12168.560     3412.986     1604.141        4.059        0.859      252.764       47.205        0.035      338.314       10.877      855.243
12/03/2014  20:23:00     -163.052      -52.086        3.607       83.049       72.449       39.230     6897.155     5248.835     1538.998        2.150        0.684      171.169       39.559        0.053      338.310       10.872      855.238
12/03/2014  20:24:00     -186.538      -71.927        2.526       68.396       55.451       39.919     4678.038     3074.826     1593.544        2.466        0.467      199.925       44.059        0.049      338.276       10.815      855.270
12/03/2014  20:25:00     -130.012      -53.690       -4.185       93.935       47.892       36.026     8823.734     2293.692     1297.869        1.611        0.621      140.662       36.719        0.068      338.330       10.907      855.341
12/03/2014  20:26:00     -161.772     -118.801        0.191      116.009       85.313       40.711    13457.989     7278.349     1657.347        3.133        1.120      200.708       49.826        0.062      338.380       10.990      855.445
12/03/2014  20:27:00     -212.180     -166.557        2.034      121.441       92.398       66.867    14747.965     8537.344     4471.227        5.026        1.388      269.743       59.460        0.049      338.354       10.947      855.533
12/03/2014  20:28:00     -178.107      -83.082       -3.757       69.861       57.943       40.391     4880.622     3357.340     1631.395        2.425        0.493      196.532       37.394        0.036      338.311       10.874      855.561
12/03/2014  20:29:00     -115.080      -81.521       14.597       90.299       84.333       53.633     8153.886     7111.982     2876.455        1.912        0.907      141.028       57.411        0.166      338.235       10.748      855.547
12/03/2014  20:30:00     -269.467      -88.617       -5.465      139.655      140.048       63.310    19503.491    19613.525     4008.158        6.180        2.156      283.664       67.629        0.057      338.217       10.716      855.450
12/03/2014  20:31:00     -230.503      -62.674       -8.809       95.729       86.547       57.855     9163.981     7490.325     3347.166        3.857        1.000      238.872       56.045        0.055      338.151       10.602      855.337
12/03/2014  20:32:00     -205.767      -29.246       -8.370      137.461       92.331       57.084    18895.596     8525.102     3258.588        3.697        1.534      207.835       58.559        0.079      338.104       10.526      855.211
12/03/2014  20:33:00     -283.097      -66.792      -26.641      100.855      101.112       58.267    10171.641    10223.587     3395.090        5.455        1.190      290.870       60.993        0.044      338.090       10.502      855.114
12/03/2014  20:34:00     -254.719      -76.891        1.654      140.002      108.446       62.625    19600.683    11760.637     3921.890        5.303        1.764      266.071       67.441        0.064      338.105       10.528      855.137
12/03/2014  20:35:00     -218.783     -123.953        7.837      133.061      106.070       64.549    17705.193    11250.927     4166.527        4.820        1.656      251.457       73.898        0.086      338.299       10.854      855.263
12/03/2014  20:36:00     -378.555     -118.970      -13.088      159.675      130.092       67.270    25496.085    16923.988     4525.317       10.228        2.347      396.809       77.648        0.038      338.401       11.024      855.298
12/03/2014  20:37:00     -318.929     -114.598       -9.668      133.310      114.415       61.624    17771.613    13090.687     3797.573        7.479        1.733      338.893       66.004        0.038      338.232       10.740      855.303
12/03/2014  20:38:00     -230.370      -64.508        2.009      120.963      101.213       55.954    14631.933    10244.056     3130.808        4.262        1.400      239.231       59.066        0.061      338.125       10.560      855.313
12/03/2014  20:39:00      -95.402      -30.038       17.157      163.316       79.953       68.603    26672.267     6392.518     4706.331        2.403        1.889      100.019       72.106        0.520      338.061       10.456      855.279
12/03/2014  20:40:00      -93.019      -43.426       13.434      105.704       86.270       46.190    11173.324     7442.524     2133.517        1.573        1.037      102.657       51.369        0.250      338.010       10.371      855.258
12/03/2014  20:41:00     -235.388      -50.451        7.229      164.907      100.420       58.879    27194.270    10084.234     3466.785        4.937        2.037      240.734       70.418        0.086      338.076       10.481      855.277
12/03/2014  20:42:00     -356.031      -81.811       -9.194      152.484      128.794       66.203    23251.365    16588.020     4382.819        8.887        2.211      365.309       65.979        0.033      338.084       10.494      855.275
12/03/2014  20:43:00     -419.117     -132.597      -17.194      213.333      179.764       83.140    45510.759    32314.939     6912.303       13.912        4.237      439.592       90.934        0.043      338.019       10.384      855.236
12/03/2014  20:44:00     -264.376     -107.600       -0.212      144.562      150.292       74.024    20898.209    22587.725     5479.497        6.521        2.448      285.434       70.647        0.061      337.973       10.306      855.212
12/03/2014  20:45:00     -385.832      -62.401      -10.152      168.947      155.801       79.116    28543.117    24273.869     6259.394       10.596        2.954      390.846       79.268        0.041      337.993       10.341      855.126
12/03/2014  20:46:00     -306.598      -50.660      -12.673      129.820       99.412       56.787    16853.282     9882.809     3224.795        6.334        1.498      310.755       59.733        0.037      337.962       10.287      855.008
12/03/2014  20:47:00     -209.921      -59.762       -7.692       92.496       88.653       55.900     8555.430     7859.416     3124.803        3.361        0.977      218.262       53.094        0.059      337.964       10.290      854.972
12/03/2014  20:48:00      -48.947      -80.630        4.391       47.483       74.565       26.545     2254.660     5559.985      704.637        0.872        0.426       94.324       18.840        0.040      337.980       10.321      855.055
12/03/2014  20:49:00       -9.229     -109.340       -3.556       69.138      105.909       42.603     4780.033    11216.679     1815.007        1.493        0.891      109.729       47.382        0.186      338.145       10.598      855.193
12/03/2014  20:50:00      147.307     -138.205       -6.611      135.765      136.071       77.962    18432.083    18515.402     6078.144        4.193        2.151      201.990       74.329        0.135      337.939       10.250      855.291
12/03/2014  20:51:00       80.765       91.944      136.039       93.395      127.493       84.740     8722.637    16254.564     7180.821        3.281        1.608      122.380       95.211        0.605      337.746        9.927      855.370
12/03/2014  20:52:00       64.326       47.844       62.553       77.226       69.089       46.167     5963.930     4773.358     2131.406        1.160        0.643       80.168       30.055        0.141      337.684        9.825      855.317
12/03/2014  20:53:00      164.196       90.929       40.248       88.721       56.561       56.770     7871.355     3199.145     3222.805        2.557        0.715      187.692       40.079        0.046      337.712        9.870      855.295
12/03/2014  20:54:00       69.579      -71.962       33.987       66.467      101.249       62.921     4417.845    10251.371     3959.015        1.490        0.931      100.099       74.586        0.555      337.803       10.024      855.538
12/03/2014  20:55:00       65.144     -115.266      -13.094       42.822       67.378       42.172     1833.766     4539.860     1778.478        1.293        0.408      132.401       32.590        0.061      337.940       10.252      855.807
12/03/2014  20:56:00      -35.458        2.921       19.236       60.090       36.404       30.191     3610.829     1325.277      911.480        0.374        0.292       35.578       22.340        0.394      337.843       10.091      855.837
12/03/2014  20:57:00      -44.322      -11.732       11.969       47.889       34.124       20.856     2293.338     1164.459      434.969        0.307        0.195       45.848       21.941        0.229      337.825       10.061      855.791
12/03/2014  20:58:00       61.057       31.400       15.849       21.997       25.855       15.455      483.872      668.483      238.862        0.318        0.070       68.658       11.402        0.028      337.879       10.152      855.740
12/03/2014  20:59:00       71.400       45.672       35.228       47.859       29.736       35.083     2290.437      884.248     1230.849        0.641        0.220       84.758       30.864        0.133      337.859       10.117      855.676
12/03/2014  21:00:00      175.103       72.569       32.047       73.726       48.439       42.195     5435.494     2346.315     1780.385        2.326        0.478      189.544       38.654        0.042      337.883       10.156      855.505
12/03/2014  21:01:00      209.602      134.310       20.903      111.691       82.197       63.001    12474.921     6756.347     3969.141        4.280        1.160      248.942       36.365        0.021      337.767        9.962      855.135
12/03/2014  21:02:00      177.579       84.491       29.018      132.457       97.568       57.375    17544.955     9519.555     3291.854        3.493        1.518      196.655       54.855        0.078      337.723        9.888      855.155
12/03/2014  21:03:00       38.835      -83.018        2.554       81.483       65.685       45.581     6639.500     4314.467     2077.596        1.072        0.652       91.653       38.790        0.179      337.969       10.302      855.656
12/03/2014  21:04:00     -153.869     -177.946       -9.869       86.827       81.111       47.763     7538.931     6578.962     2281.263        3.592        0.820      235.246       44.422        0.036      337.982       10.322      855.908
12/03/2014  21:05:00     -166.092     -148.460      -18.187       53.466       65.539       31.702     2858.606     4295.409     1004.991        2.906        0.408      222.771       25.930        0.014      337.974       10.307      855.941
12/03/2014  21:06:00      -86.855      -64.615        2.575       66.748       51.413       26.230     4455.238     2643.317      688.034        0.975        0.389      108.253       22.426        0.043      337.955       10.279      855.897
12/03/2014  21:07:00      -14.805       -7.854       12.171       29.388       23.392       19.412      863.674      547.208      376.819        0.111        0.089       16.759       15.926        0.903      337.912       10.205      855.854
12/03/2014  21:08:00      -29.312      -38.565        0.989       22.741       18.514       14.730      517.147      342.785      216.965        0.171        0.054       48.440       11.789        0.059      337.989       10.338      855.891
12/03/2014  21:09:00      -18.617      -17.242        0.675       15.119       21.993       10.695      228.595      483.711      114.379        0.074        0.041       25.375        7.535        0.088      337.940       10.253      855.914
12/03/2014  21:10:00       17.552       28.042       16.738       25.462       23.936       14.780      648.299      572.944      218.456        0.141        0.072       33.083       16.053        0.235      337.870       10.137      855.871
12/03/2014  21:11:00      112.742       55.756       30.923       30.963       25.083       24.766      958.726      629.135      613.341        0.949        0.110      125.775       15.719        0.016      337.959       10.286      855.762
12/03/2014  21:12:00        8.110       61.602       69.700       25.527       31.455       23.441      651.634      989.397      549.467        0.545        0.110       62.134       20.960        0.114      337.921       10.222      855.754
12/03/2014  21:13:00      -18.609      -32.308        9.867       27.939       27.791       31.536      780.606      772.365      994.495        0.202        0.127       37.284       21.697        0.339      337.959       10.286      855.805
12/03/2014  21:14:00      -70.419      -20.491       -2.977       28.189       33.641       14.480      794.632     1131.727      209.670        0.376        0.107       73.340        4.850        0.004      337.810       10.035      855.814
12/03/2014  21:15:00      -73.711      -14.977        0.036       36.964       25.826       18.753     1366.354      666.985      351.693        0.402        0.119       75.217       19.600        0.068      337.690        9.834      855.757
12/03/2014  21:16:00     -158.488        3.461      -10.285       42.153       24.147       20.469     1776.890      583.081      418.964        1.401        0.139      158.526       23.347        0.022      337.703        9.856      855.715
12/03/2014  21:17:00     -221.438       11.430      -29.090       30.492       27.847       22.948      929.735      775.439      526.618        2.612        0.112      221.732       18.559        0.007      337.804       10.022      855.720
12/03/2014  21:18:00     -151.987      -42.982      -11.204       47.113       43.372       24.638     2219.642     1881.126      607.042        1.489        0.235      157.947       20.997        0.018      337.749        9.933      855.752
12/03/2014  21:19:00     -163.818      -89.780        1.130       53.327       49.760       29.845     2843.764     2476.022      890.748        2.055        0.311      186.807       27.244        0.021      337.825       10.060      855.827
12/03/2014  21:20:00     -128.353     -100.005       -3.747       63.857       64.242       45.968     4077.678     4126.978     2113.101        1.840        0.516      162.713       40.145        0.061      337.863       10.123      855.900
12/03/2014  21:21:00     -116.881      -94.049       -8.291       78.098       59.819       40.318     6099.362     3578.336     1625.501        1.694        0.565      150.021       41.674        0.077      337.896       10.178      855.891
12/03/2014  21:22:00     -170.243      -44.623      -20.238       46.502       32.249       26.190     2162.421     1039.994      685.929        1.764        0.194      175.994       25.568        0.021      337.827       10.063      855.842
12/03/2014  21:23:00     -105.129      -68.175        5.184       76.879       61.960       39.379     5910.439     3839.099     1550.676        1.351        0.565      125.300       44.808        0.128      337.695        9.843      855.867
12/03/2014  21:24:00     -130.523     -115.372       -4.825       70.308       59.792       48.138     4943.165     3575.100     2317.292        2.060        0.542      174.204       40.591        0.054      337.707        9.861      855.901
12/03/2014  21:25:00     -121.859      -84.132        0.909       59.076       51.391       36.189     3489.983     2641.058     1309.656        1.468        0.372      148.080       34.896        0.056      337.677        9.813      855.860
12/03/2014  21:26:00     -121.472        8.583      -11.391       43.728       26.825       18.785     1912.099      719.555      352.863        0.897        0.149      121.774       19.519        0.026      337.790       10.001      855.782
12/03/2014  21:27:00      -57.905       12.810       -1.167       32.297       26.520       13.935     1043.107      703.317      194.189        0.273        0.097       59.305        3.059        0.003      337.831       10.070      855.744
12/03/2014  21:28:00       50.638       12.500        6.060       15.839       20.291       14.691      250.859      411.719      215.819        0.182        0.044       52.158        7.472        0.021      337.788        9.998      855.741
12/03/2014  21:29:00       21.154      -44.502        3.739       14.504       20.591       21.338      210.359      423.973      455.323        0.177        0.054       49.274        8.443        0.029      337.963       10.292      855.815
12/03/2014  21:30:00      -32.592      -76.950       -0.681       32.641       40.209       15.429     1065.428     1616.749      238.043        0.495        0.146       83.567       21.088        0.064      338.077       10.484      855.873
12/03/2014  21:31:00      -80.009      -91.009        3.756       48.945       35.010       24.887     2395.582     1225.710      619.384        0.947        0.212      121.178       22.821        0.035      337.922       10.223      855.918
12/03/2014  21:32:00     -132.152      -98.584      -12.533       49.415       33.596       23.724     2441.811     1128.688      562.822        1.574        0.207      164.873       24.236        0.022      337.884       10.159      855.944
12/03/2014  21:33:00     -166.843      -64.006       -2.573       59.985       54.446       34.003     3598.191     2964.354     1156.233        1.983        0.386      178.699       33.702        0.036      337.768        9.963      855.957
12/03/2014  21:34:00     -164.844      -34.740        1.294       68.151       67.195       38.488     4644.496     4515.130     1481.301        1.951        0.532      168.465       34.082        0.041      337.737        9.913      855.988
12/03/2014  21:35:00     -253.481      -81.556        3.518       95.278       64.826       45.742     9077.963     4202.417     2092.319        4.314        0.769      266.278       45.054        0.029      337.912       10.203      856.017
12/03/2014  21:36:00     -149.925      -25.735        2.783      109.377       50.063       39.379    11963.347     2506.336     1550.678        1.958        0.801      152.118       50.091        0.108      337.872       10.138      855.978
12/03/2014  21:37:00     -135.763      -33.973        3.068       73.154       40.234       27.867     5351.571     1618.805      776.589        1.367        0.387      139.949       32.353        0.053      337.847       10.096      855.913
12/03/2014  21:38:00     -135.404      -21.704      -13.912       43.491       35.527       26.405     1891.467     1262.134      697.249        1.142        0.193      137.132       26.287        0.037      337.772        9.972      855.867
12/03/2014  21:39:00      -93.945      -34.659       -0.235       50.273       35.955       23.578     2527.389     1292.754      555.941        0.720        0.219      100.134       24.283        0.059      337.798       10.015      855.892
12/03/2014  21:40:00     -157.724      -85.646        2.183       64.007       41.418       28.693     4096.931     1715.430      823.261        1.942        0.332      179.477       27.109        0.023      337.660        9.783      856.009
12/03/2014  21:41:00     -175.540      -38.652        1.238       84.372       70.106       41.821     7118.686     4914.860     1749.002        2.304        0.689      179.745       42.904        0.057      337.574        9.636      856.110
12/03/2014  21:42:00     -147.696        3.342        6.225       94.600       53.099       43.754     8949.112     2819.499     1914.416        1.777        0.684      147.734       44.725        0.092      337.487        9.492      856.125
12/03/2014  21:43:00       10.624      -32.077       12.571       50.909       41.749       23.503     2591.708     1742.955      552.387        0.309        0.244       33.790       21.845        0.418      337.665        9.791      856.096
12/03/2014  21:44:00      108.046       34.950        5.752       49.896       31.500       28.749     2489.607      992.268      826.478        0.862        0.215      113.558       27.159        0.057      337.559        9.616      856.032
12/03/2014  21:45:00      132.927       83.643       25.007       61.290       40.786       49.824     3756.418     1663.469     2482.401        1.660        0.395      157.053       26.444        0.028      337.378        9.310      855.964
12/03/2014  21:46:00      190.608      115.780       27.002       69.099       53.344       43.498     4774.714     2845.610     1892.086        2.999        0.476      223.017       29.259        0.017      337.178        8.974      855.893
12/03/2014  21:47:00      210.760      104.578       35.931       71.079       56.069       46.993     5052.276     3143.697     2208.299        3.352        0.520      235.279       34.419        0.021      337.211        9.029      855.891
12/03/2014  21:48:00      129.969       82.846       45.704       34.563       31.332       33.989     1194.595      981.675     1155.232        1.459        0.167      154.127       20.270        0.017      337.154        8.937      855.946
12/03/2014  21:49:00      124.264       56.902       21.018       48.954       35.845       34.978     2396.521     1284.845     1223.434        1.201        0.245      136.672       24.882        0.033      337.277        9.144      856.000
12/03/2014  21:50:00       92.512       27.184       16.513       49.590       46.033       23.856     2459.216     2119.039      569.127        0.736        0.257       96.423       25.249        0.069      337.287        9.160      856.034
12/03/2014  21:51:00       28.501      -36.210       17.407       30.428       32.062       30.960      925.878     1027.946      958.499        0.267        0.146       46.082       28.169        0.374      337.350        9.265      856.064
12/03/2014  21:52:00        9.265      -16.428       -2.732       23.364       36.000       19.336      545.899     1296.009      373.862        0.129        0.111       18.861       17.501        0.861      337.382        9.317      856.051
12/03/2014  21:53:00      -18.495       -3.430        0.531       16.083       12.983       10.907      258.674      168.558      118.955        0.045        0.027       18.810       10.740        0.326      337.395        9.340      856.105
12/03/2014  21:54:00      -62.696      -34.710        0.302       46.453       30.147       17.314     2157.903      908.864      299.762        0.425        0.168       71.663       12.879        0.032      337.384        9.323      856.158
12/03/2014  21:55:00     -101.050      -22.883       -1.674       43.745       39.413       19.123     1913.657     1553.421      365.675        0.728        0.192      103.608       16.618        0.026      337.378        9.311      856.132
12/03/2014  21:56:00      -41.425       42.369       -9.322       21.374       27.174       12.725      456.829      738.425      161.933        0.248        0.068       59.255       10.927        0.034      337.575        9.641      855.980
12/03/2014  21:57:00      -14.183       81.795       -9.807       22.008       21.191       12.397      484.335      449.051      153.696        0.404        0.054       83.016        9.613        0.013      337.731        9.904      855.933
12/03/2014  21:58:00       14.212       18.097       -8.033       16.673       29.711        7.758      277.998      882.722       60.185        0.091        0.061       23.011        8.900        0.150      337.612        9.705      856.028
12/03/2014  21:59:00        0.422      -40.646        0.859       14.140       13.592       15.584      199.926      184.742      242.856        0.114        0.031       40.648        6.328        0.024      337.692        9.838      856.106
12/03/2014  22:00:00      -29.045       -7.799       -6.199       22.077       15.875        8.816      487.396      252.013       77.717        0.088        0.041       30.073       10.076        0.112      337.631        9.733      856.113
12/03/2014  22:01:00      -12.418       13.590       -8.336        9.281       10.175        7.417       86.133      103.529       55.016        0.033        0.012       18.409        3.977        0.047      337.884       10.159      856.060
12/03/2014  22:02:00      -67.063       12.785       -8.936       24.712       15.112       14.106      610.707      228.371      198.990        0.289        0.052       68.271       12.786        0.035      337.585        9.658      856.014
12/03/2014  22:03:00      -96.767       16.597       -4.422       22.273       13.747       11.840      496.107      188.981      140.174        0.524        0.041       98.180       10.779        0.012      337.376        9.308      856.005
12/03/2014  22:04:00      -57.973        9.668       -8.856       18.747       14.312        7.813      351.464      204.844       61.039        0.207        0.031       58.773        5.350        0.008      337.331        9.231      856.012
12/03/2014  22:05:00      -14.021       29.259       -3.970       27.625       16.763       10.061      763.118      280.999      101.220        0.111        0.057       32.445       11.992        0.137      337.631        9.735      855.975
12/03/2014  22:06:00      -30.987       10.621       -8.293       25.803       35.455       10.333      665.774     1257.071      106.778        0.159        0.101       32.756       10.480        0.102      337.649        9.766      855.998
12/03/2014  22:07:00      -95.870      -58.842       -8.759       28.966       26.878       18.648      839.016      722.402      347.745        0.732        0.095      112.487       14.273        0.016      337.115        8.871      856.086
12/03/2014  22:08:00      -39.289      -23.796        2.664       32.333       20.397       16.864     1045.438      416.048      284.395        0.193        0.087       45.934        9.763        0.045      337.103        8.850      856.160
12/03/2014  22:09:00        2.546       -7.285        7.722       16.629       27.414       19.456      276.532      751.528      378.535        0.076        0.070        7.717       20.757        7.236      337.199        9.012      856.233
12/03/2014  22:10:00       39.691       69.458       56.122       59.176       50.435       41.052     3501.804     2543.738     1685.300        0.864        0.387       79.999       38.848        0.236      337.194        9.005      856.279
12/03/2014  22:11:00       44.964       39.959       56.413       40.726       31.875       27.258     1658.628     1016.037      743.009        0.511        0.171       60.154       22.396        0.139      337.078        8.809      856.250
12/03/2014  22:12:00       70.110       25.790       13.594       39.807       29.101       31.880     1584.632      846.848     1016.313        0.461        0.172       74.703       14.737        0.039      336.882        8.482      856.165
12/03/2014  22:13:00       79.825       53.777        8.595       39.050       26.671       22.077     1524.913      711.338      487.378        0.603        0.136       96.250       14.109        0.021      336.822        8.381      856.099
12/03/2014  22:14:00      134.625       87.523       36.647       43.509       37.723       41.029     1893.015     1422.995     1683.414        1.606        0.250      160.575       31.724        0.039      337.072        8.799      856.057
12/03/2014  22:15:00      158.282       88.725       22.056       40.593       36.057       34.229     1647.781     1300.128     1171.591        1.876        0.206      181.454       20.352        0.013      337.059        8.776      855.964
12/03/2014  22:16:00       21.692       45.747        5.750       96.326       46.451       36.031     9278.725     2157.680     1298.216        0.766        0.637       50.630       43.499        0.738      337.096        8.840      855.936
12/03/2014  22:17:00     -131.797      -53.912      -15.710       39.694       43.677       21.476     1575.584     1907.690      461.214        1.223        0.197      142.397        6.523        0.002      336.717        8.206      856.026
12/03/2014  22:18:00      -58.510      -58.909       13.667       61.607       41.869       31.945     3795.403     1753.016     1020.473        0.682        0.328       83.028       18.383        0.049      336.829        8.393      856.095
12/03/2014  22:19:00     -130.401      -88.159       -2.154       74.711       54.235       30.809     5581.808     2941.479      949.225        1.712        0.474      157.405       38.354        0.059      337.030        8.729      856.146
12/03/2014  22:20:00     -166.788     -107.706       -8.355      107.268       82.730       53.470    11506.355     6844.188     2859.072        3.034        1.060      198.542       55.143        0.077      336.985        8.651      856.230
12/03/2014  22:21:00     -216.486     -129.075       -4.519       84.279       86.984       48.221     7102.945     7566.210     2325.244        4.027        0.850      252.045       35.228        0.020      337.012        8.695      856.294
12/03/2014  22:22:00     -183.951      -80.481        0.812       99.810       79.259       47.857     9961.938     6282.060     2290.287        2.942        0.927      200.786       42.529        0.045      337.151        8.927      856.269
12/03/2014  22:23:00     -171.215      -70.305       -9.265       82.733       57.637       31.759     6844.729     3322.081     1008.663        2.276        0.559      185.087       33.850        0.033      337.329        9.227      856.135
12/03/2014  22:24:00     -112.280       -4.038       -6.869       32.856       28.539       22.725     1079.521      814.489      516.433        0.754        0.121      112.353       24.173        0.046      337.416        9.376      856.167
12/03/2014  22:25:00     -108.518       14.014      -18.462       40.974       31.478       18.435     1678.845      990.894      339.832        0.766        0.150      109.419       14.960        0.019      337.624        9.723      856.281
12/03/2014  22:26:00      -96.171      -11.055       -2.673       54.336       38.067       21.718     2952.385     1449.123      471.656        0.712        0.244       96.805       22.376        0.053      337.597        9.680      856.257
12/03/2014  22:27:00       10.633      -22.592       12.404       22.095       21.707       18.159      488.204      471.195      329.743        0.103        0.064       24.969        9.310        0.139      337.525        9.556      856.221
12/03/2014  22:28:00       21.750       25.487       -1.227       27.562       28.135       26.758      759.661      791.591      715.988        0.170        0.113       33.506       25.228        0.567      337.753        9.940      856.146
12/03/2014  22:29:00       65.360      102.257      -15.567       55.301       32.218       24.331     3058.234     1037.992      592.007        0.983        0.234      121.360       16.454        0.018      337.479        9.482      856.006
12/03/2014  22:30:00      -53.081      138.975      -25.910       33.382       38.448       21.020     1114.384     1478.280      441.827        1.292        0.152      148.767       19.034        0.016      337.709        9.868      855.996
12/03/2014  22:31:00      -50.696      110.707      -17.023       31.465       33.359       18.728      990.056     1112.812      350.736        0.878        0.123      121.763       16.070        0.017      337.691        9.837      855.983
12/03/2014  22:32:00      -59.777      136.158      -26.067       37.988       32.462       20.097     1443.120     1053.768      403.909        1.285        0.145      148.702       15.884        0.011      337.680        9.818      856.011
12/03/2014  22:33:00       -9.930       41.033        0.913       19.168       40.986       18.569      367.415     1679.815      344.821        0.209        0.120       42.218       13.796        0.107      337.739        9.917      856.031
12/03/2014  22:34:00      -77.645       43.934       -6.308       45.188       28.202       18.623     2041.957      795.340      346.828        0.559        0.159       89.213       22.612        0.064      337.691        9.837      855.978
12/03/2014  22:35:00     -198.643      -85.957       -8.628       47.395       45.159       25.559     2246.324     2039.321      653.267        2.593        0.247      216.443       11.081        0.003      337.394        9.335      856.082
12/03/2014  22:36:00     -199.448      -80.101        3.762       88.369       72.268       43.256     7809.140     5222.658     1871.074        3.055        0.745      214.932       39.841        0.034      337.281        9.148      856.160
12/03/2014  22:37:00     -107.816      -72.627       -8.673       90.120       47.162       33.584     8121.642     2224.274     1127.865        1.422        0.574      129.996       24.071        0.034      337.194        9.003      856.096
12/03/2014  22:38:00       11.667      -13.868       -5.526       29.818       21.774       14.696      889.133      474.107      215.984        0.097        0.079       18.123       10.441        0.332      337.216        9.043      855.977
12/03/2014  22:39:00       -7.050       25.186       -4.885       24.175       33.202       15.700      584.442     1102.387      246.494        0.132        0.097       26.154       18.055        0.477      337.260        9.112      855.931
12/03/2014  22:40:00      -80.315      -36.246       -9.872       26.036       37.076       13.859      677.882     1374.662      192.065        0.505        0.112       88.115        7.095        0.006      337.328        9.228      856.007
12/03/2014  22:41:00       -0.565      -17.758        8.843       28.372       14.467       16.786      804.951      209.296      281.777        0.084        0.065       17.767        6.828        0.148      337.161        8.948      856.100
12/03/2014  22:42:00        6.745      -45.034       -4.833       15.248       13.407       10.020      232.514      179.745      100.410        0.130        0.026       45.537        6.001        0.017      337.231        9.068      856.154
12/03/2014  22:43:00       -3.137      -22.244        3.037        9.787       23.454       12.142       95.780      550.106      147.427        0.065        0.040       22.464       11.370        0.256      337.278        9.144      856.190
12/03/2014  22:44:00       -5.023       36.590       65.651       22.712       29.641       37.512      515.819      878.580     1407.138        0.424        0.140       36.933       28.065        0.577      337.204        9.020      856.115
12/03/2014  22:45:00        8.965       23.726       51.511       24.669       34.869       30.652      608.550     1215.855      939.573        0.303        0.138       25.363       29.193        1.325      337.315        9.205      856.083
12/03/2014  22:46:00      -33.261      -55.400      -10.080       30.319       39.181       19.806      919.231     1535.116      392.284        0.356        0.142       64.618        8.396        0.017      337.382        9.319      856.215
12/03/2014  22:47:00        3.267      -24.974        5.776       25.646       31.805       20.748      657.702     1011.552      430.461        0.138        0.105       25.187       16.640        0.436      337.235        9.073      856.313
12/03/2014  22:48:00      -10.817       50.539       70.987       14.428       28.214       32.991      208.159      796.026     1088.376        0.490        0.105       51.684       24.770        0.230      337.307        9.191      856.284
12/03/2014  22:49:00       -7.511       62.040       98.114       22.122       53.965       29.813      489.375     2912.266      888.801        0.891        0.215       62.493       33.852        0.293      337.159        8.945      856.205
12/03/2014  22:50:00       42.101      -32.196       18.773       43.326       53.537       37.136     1877.134     2866.192     1379.049        0.464        0.306       53.001       41.466        0.612      337.252        9.101      856.218
12/03/2014  22:51:00       72.441     -106.467       -8.830       31.232       33.442       24.853      975.445     1118.380      617.680        0.969        0.136      128.774       19.662        0.023      337.344        9.254      856.287
12/03/2014  22:52:00      149.806     -179.361      -30.535       52.710       52.483       31.924     2778.396     2754.490     1019.118        3.105        0.328      233.692       28.071        0.014      337.384        9.318      856.375
12/03/2014  22:53:00      128.531     -134.650      -10.652       74.147      101.258       53.615     5497.810    10253.246     2874.549        2.669        0.931      186.147       68.038        0.134      337.447        9.424      856.389
12/03/2014  22:54:00       45.493      -48.102       26.197       62.044       73.757       45.371     3849.430     5440.152     2058.568        0.821        0.567       66.207       45.589        0.474      337.228        9.062      856.431
12/03/2014  22:55:00       10.704      -98.724       -8.315       34.952       39.619       27.004     1221.610     1569.635      729.207        0.672        0.176       99.302       22.463        0.051      337.227        9.058      856.389
12/03/2014  22:56:00      -62.378      -28.897       -5.289       39.029       18.734       15.305     1523.230      350.959      234.256        0.343        0.105       68.746       19.033        0.077      337.012        8.699      856.334
12/03/2014  22:57:00     -148.764      -64.560        0.692       50.311       43.835       27.076     2531.211     1921.547      733.118        1.574        0.259      162.169       17.741        0.012      336.775        8.303      856.417
12/03/2014  22:58:00      -88.930      -70.273        2.486       71.583       39.680       27.984     5124.172     1574.490      783.108        1.017        0.374      113.344       22.209        0.038      337.070        8.794      856.444
12/03/2014  22:59:00      -83.337      -54.227       -6.801       41.139       36.658       22.706     1692.455     1343.838      515.573        0.674        0.178       99.426       14.967        0.023      337.170        8.963      856.406
12/03/2014  23:00:00      -62.198       -7.776        1.314       47.923       25.102       15.239     2296.634      630.125      232.229        0.354        0.158       62.682       12.922        0.042      337.172        8.967      856.418
12/03/2014  23:01:00       -1.090       17.315       -7.689        5.696       16.636        4.836       32.443      276.764       23.384        0.035        0.017       17.349        4.388        0.064      337.120        8.877      856.438
12/03/2014  23:02:00      -23.673        9.657       -4.209        7.426       11.410        8.156       55.147      130.195       66.523        0.046        0.013       25.567        3.278        0.016      337.176        8.972      856.436
12/03/2014  23:03:00      -29.224       48.235       -2.892       22.658       24.934       15.094      513.371      621.711      227.827        0.228        0.068       56.397       16.397        0.085      337.154        8.936      856.423
12/03/2014  23:04:00      -61.430       35.161      -16.860       12.072       22.119        8.088      145.728      489.230       65.411        0.300        0.035       70.781        8.820        0.016      337.181        8.982      856.394
12/03/2014  23:05:00      -87.783      -27.273      -10.191       24.762       32.967       12.307      613.153     1086.839      151.465        0.520        0.093       91.922        7.941        0.007      336.987        8.657      856.452
12/03/2014  23:06:00      -57.836      -46.312        1.304       49.517       28.827       24.693     2451.911      831.005      609.726        0.469        0.195       74.094       23.551        0.101      336.939        8.577      856.479
12/03/2014  23:07:00      -92.573      -32.851       -0.237       42.565       25.117       17.793     1811.805      630.878      316.599        0.620        0.138       98.229       19.614        0.040      336.979        8.644      856.416
12/03/2014  23:08:00     -146.608        6.828      -11.965       39.046       25.912       15.544     1524.613      671.406      241.626        1.206        0.122      146.767       17.153        0.014      337.040        8.744      856.348
12/03/2014  23:09:00      -40.052       25.239       -8.103       35.417       13.549       14.226     1254.386      183.579      202.380        0.197        0.082       47.341       12.046        0.065      337.112        8.866      856.277
12/03/2014  23:10:00       20.216        4.012        4.184       14.250        7.734        7.072      203.072       59.810       50.010        0.038        0.016       20.611        2.764        0.018      337.189        8.996      856.293
12/03/2014  23:11:00       29.314       -6.253        2.802        7.514       12.553        8.522       56.467      157.582       72.622        0.060        0.014       29.973        4.190        0.020      337.393        9.337      856.326
12/03/2014  23:12:00       -4.381      -26.282       -3.517       23.113        6.184        4.449      534.223       38.242       19.793        0.066        0.030       26.645        7.584        0.081      337.808       10.031      856.365
12/03/2014  23:13:00     -104.499       -5.332      -17.080       23.568       23.220       11.409      555.461      539.176      130.173        0.623        0.061      104.635       10.369        0.010      337.173        8.968      856.424
12/03/2014  23:14:00     -159.002       40.629      -23.842       60.272       35.886       25.006     3632.707     1287.830      625.291        1.652        0.277      164.110       21.600        0.017      337.105        8.854      856.336
12/03/2014  23:15:00     -194.325       17.563      -18.094       58.952       72.633       33.893     3475.371     5275.515     1148.741        2.415        0.495      195.117       27.919        0.020      336.972        8.630      856.188
12/03/2014  23:16:00     -196.791       93.347      -22.758       83.608       51.216       43.204     6990.221     2623.072     1866.583        2.972        0.574      217.808       23.856        0.012      337.120        8.877      856.073
12/03/2014  23:17:00      -24.335      -60.459       -2.775       88.841       84.402       31.602     7892.790     7123.677      998.672        1.013        0.801       65.172       27.491        0.178      337.343        9.253      856.108
12/03/2014  23:18:00       29.032     -120.780       -5.947       60.681      101.738       69.723     3682.220    10350.581     4861.233        1.718        0.945      124.220       56.648        0.208      337.189        8.994      856.212
12/03/2014  23:19:00       23.752      143.041      162.952       58.661       80.507       48.270     3441.130     6481.392     2330.003        2.991        0.613      145.000       54.122        0.139      337.606        9.692      856.235
12/03/2014  23:20:00       96.431     -224.242      -41.655       91.681       88.748       57.394     8405.362     7876.288     3294.074        4.044        0.979      244.098       53.453        0.048      338.220       10.720      856.272
12/03/2014  23:21:00       81.033       95.514      103.954       85.888      104.519       77.767     7376.763    10924.260     6047.692        2.542        1.217      125.256       74.222        0.351      338.441       11.093      856.157
12/03/2014  23:22:00       65.495       39.007       26.511      142.884      117.691       61.171    20415.705    13851.102     3741.908        2.225        1.900       76.231       22.072        0.084      338.163       10.627      855.994
12/03/2014  23:23:00     -104.713      -87.709       -8.030      100.233       51.818       40.056    10046.724     2685.099     1604.471        1.653        0.717      136.593       28.991        0.045      337.672        9.802      856.164
12/03/2014  23:24:00     -141.295      -65.805        3.236       82.166       62.341       37.063     6751.184     3886.416     1373.646        1.816        0.601      155.867       32.532        0.044      337.687        9.828      856.262
12/03/2014  23:25:00        4.708       24.032       56.930       40.168       39.888       41.945     1613.461     1591.065     1759.371        0.440        0.248       24.489       33.543        1.876      337.659        9.782      856.214
12/03/2014  23:26:00       65.654       74.659      104.490       78.380       82.360       60.161     6143.381     6783.132     3619.372        1.867        0.827       99.420       50.365        0.257      337.619        9.714      856.095
12/03/2014  23:27:00      112.516       64.343       83.321       66.358       67.497       50.854     4403.408     4555.791     2586.105        1.764        0.577      129.614       45.545        0.123      337.392        9.334      856.072
12/03/2014  23:28:00       46.123      -22.644       36.025       55.026       87.963       60.561     3027.904     7737.523     3667.642        0.918        0.722       51.381       62.712        1.490      337.260        9.114      856.241
12/03/2014  23:29:00       28.368        1.464       13.073       38.178       39.708       32.287     1457.540     1576.732     1042.428        0.253        0.204       28.405       22.244        0.613      337.253        9.103      856.326
12/03/2014  23:30:00       31.734       -8.380        9.242       28.557       21.445       12.002      815.528      459.874      144.052        0.129        0.071       32.822        7.561        0.053      337.229        9.064      856.341
12/03/2014  23:31:00       22.191        1.785       17.315       20.365       27.177       14.600      414.713      738.573      213.164        0.108        0.068       22.262       14.172        0.405      337.120        8.879      856.411
12/03/2014  23:32:00       42.595       33.103       -6.300       35.303       17.578       17.067     1246.316      308.995      291.281        0.240        0.092       53.945       16.253        0.091      337.138        8.909      856.485
12/03/2014  23:33:00      114.644       75.337       38.088       29.588       34.091       40.793      875.464     1162.163     1664.088        1.198        0.185      137.182       27.292        0.040      337.080        8.811      856.509
12/03/2014  23:34:00      127.933       81.955       47.898       61.714       60.535       49.642     3808.615     3664.540     2464.355        1.766        0.497      151.932       37.199        0.060      336.986        8.654      856.423
12/03/2014  23:35:00      217.803      122.684       12.889       56.762       56.273       44.410     3221.978     3166.688     1972.250        3.551        0.418      249.979       25.905        0.011      336.936        8.567      856.286
12/03/2014  23:36:00      159.091      121.099        5.498       59.720       46.041       48.924     3566.503     2119.781     2393.590        2.404        0.404      199.937       29.437        0.022      336.869        8.458      856.199
12/03/2014  23:37:00       60.913       58.601       10.284       58.900       43.135       37.479     3469.174     1860.634     1404.697        0.699        0.337       84.525       29.520        0.122      336.842        8.415      856.225
12/03/2014  23:38:00       23.534       45.353       10.415       71.484       27.742       26.718     5110.003      769.606      713.877        0.466        0.330       51.096       24.506        0.230      336.852        8.432      856.326
12/03/2014  23:39:00      -39.169        1.710      -10.092       33.219       38.251       19.909     1103.470     1463.102      396.373        0.230        0.148       39.206       15.339        0.153      336.950        8.594      856.439
12/03/2014  23:40:00       14.249      -76.115        2.374       27.660       15.587       24.047      765.095      242.955      578.237        0.379        0.079       77.437       13.506        0.030      336.969        8.627      856.565
12/03/2014  23:41:00       -9.191      -29.633        1.437       34.808       38.097       18.075     1211.617     1451.372      326.694        0.198        0.149       31.026       21.945        0.500      337.136        8.907      856.610
12/03/2014  23:42:00       15.102       33.209       42.071       46.228       34.132       35.962     2137.070     1165.019     1293.285        0.385        0.230       36.481       35.960        0.972      337.005        8.686      856.479
12/03/2014  23:43:00       27.162      105.788      -11.964       22.426       38.864       26.573      502.923     1510.378      706.115        0.740        0.136      109.220       28.195        0.067      337.012        8.699      856.284
12/03/2014  23:44:00        6.689       63.005      -19.318       18.847       40.687       13.662      355.203     1655.394      186.646        0.329        0.110       63.359       13.096        0.043      337.087        8.823      856.285
12/03/2014  23:45:00      -26.124      -44.222      -12.786       34.156       23.521       16.990     1166.625      553.247      288.657        0.240        0.100       51.362       14.367        0.078      337.063        8.783      856.421
12/03/2014  23:46:00      -35.694      -27.203        7.811       60.249       35.363       23.258     3629.981     1250.541      540.948        0.375        0.271       44.878       20.875        0.216      337.055        8.770      856.510
12/03/2014  23:47:00      -69.220      -59.356        9.042       50.316       43.422       25.733     2531.668     1885.498      662.188        0.674        0.254       91.184       25.272        0.077      337.008        8.691      856.562
12/03/2014  23:48:00     -106.949     -104.674       -5.648       38.349       44.682       28.470     1470.628     1996.509      810.565        1.335        0.214      149.649       22.874        0.023      337.028        8.724      856.565
12/03/2014  23:49:00      -79.704      -47.158      -11.980       43.488       39.212       23.824     1891.184     1537.567      567.581        0.636        0.200       92.610        7.262        0.006      337.011        8.695      856.495
12/03/2014  23:50:00      -69.543      -19.530       -2.067       21.527       24.782       17.277      463.399      614.152      298.497        0.330        0.069       72.233       12.845        0.032      336.997        8.672      856.418
12/03/2014  23:51:00      -60.561      -13.601        6.860       37.513       26.296       16.867     1407.249      691.471      284.492        0.314        0.119       62.069       16.479        0.070      336.928        8.557      856.406
12/03/2014  23:52:00     -105.017        5.408       -3.182       51.262       34.538       27.093     2627.814     1192.907      734.016        0.781        0.228      105.156       27.377        0.068      336.893        8.501      856.452
12/03/2014  23:53:00     -204.557      -93.169       -3.391       49.055       46.177       24.640     2406.373     2132.340      607.147        2.784        0.257      224.776       22.418        0.010      336.969        8.622      856.520
12/03/2014  23:54:00     -161.275      -56.847        3.992       84.573       55.302       35.545     7152.610     3058.277     1263.413        2.036        0.574      171.001       39.751        0.054      336.979        8.642      856.549
12/03/2014  23:55:00     -108.969      -49.578        7.581       60.278       56.219       31.892     3633.460     3160.584     1017.076        1.110        0.391      119.717       33.756        0.080      337.068        8.792      856.493
12/03/2014  23:56:00      -87.593      -70.478        4.664       57.045       30.870       22.953     3254.119      952.961      526.862        0.870        0.237      112.426       20.560        0.033      337.220        9.047      856.453
12/03/2014  23:57:00      -39.364      -84.723       -1.230       19.902       51.559       17.711      396.089     2658.352      313.678        0.605        0.168       93.421       19.935        0.046      337.378        9.311      856.454
12/03/2014  23:58:00        0.074       17.136       39.224       48.294       58.924       50.857     2332.337     3472.049     2586.415        0.511        0.420       17.136       46.427        7.341      337.061        8.780      856.447
12/03/2014  23:59:00        7.308       94.596      104.919       30.682       43.469       24.786      941.405     1889.545      614.370        1.173        0.172       94.878       22.552        0.057      337.021        8.713      856.337
